[[{"header":{"parameterUnit":"m.s-1","parameterCategory":1,"la1":30.6,"la2":29.2853,"lo1":-89.7004,"lo2":-87.6739,"dy":0.0162,"dx":0.0183,"nx":112,"ny":82,"refTime":"2023-02-24T06:00:00:Z","depth":0,"parameterNumber":2,"parameterNumberName":"U-component_of_WINDS"},"data":[0.0,0.0,0.0,0.0,0.0,0.0,0.0,0.0,0.0,0.0,0.0,0.0,0.0,0.0,0.0,0.0,0.0,0.0,0.0,0.0,0.0,0.0,0.0,0.0,0.0,0.0,0.0,0.0,0.0,0.0,0.0,0.0,0.0,0.0,0.0,0.0,0.0,0.0,0.0,0.0,0.0,0.0,0.0,0.0,0.0,0.0,0.0,0.0,0.0,0.0,0.0,0.0,0.0,0.0,0.0,0.0,0.0,0.0,0.0,0.0,0.0,0.0,0.0,0.0,0.0,0.0,0.0,0.0,0.0,0.0,0.0,0.0,0.0,0.0,0.0,0.0,0.0,0.0,0.0,0.0,0.0,0.0,0.0,0.0,0.0,0.0,0.0,0.0,0.0,0.0,-4.6836,-4.8711,-5.0273,-5.0898,-5.0078,-4.8945,-4.6992,-4.3906,0.0,0.0,0.0,0.0,0.0,0.0,0.0,0.0,0.0,0.0,0.0,0.0,0.0,0.0,0.0,0.0,0.0,0.0,0.0,0.0,0.0,0.0,0.0,0.0,0.0,0.0,0.0,0.0,0.0,0.0,0.0,0.0,0.0,0.0,0.0,0.0,0.0,0.0,0.0,0.0,0.0,0.0,0.0,0.0,0.0,0.0,0.0,0.0,0.0,0.0,0.0,0.0,0.0,0.0,0.0,0.0,0.0,0.0,0.0,0.0,0.0,0.0,0.0,0.0,0.0,0.0,0.0,0.0,0.0,0.0,0.0,0.0,0.0,0.0,0.0,0.0,0.0,0.0,0.0,0.0,0.0,0.0,0.0,0.0,0.0,0.0,0.0,0.0,0.0,0.0,0.0,0.0,0.0,0.0,0.0,0.0,0.0,0.0,0.0,0.0,0.0,0.0,0.0,0.0,-4.6133,-4.8633,-4.9805,-5.0039,-4.918,-4.6953,-4.5039,-4.3789,0.0,0.0,0.0,0.0,0.0,0.0,0.0,0.0,0.0,0.0,0.0,0.0,0.0,0.0,0.0,0.0,0.0,0.0,0.0,0.0,0.0,0.0,0.0,0.0,0.0,0.0,0.0,0.0,0.0,0.0,0.0,0.0,0.0,0.0,0.0,0.0,0.0,0.0,0.0,0.0,0.0,0.0,0.0,0.0,0.0,0.0,0.0,0.0,0.0,0.0,0.0,0.0,0.0,0.0,0.0,0.0,0.0,0.0,0.0,0.0,0.0,0.0,0.0,0.0,0.0,0.0,0.0,0.0,0.0,0.0,0.0,0.0,0.0,0.0,0.0,0.0,0.0,0.0,0.0,0.0,0.0,0.0,0.0,0.0,0.0,0.0,0.0,0.0,0.0,0.0,0.0,0.0,0.0,0.0,0.0,0.0,0.0,0.0,0.0,0.0,0.0,0.0,0.0,-4.6797,-4.7578,-4.8789,-4.9687,-4.9844,-4.8984,-4.7383,-4.5625,-4.3828,-4.4062,0.0,0.0,0.0,0.0,0.0,0.0,0.0,0.0,0.0,0.0,0.0,0.0,0.0,0.0,0.0,0.0,0.0,0.0,0.0,0.0,0.0,0.0,0.0,0.0,0.0,0.0,0.0,0.0,0.0,0.0,0.0,0.0,0.0,0.0,0.0,0.0,0.0,0.0,0.0,0.0,0.0,0.0,0.0,0.0,0.0,0.0,0.0,0.0,0.0,0.0,0.0,0.0,0.0,0.0,0.0,0.0,0.0,0.0,0.0,0.0,0.0,0.0,0.0,0.0,0.0,0.0,0.0,0.0,0.0,0.0,0.0,0.0,0.0,0.0,0.0,0.0,0.0,0.0,0.0,0.0,0.0,0.0,0.0,0.0,0.0,0.0,0.0,0.0,0.0,0.0,0.0,0.0,0.0,0.0,0.0,0.0,0.0,0.0,0.0,0.0,0.0,0.0,-4.7695,-4.875,-4.832,-4.9258,-4.9453,-4.8398,-4.7305,-4.582,-4.3828,-4.332,0.0,0.0,0.0,0.0,0.0,0.0,0.0,0.0,0.0,0.0,0.0,0.0,0.0,0.0,0.0,0.0,0.0,0.0,0.0,0.0,0.0,0.0,0.0,0.0,0.0,0.0,0.0,0.0,0.0,0.0,0.0,0.0,0.0,0.0,0.0,0.0,0.0,0.0,0.0,0.0,0.0,0.0,0.0,0.0,0.0,0.0,0.0,0.0,0.0,0.0,0.0,0.0,0.0,0.0,0.0,0.0,0.0,0.0,0.0,0.0,0.0,0.0,0.0,0.0,0.0,0.0,0.0,0.0,0.0,0.0,0.0,0.0,0.0,0.0,0.0,0.0,0.0,0.0,0.0,0.0,0.0,0.0,0.0,0.0,0.0,0.0,0.0,0.0,0.0,0.0,0.0,0.0,0.0,0.0,0.0,0.0,0.0,0.0,0.0,0.0,0.0,0.0,-4.7305,-4.8281,-4.6641,-4.8008,-4.832,-4.6641,-4.4922,-4.3906,-4.3711,-4.2226,0.0,0.0,0.0,0.0,0.0,0.0,0.0,0.0,0.0,0.0,0.0,0.0,0.0,0.0,0.0,0.0,0.0,0.0,0.0,0.0,0.0,0.0,0.0,0.0,0.0,0.0,0.0,0.0,0.0,0.0,0.0,0.0,0.0,0.0,0.0,0.0,0.0,0.0,0.0,0.0,0.0,0.0,0.0,0.0,0.0,0.0,0.0,0.0,0.0,0.0,0.0,0.0,0.0,0.0,0.0,0.0,0.0,0.0,0.0,0.0,0.0,0.0,0.0,0.0,0.0,0.0,0.0,0.0,0.0,0.0,0.0,0.0,0.0,0.0,0.0,0.0,0.0,0.0,0.0,0.0,0.0,0.0,0.0,0.0,0.0,0.0,0.0,0.0,0.0,0.0,0.0,0.0,0.0,0.0,0.0,0.0,0.0,0.0,0.0,0.0,0.0,0.0,-4.7617,-4.8437,0.0,-4.8164,-4.8398,-4.7226,-4.5508,-4.4297,-4.3711,0.0,0.0,0.0,0.0,0.0,0.0,0.0,0.0,0.0,0.0,0.0,0.0,0.0,0.0,0.0,0.0,0.0,0.0,0.0,0.0,0.0,0.0,0.0,0.0,0.0,0.0,0.0,0.0,0.0,0.0,0.0,0.0,0.0,0.0,0.0,0.0,0.0,0.0,0.0,0.0,0.0,0.0,0.0,0.0,0.0,0.0,0.0,0.0,0.0,0.0,0.0,0.0,0.0,0.0,0.0,0.0,0.0,0.0,0.0,0.0,0.0,0.0,0.0,0.0,0.0,0.0,0.0,0.0,0.0,0.0,0.0,0.0,0.0,0.0,0.0,0.0,0.0,0.0,0.0,0.0,0.0,0.0,0.0,0.0,0.0,0.0,0.0,0.0,0.0,0.0,0.0,0.0,0.0,0.0,0.0,0.0,0.0,0.0,0.0,0.0,0.0,0.0,-4.6289,-4.7812,-4.8476,0.0,-4.8203,-4.8437,-4.7266,-4.5586,-4.4336,-4.375,0.0,0.0,0.0,0.0,0.0,0.0,0.0,0.0,0.0,0.0,0.0,0.0,0.0,0.0,0.0,0.0,0.0,0.0,0.0,0.0,0.0,0.0,0.0,0.0,0.0,0.0,0.0,0.0,0.0,0.0,0.0,0.0,0.0,0.0,0.0,0.0,0.0,0.0,0.0,0.0,0.0,0.0,0.0,0.0,0.0,0.0,0.0,0.0,0.0,0.0,0.0,0.0,0.0,0.0,0.0,0.0,0.0,0.0,0.0,0.0,0.0,0.0,0.0,0.0,0.0,0.0,0.0,0.0,0.0,0.0,0.0,0.0,0.0,0.0,0.0,0.0,0.0,0.0,0.0,0.0,0.0,0.0,0.0,0.0,0.0,0.0,0.0,0.0,0.0,0.0,0.0,0.0,0.0,0.0,0.0,0.0,0.0,0.0,0.0,0.0,0.0,0.0,-4.6289,-4.7812,-4.8203,-4.6484,-4.7851,-4.8164,-4.6445,-4.4687,-4.3711,0.0,0.0,0.0,0.0,0.0,0.0,0.0,0.0,0.0,0.0,0.0,0.0,0.0,0.0,0.0,0.0,0.0,0.0,0.0,0.0,0.0,0.0,0.0,0.0,0.0,0.0,0.0,0.0,0.0,0.0,0.0,0.0,0.0,0.0,0.0,0.0,0.0,0.0,0.0,0.0,0.0,0.0,0.0,0.0,0.0,0.0,0.0,0.0,0.0,0.0,0.0,0.0,0.0,0.0,0.0,0.0,0.0,0.0,0.0,0.0,0.0,0.0,0.0,0.0,0.0,0.0,0.0,0.0,0.0,0.0,0.0,0.0,0.0,0.0,0.0,0.0,0.0,0.0,0.0,0.0,0.0,0.0,0.0,0.0,0.0,0.0,0.0,0.0,0.0,0.0,0.0,0.0,0.0,0.0,0.0,0.0,0.0,0.0,0.0,0.0,0.0,0.0,0.0,-4.5469,-4.6914,-4.7539,-4.6406,-4.7305,-4.7539,-4.6406,-4.4687,-4.3711,-4.3711,0.0,0.0,0.0,0.0,0.0,0.0,0.0,0.0,0.0,0.0,0.0,0.0,0.0,0.0,0.0,0.0,0.0,0.0,0.0,0.0,0.0,0.0,0.0,0.0,0.0,0.0,0.0,0.0,0.0,0.0,0.0,0.0,0.0,0.0,0.0,0.0,0.0,0.0,0.0,0.0,0.0,0.0,0.0,0.0,0.0,0.0,0.0,0.0,0.0,0.0,0.0,0.0,0.0,0.0,0.0,0.0,0.0,0.0,0.0,0.0,0.0,0.0,0.0,0.0,0.0,0.0,0.0,0.0,0.0,0.0,0.0,0.0,0.0,0.0,0.0,0.0,0.0,0.0,0.0,0.0,0.0,0.0,0.0,0.0,0.0,0.0,0.0,0.0,0.0,0.0,0.0,0.0,0.0,0.0,0.0,0.0,0.0,0.0,0.0,0.0,0.0,0.0,-4.5078,-4.6211,-4.6875,-4.6367,-4.707,-4.7266,-4.6367,-4.4687,-4.3711,-4.3711,0.0,0.0,0.0,0.0,0.0,0.0,0.0,0.0,0.0,0.0,0.0,0.0,0.0,0.0,0.0,0.0,0.0,0.0,0.0,0.0,0.0,0.0,0.0,0.0,0.0,0.0,0.0,0.0,0.0,0.0,0.0,0.0,0.0,0.0,0.0,0.0,0.0,0.0,0.0,0.0,0.0,0.0,0.0,0.0,0.0,0.0,0.0,0.0,0.0,0.0,0.0,0.0,0.0,0.0,0.0,0.0,0.0,0.0,0.0,0.0,0.0,0.0,0.0,0.0,0.0,0.0,0.0,0.0,0.0,0.0,0.0,0.0,0.0,0.0,0.0,0.0,0.0,0.0,0.0,0.0,0.0,0.0,0.0,0.0,0.0,0.0,0.0,0.0,0.0,0.0,0.0,0.0,0.0,0.0,0.0,0.0,0.0,0.0,0.0,0.0,0.0,0.0,-4.4883,-4.5703,-4.6289,-4.6289,-4.6992,-4.7148,-4.6367,-4.4687,-4.3711,-4.3711,0.0,0.0,0.0,0.0,0.0,0.0,0.0,0.0,0.0,0.0,0.0,0.0,0.0,0.0,0.0,0.0,0.0,0.0,0.0,0.0,0.0,0.0,0.0,0.0,0.0,0.0,0.0,0.0,0.0,0.0,0.0,0.0,0.0,0.0,0.0,0.0,0.0,0.0,0.0,0.0,0.0,0.0,0.0,0.0,0.0,0.0,0.0,0.0,0.0,0.0,0.0,0.0,0.0,0.0,0.0,0.0,0.0,0.0,0.0,0.0,-5.1055,0.0,0.0,0.0,0.0,0.0,0.0,0.0,0.0,0.0,0.0,0.0,0.0,0.0,0.0,0.0,0.0,0.0,0.0,0.0,0.0,0.0,0.0,0.0,0.0,0.0,0.0,0.0,0.0,0.0,0.0,0.0,0.0,0.0,0.0,0.0,0.0,0.0,0.0,0.0,0.0,0.0,-4.4141,-4.5351,-4.6289,-4.6289,-4.6484,-4.6484,-4.6328,-4.4687,-4.3711,-4.3711,-4.2148,0.0,0.0,0.0,0.0,0.0,0.0,0.0,0.0,0.0,0.0,0.0,0.0,0.0,0.0,0.0,0.0,0.0,0.0,0.0,0.0,0.0,0.0,0.0,0.0,0.0,0.0,0.0,0.0,0.0,0.0,0.0,0.0,0.0,0.0,0.0,0.0,0.0,0.0,0.0,0.0,0.0,0.0,0.0,0.0,0.0,0.0,0.0,0.0,0.0,0.0,0.0,0.0,0.0,0.0,0.0,0.0,0.0,0.0,0.0,0.0,-5.1406,0.0,0.0,0.0,0.0,0.0,0.0,0.0,0.0,0.0,0.0,0.0,0.0,0.0,0.0,0.0,0.0,0.0,0.0,0.0,0.0,0.0,0.0,0.0,0.0,0.0,0.0,0.0,0.0,0.0,0.0,0.0,0.0,0.0,0.0,0.0,0.0,0.0,0.0,0.0,0.0,-4.3828,-4.4844,-4.5859,-4.625,-4.6289,-4.6289,-4.6289,-4.4687,-4.3711,-4.3711,-4.2148,0.0,0.0,0.0,0.0,0.0,0.0,0.0,0.0,0.0,0.0,0.0,0.0,0.0,0.0,0.0,0.0,0.0,0.0,0.0,0.0,0.0,0.0,0.0,0.0,0.0,0.0,0.0,0.0,0.0,0.0,0.0,0.0,0.0,0.0,0.0,0.0,0.0,0.0,0.0,0.0,0.0,0.0,0.0,0.0,0.0,0.0,0.0,0.0,0.0,0.0,0.0,0.0,0.0,-5.4609,-5.5351,-5.6562,-5.6015,-5.6055,-5.6445,-5.3555,-5.2148,-5.1719,-5.0195,0.0,0.0,0.0,0.0,0.0,0.0,0.0,0.0,0.0,0.0,0.0,0.0,0.0,0.0,0.0,0.0,0.0,0.0,0.0,0.0,0.0,0.0,0.0,0.0,-4.6641,-4.6719,0.0,0.0,0.0,0.0,0.0,0.0,0.0,0.0,0.0,0.0,0.0,0.0,-4.3945,-4.4687,-4.5508,-4.6211,-4.6289,-4.6289,-4.6289,-4.4844,-4.3867,-4.3711,-4.2266,-4.1367,0.0,0.0,0.0,0.0,0.0,0.0,0.0,0.0,0.0,0.0,0.0,0.0,0.0,0.0,0.0,0.0,0.0,0.0,0.0,0.0,0.0,0.0,0.0,0.0,0.0,0.0,0.0,0.0,0.0,0.0,0.0,0.0,-5.0712,-5.0712,0.0,0.0,0.0,0.0,0.0,0.0,0.0,0.0,0.0,0.0,0.0,0.0,0.0,-5.4062,-5.4961,-5.5586,-5.6015,-5.6289,-5.7031,-5.7109,-5.6601,-5.7265,-5.7226,-5.6562,-5.6094,0.0,-5.3594,-5.2617,0.0,0.0,0.0,0.0,0.0,0.0,0.0,0.0,0.0,0.0,0.0,0.0,0.0,0.0,0.0,0.0,0.0,0.0,0.0,0.0,0.0,0.0,-4.7422,-4.7422,-4.8008,-4.8359,0.0,-4.6836,-4.6289,-4.6289,-4.6289,0.0,0.0,0.0,0.0,0.0,0.0,0.0,-4.4922,-4.5586,-4.6172,-4.6289,-4.6289,-4.6289,-4.6289,-4.5391,-4.4492,-4.375,-4.2773,-4.1914,-4.1211,-4.1211,0.0,0.0,0.0,0.0,0.0,0.0,0.0,0.0,0.0,0.0,0.0,0.0,0.0,0.0,0.0,0.0,0.0,0.0,0.0,0.0,0.0,0.0,0.0,0.0,0.0,0.0,0.0,0.0,0.0,-5.1087,-5.1202,-5.075,-5.118,-5.1297,0.0,0.0,0.0,0.0,0.0,0.0,0.0,0.0,0.0,-5.394,-5.4955,-5.5898,-5.6758,-5.7148,-5.8047,-5.9453,-5.9844,-6.0351,-6.0898,-6.0312,-6.0078,-6.0117,-5.8672,-5.7617,-5.6719,-5.3867,-5.2187,-5.1328,0.0,0.0,0.0,0.0,-5.0312,-5.0391,-5.0859,-5.1289,0.0,-5.0078,0.0,0.0,0.0,0.0,0.0,0.0,0.0,0.0,0.0,0.0,0.0,-4.832,-4.8633,-4.8789,-4.8398,-4.7656,-4.6875,0.0,-4.6289,-4.6289,-4.6289,0.0,0.0,0.0,0.0,-4.543,-4.5039,-4.5742,-4.6289,-4.6289,-4.6289,-4.6289,-4.6289,-4.5508,-4.4648,-4.375,-4.2891,-4.2031,-4.1211,-4.1211,-4.1211,0.0,0.0,0.0,0.0,0.0,0.0,0.0,0.0,0.0,0.0,0.0,0.0,0.0,0.0,0.0,0.0,0.0,0.0,0.0,0.0,0.0,0.0,0.0,0.0,0.0,0.0,0.0,0.0,-5.1616,-5.1885,-5.0883,-5.178,-5.209,0.0,0.0,0.0,0.0,0.0,0.0,-5.3373,-5.4094,-5.4937,-5.5796,-5.6755,-5.7773,-5.8867,-5.9101,-6.0156,-6.2031,-6.2265,-6.2812,-6.3594,-6.2539,-6.2265,-6.2578,-6.0664,-5.9726,-5.9219,-5.5312,-5.3164,-5.2305,-5.1484,-5.0625,-5.0039,-5.1523,-5.1914,-5.1875,-5.2734,-5.3047,-5.2773,-5.1328,0.0,-4.8945,-4.7422,0.0,0.0,0.0,0.0,-4.793,-4.793,-4.8594,-4.9219,-4.9219,-4.9375,-4.9492,-4.9297,-4.8711,-4.793,0.0,-4.6445,-4.6289,-4.6289,0.0,0.0,0.0,0.0,-4.5312,-4.5312,-4.5898,-4.6289,-4.6289,-4.6289,-4.6289,-4.6289,-4.5703,-4.4883,-4.3789,-4.3086,-4.2266,-4.125,-4.1211,-4.1211,-4.1211,0.0,0.0,0.0,0.0,0.0,0.0,0.0,0.0,0.0,0.0,0.0,0.0,0.0,0.0,0.0,0.0,0.0,0.0,0.0,0.0,0.0,0.0,0.0,0.0,0.0,0.0,0.0,0.0,0.0,-5.1068,-5.2445,0.0,0.0,0.0,0.0,-5.3582,-5.4561,-5.5468,-5.6327,-5.6445,-5.6875,-5.7734,-5.8594,-5.9844,-6.1484,-6.2344,-6.2812,-6.293,-6.3789,-6.3359,-6.1875,-6.2617,-6.25,-6.1758,-6.164,-6.1094,-6.0156,-5.75,-5.5898,-5.5039,-5.4141,-5.3281,-5.2617,-5.3516,-5.3359,-5.2773,-5.3633,-5.3945,-5.3789,-5.2851,-5.1484,-4.9961,-4.9062,-4.8789,0.0,0.0,-4.8789,-4.8828,-4.8828,-4.9492,-5.0117,-5.0117,-5.0703,-5.1055,-5.0312,-5.0117,-4.957,0.0,-4.6875,-4.6289,-4.6289,0.0,-4.6211,-4.6211,-4.6211,-4.6211,-4.6211,-4.6289,-4.6289,-4.6289,-4.6289,-4.6289,-4.6289,-4.625,-4.5508,-4.3828,-4.3672,-4.2891,-4.1289,-4.1211,-4.1211,-4.1211,-4.1211,0.0,0.0,0.0,0.0,0.0,0.0,0.0,0.0,0.0,0.0,0.0,0.0,0.0,0.0,0.0,0.0,0.0,0.0,0.0,0.0,0.0,0.0,0.0,0.0,0.0,0.0,0.0,0.0,-5.418,-5.539,0.0,-5.5425,-5.5718,-5.6088,-5.64,-5.6757,-5.7344,-5.8242,-5.8281,-5.8906,-6.0312,-6.0664,-6.1914,-6.418,-6.3945,-6.4414,-6.5508,-6.5273,-6.4805,-6.418,-6.3359,-6.2812,-6.25,-6.1953,-6.1523,-6.1133,-5.9648,-5.8242,-5.6875,-5.6015,-5.5469,-5.5234,-5.5547,-5.5469,-5.5234,-5.5586,-5.5312,-5.4492,-5.25,-5.1094,-5.0039,-4.9141,-4.8906,-4.8906,-4.8906,-4.9297,-4.9726,-4.9726,-5.0351,-5.0976,-5.0976,-5.1172,-5.1328,-5.1016,-5.0586,-5.0039,-4.9375,-4.8555,-4.7812,-4.7226,-4.7148,-4.6953,-4.6367,-4.6289,-4.6289,-4.6289,-4.6289,-4.6289,-4.6289,-4.6289,-4.6289,-4.6289,-4.5781,-4.4961,-4.3789,-4.3164,-4.2344,-4.125,-4.1211,-4.1211,-4.1211,-4.1211,-4.1211,0.0,0.0,0.0,0.0,0.0,0.0,0.0,0.0,0.0,0.0,0.0,0.0,0.0,0.0,0.0,0.0,0.0,0.0,0.0,0.0,0.0,0.0,0.0,0.0,0.0,0.0,-5.6188,-5.6761,-5.8326,-5.9182,-5.8913,-5.9026,-5.9249,-5.9483,-5.9523,-5.9956,-6.0859,-6.0895,-6.1363,-6.2539,-6.2578,-6.3398,-6.5156,-6.4609,-6.4726,-6.5586,-6.5,-6.457,-6.4258,-6.3086,-6.2578,-6.2539,-6.1953,-6.1719,-6.164,-6.1094,-6.0195,-5.9062,-5.793,-5.7461,-5.7422,-5.7148,-5.7031,-5.6992,-5.6719,-5.6015,-5.5,-5.3281,-5.2148,-5.1367,-5.0781,-5.0625,-5.0625,-5.0625,-5.082,-5.1055,-5.1055,-5.1211,-5.1406,-5.1406,-5.1406,-5.1484,-5.1797,-5.1172,-5.0703,-5.0976,-4.9883,-4.8711,-4.8125,-4.8047,-4.7851,-4.7266,-4.7187,-4.707,-4.6797,-4.6758,-4.6641,-4.6328,-4.6289,-4.6172,-4.5898,-4.5586,-4.4805,-4.3359,-4.3008,-4.2344,-4.125,-4.1445,-4.1601,-4.1601,-4.1601,-4.1601,-4.1601,0.0,0.0,0.0,0.0,0.0,0.0,0.0,0.0,0.0,0.0,0.0,0.0,0.0,0.0,0.0,0.0,0.0,0.0,0.0,0.0,0.0,0.0,0.0,-5.3318,-5.6337,-5.8596,-5.8678,-6.1026,-6.2283,-6.1479,-6.1559,-6.1989,-6.273,-6.2854,-6.3284,-6.4296,-6.4189,-6.4145,-6.4297,-6.4258,-6.4297,-6.4336,-6.4297,-6.3867,-6.3086,-6.3047,-6.2578,-6.1758,-6.1719,-6.1719,-6.1719,-6.1719,-6.1719,-6.1719,-6.1719,-6.1719,-6.1523,-5.9922,-5.9297,-5.918,-5.8281,-5.793,-5.7773,-5.6914,-5.6055,-5.5351,-5.5312,-5.4726,-5.4023,-5.4023,-5.3984,-5.3984,-5.3984,-5.3359,-5.2695,-5.2695,-5.207,-5.1445,-5.1445,-5.1445,-5.1719,-5.2578,-5.207,-5.1719,-5.2578,-5.0742,-4.9023,-4.8945,-4.8945,-4.8945,-4.8906,-4.8906,0.0,-4.7695,-4.7617,-4.7266,-4.6406,-4.6289,-4.5976,-4.5117,-4.5781,-4.5156,-4.2617,-4.3203,-4.293,-4.1289,-4.1953,-4.2383,-4.2383,-4.2383,-4.2422,-4.2422,0.0,0.0,0.0,0.0,0.0,0.0,0.0,0.0,0.0,0.0,0.0,0.0,0.0,0.0,0.0,0.0,0.0,0.0,0.0,0.0,0.0,0.0,-5.6665,-5.6049,-5.8452,-6.0997,-6.2847,-6.4373,-6.5407,-6.5796,-6.5342,-6.5105,-6.53,-6.4799,-6.4631,-6.5002,-6.4294,-6.3973,-6.4147,-6.3521,-6.3833,-6.5087,-6.3942,-6.3867,-6.4883,-6.3594,-6.2851,-6.2617,-6.1992,-6.1719,-6.1719,-6.1719,-6.1719,-6.1719,-6.1719,-6.1719,-6.164,-6.1172,-6.1015,-6.0898,-6.0039,-5.8945,-5.7773,-5.6914,-5.6445,-5.6133,-5.5508,-5.5156,-5.4805,-5.418,-5.3984,-5.3984,-5.3984,-5.3359,-5.2695,-5.2695,-5.2539,-5.2344,-5.2344,-5.2812,-5.3359,-5.3594,-5.3437,-5.3359,-5.3594,-5.3086,-5.1992,-5.0156,-4.9844,-4.9648,-4.8984,-4.8906,0.0,-4.7695,-4.7617,-4.7266,-4.6406,-4.6289,-4.6211,-4.5976,-4.5586,-4.4766,-4.3437,-4.2969,-4.2305,-4.125,-4.1406,-4.1797,-4.2383,-4.2383,-4.2695,0.0,0.0,0.0,0.0,0.0,0.0,0.0,0.0,0.0,0.0,0.0,0.0,0.0,0.0,0.0,0.0,0.0,0.0,0.0,0.0,0.0,0.0,-5.728,-5.9665,-6.06,-6.2056,-6.385,-6.6052,-6.7134,-6.8065,-6.8878,-6.7972,-6.7293,-6.7254,-6.6182,-6.5414,-6.5221,-6.4578,-6.4137,-6.3982,-6.3907,-6.4001,-6.432,-6.3783,-6.3672,-6.3945,-6.293,-6.2461,-6.2422,-6.1914,-6.1719,0.0,-6.1719,-6.1719,-6.1719,-6.1719,-6.1719,0.0,0.0,0.0,0.0,0.0,-5.8515,-5.7265,-5.6797,-5.6601,-5.6523,-5.6015,-5.5859,-5.5742,-5.5234,-5.5078,-5.5078,-5.5078,-5.4219,-5.332,-5.3672,-5.2969,-5.2344,-5.3086,-5.3359,-5.3672,-5.4375,-5.4258,-5.4101,-5.4453,-5.3945,0.0,-5.1484,-5.125,-5.0937,-5.0078,-4.9961,-4.9492,-4.8281,-4.8125,-4.7656,-4.6445,-4.6289,-4.6133,-4.5781,-4.5625,0.0,0.0,0.0,-4.3281,-4.2812,-4.2773,0.0,0.0,0.0,-4.375,-4.4258,0.0,0.0,0.0,-4.4413,-4.4173,0.0,0.0,0.0,0.0,0.0,0.0,0.0,0.0,0.0,0.0,0.0,0.0,0.0,0.0,0.0,0.0,-6.0089,-6.2512,-6.5743,-6.632,-6.6974,-6.8398,-6.9398,-7.0206,-7.0821,-6.9571,-6.8671,-6.8594,-6.7106,-6.5863,-6.511,0.0,0.0,0.0,0.0,-6.4382,-6.2935,-6.3624,-6.3281,-6.1836,-6.1758,-6.1719,-6.1719,-6.1719,-6.1719,-6.1719,-6.1719,-6.1719,-6.1719,-6.1719,-6.1719,-6.1719,-6.1719,-6.1094,-6.0078,-5.8594,-5.7422,-5.6601,-5.6601,0.0,0.0,-5.6601,-5.6601,-5.6601,-5.6601,-5.6601,-5.6601,-5.6601,-5.543,-5.4336,-5.5117,-5.3594,-5.2226,-5.3789,-5.3633,-5.3555,-5.5117,-5.4844,-5.4531,-5.5312,-5.4101,-5.2969,-5.2851,-5.2695,-5.2305,-5.1523,-5.1406,-5.082,-4.9258,-4.9062,-4.8398,-4.6641,0.0,0.0,-4.5234,-4.5859,-4.5586,-4.3945,-4.4492,-4.4844,-4.4844,-4.4844,-4.4883,-4.5,-4.5,-4.5039,-4.5156,-4.5156,-4.5547,-4.6289,-4.5508,-4.5156,0.0,0.0,0.0,0.0,0.0,0.0,0.0,0.0,0.0,0.0,0.0,0.0,0.0,0.0,0.0,-5.8819,-6.2435,-6.5628,-6.7628,-6.909,-6.9821,-6.9475,-7.0783,-7.1514,-7.0937,-7.0028,-6.9181,-6.8488,-6.7499,-6.6317,-6.4933,-6.4728,-6.4321,-6.3662,-6.3275,-6.3236,-6.3592,-6.2672,-6.2383,-6.2734,0.0,0.0,-6.1719,-6.1719,-6.1719,-6.1719,-6.1719,-6.1719,-6.1719,-6.1719,-6.1719,-6.1719,-6.1719,-6.0781,-5.9375,-5.9062,-5.7969,-5.6601,-5.6601,-5.6601,-5.6601,-5.6601,-5.6601,-5.6601,-5.6601,-5.6601,0.0,-5.6601,-5.5859,-5.5078,-5.5273,-5.4922,-5.4648,-5.4961,-5.5469,-5.5937,-5.6289,-5.6211,-5.6133,-5.6328,-5.5508,-5.457,-5.3867,-5.2578,-5.1601,-5.1445,-5.1406,-5.1055,-5.0078,-4.9961,-4.9297,-4.7539,-4.7344,-4.6992,-4.6133,-4.6211,-4.5859,-4.4805,-4.4258,-4.3945,-4.3945,-4.3945,-4.4297,-4.5,-4.5,-4.5351,-4.6055,-4.6055,-4.6133,-4.6289,-4.6133,-4.6055,0.0,0.0,0.0,0.0,0.0,0.0,0.0,0.0,0.0,0.0,0.0,-5.3126,0.0,0.0,-5.9358,-6.2743,-6.5474,-6.7898,-7.0014,-7.1014,-7.1245,-7.0398,-7.1052,-7.1206,-7.0398,-6.9552,-6.8706,-6.7821,-6.6974,-6.5972,-6.4773,-6.4212,-6.3653,-6.2963,-6.2677,-6.2569,-6.2634,-6.2446,-6.2344,-6.2344,-6.1914,-6.1719,-6.1719,-6.1719,-6.1719,-6.1719,-6.1719,-6.1719,-6.1719,-6.1719,-6.1719,-6.1719,-6.1719,-6.0664,-5.914,-5.8711,-5.7734,-5.6601,-5.6601,-5.6601,-5.6601,-5.6601,-5.6601,-5.6601,-5.6601,-5.6601,-5.6601,-5.6601,-5.5976,-5.539,-5.5859,-5.5312,-5.4883,-5.5742,-5.5937,-5.6055,-5.6523,-5.6601,-5.6601,-5.6601,-5.5898,-5.5156,-5.4726,-5.3555,-5.2422,-5.1523,-5.1406,-5.1094,-5.0312,-5.0195,-4.9531,-4.7773,-4.7617,-4.7266,-4.6367,-4.6289,-4.6094,-4.5664,-4.5234,-4.5,-4.5,-4.5,-4.5195,-4.5625,-4.5664,-4.5859,-4.6289,-4.6289,-4.6289,-4.6289,-4.6289,-4.6289,0.0,0.0,0.0,0.0,0.0,0.0,0.0,0.0,-5.2885,-5.378,-5.478,-5.6203,-5.8588,-6.0396,-6.282,-6.6705,-6.809,-6.9436,-7.1629,-7.1822,-7.1398,-7.0514,-7.0706,-7.0514,-6.9552,-6.8821,-6.8052,-6.7167,-6.6513,-6.5704,-6.4674,-6.3827,-6.313,-6.2567,-6.2439,-6.2153,-6.1708,-6.2373,-6.2383,-6.1719,-6.1719,-6.1719,-6.1719,-6.1719,-6.1719,-6.1719,-6.1719,-6.1719,-6.1719,-6.1719,-6.1719,-6.1719,-6.1719,-6.0664,-5.9101,-5.8398,-5.75,-5.6601,-5.6601,-5.6601,-5.6601,-5.6601,-5.6601,-5.6601,-5.6601,-5.6601,-5.6601,-5.6601,-5.6094,-5.5703,-5.6406,-5.5547,-5.4844,-5.6289,-5.6055,-5.5742,-5.6445,-5.6601,-5.6601,-5.6601,-5.5898,-5.5312,-5.5312,-5.457,-5.3476,-5.1875,-5.1641,-5.1367,-5.0547,-5.043,-4.9844,-4.8281,-4.7969,-4.7422,-4.6406,-4.6289,-4.6289,-4.6289,-4.6289,-4.6289,-4.6289,-4.6289,-4.6289,-4.6289,-4.6289,-4.6289,-4.6289,-4.6289,-4.6289,-4.6289,-4.6289,-4.6289,-5.2385,-5.1395,-5.0827,-5.0712,-5.1241,-5.2154,0.0,0.0,-5.5511,-5.6385,-5.7857,-5.9511,-6.1331,-6.3051,-6.5089,-6.7821,-6.9013,-6.9898,-7.0898,-7.0437,-6.9667,-6.8783,-6.9975,-7.0283,-6.8706,-6.8462,-6.8052,-6.7167,-6.7013,-6.634,-6.4861,-6.401,-6.3516,-6.3446,-6.2274,-6.1881,-6.2396,-6.2045,-6.1797,-6.1719,-6.1719,-6.1719,-6.1719,-6.1719,-6.1719,-6.1719,-6.1719,-6.1719,-6.1719,-6.1719,-6.1719,-6.1719,-6.1719,-6.0664,-5.918,-5.9101,-5.8008,-5.6601,-5.6601,-5.6601,-5.6601,-5.6601,-5.6601,-5.6601,-5.6601,-5.6601,-5.6601,-5.6601,-5.6523,-5.6484,-5.6562,-5.6445,-5.6367,-5.6562,-5.6523,-5.6484,-5.6562,-5.6601,-5.6601,-5.6601,-5.5898,-5.5312,-5.5312,-5.457,-5.3672,-5.2695,-5.2539,-5.2226,-5.1367,-5.1289,-5.0937,-5.0,-4.9219,-4.8086,-4.6445,-4.6289,-4.6289,-4.6289,-4.6289,-4.6289,-4.6289,-4.6289,-4.6289,-4.6289,-4.6289,-4.6289,-4.6289,-4.6289,-4.6289,-4.6289,-4.6289,-4.6289,-5.1818,-5.0971,-5.0827,-5.1279,-5.2779,-5.4434,-5.5665,-5.7357,-5.8781,-5.9127,-6.0935,-6.2704,-6.3435,-6.5359,-6.7321,0.0,-6.986,-7.0706,-7.1552,-7.009,-6.8436,-6.709,-6.7128,-6.7167,-6.6974,-6.6936,-6.6782,-6.6436,-6.5936,-6.5575,-6.5434,-6.4161,-6.3464,-6.3583,-6.262,-6.2045,-6.1907,-6.1783,-6.1719,-6.1719,-6.1719,-6.1719,-6.1719,-6.1719,-6.1719,-6.1719,-6.1719,-6.1719,-6.1719,-6.1719,-6.1719,-6.1719,-6.1719,-6.0976,-5.9844,-5.9375,-5.8086,-5.6601,-5.6601,-5.6601,-5.6601,-5.6601,-5.6601,-5.6601,-5.6601,-5.6601,-5.6601,-5.6601,-5.6601,-5.6601,-5.6601,-5.6601,-5.6601,-5.6601,-5.6601,-5.6601,-5.6601,-5.6601,-5.6601,-5.6601,-5.6328,-5.6055,-5.6055,-5.5742,-5.5234,-5.4336,-5.3789,-5.3125,-5.2266,-5.2148,-5.1641,-5.0351,-4.9414,-4.8398,-4.7148,-4.707,-4.6836,-4.6328,-4.6289,-4.6289,-4.6289,-4.6289,-4.6289,-4.6289,-4.6289,-4.6289,-4.6289,-4.6289,-4.6289,-4.6289,-4.6289,-4.6289,-5.1135,-5.1058,-5.1702,-5.301,-5.5203,-5.7396,-5.8473,-6.0358,-6.1935,-6.2166,-6.3666,-6.5013,-6.5243,-6.6821,-6.8475,-6.9821,-7.0321,-7.0783,-7.1398,-6.9513,-6.7244,-6.5089,-6.4089,-6.3782,-6.4436,-6.4897,-6.5166,-6.5166,-6.482,-6.478,-6.5261,-6.4066,-6.3345,-6.3234,-6.2553,-6.1901,-6.1383,-6.1534,-6.1636,-6.1636,-6.1679,-6.1719,-6.1719,-6.1719,-6.1719,-6.1719,-6.1719,-6.1719,-6.1719,-6.1719,-6.1719,-6.168,-6.1445,-6.0976,-6.0312,-5.9492,-5.8242,-5.6914,-5.668,-5.6601,-5.6601,-5.6601,-5.6601,-5.6601,-5.6601,-5.6601,-5.6601,-5.6601,-5.6601,-5.6601,-5.6601,-5.6601,-5.6601,-5.6601,-5.6601,-5.6601,-5.6601,-5.6601,-5.6601,-5.6601,-5.6601,-5.6601,-5.6601,-5.6601,-5.6406,-5.5742,-5.5117,-5.4219,-5.2851,-5.25,-5.1797,-5.0351,-4.9648,-4.8906,-4.8047,-4.7734,-4.7344,-4.6719,-4.6445,-4.6289,-4.6289,-4.6289,-4.6289,-4.6289,-4.6289,-4.6289,-4.6289,-4.6289,-4.6289,-4.6289,-4.6289,-4.6289,0.0,0.0,-5.3703,-5.6214,-5.8742,-6.1089,-6.2743,-6.382,-6.4705,-6.5551,-6.582,-6.609,-6.6859,-6.709,-6.7975,-7.0475,-7.0244,-6.9744,-6.9783,-6.8244,-6.5897,-6.2601,-6.1447,-6.0935,0.0,-6.2435,-6.3397,-6.3397,-6.4128,-6.4336,-6.3689,-6.3612,-6.3195,-6.2379,-6.1705,-6.1214,-6.1023,-6.133,-6.1507,-6.1507,-6.1635,-6.1719,-6.1719,-6.1719,-6.1719,-6.1719,-6.1719,-6.1719,-6.1719,-6.1719,-6.1719,-6.1601,-6.0781,-6.043,-6.0312,-5.9492,-5.8633,-5.7734,-5.6875,-5.6601,-5.6601,-5.6601,-5.6601,-5.6601,-5.6601,-5.6601,-5.6601,-5.6601,-5.6601,-5.6601,-5.6601,-5.6601,-5.6601,-5.6601,-5.6601,-5.6601,-5.6601,-5.6601,-5.6601,-5.6601,-5.6601,-5.6601,-5.6601,-5.6601,-5.6601,-5.6562,-5.6523,-5.5586,-5.3047,-5.1953,-5.1133,-5.0273,-5.0195,-4.9805,-4.8945,-4.8086,-4.7578,-4.7578,-4.6758,-4.6289,-4.6289,-4.6289,-4.6289,-4.6289,-4.6289,-4.6289,-4.6289,-4.6289,-4.6289,-4.6289,-4.6289,-4.6289,0.0,0.0,-5.7049,-5.9011,-6.1858,-6.4474,-6.5551,-6.6513,-6.6898,-6.6051,-6.4974,-6.3935,-6.3089,-6.3409,-6.4436,-6.6397,-6.7898,-6.8859,-6.8859,-6.7821,-6.5628,-6.1704,-6.1473,0.0,0.0,0.0,0.0,-6.3243,-6.3589,-6.3907,-6.4243,-6.4243,-6.3857,-6.2982,-6.2876,-6.2228,-6.1006,-6.122,-6.14,-6.1504,-6.1634,-6.1719,-6.1719,-6.1719,-6.1719,-6.1719,-6.1719,-6.1719,-6.1719,-6.1719,-6.1719,-6.168,-6.1367,-6.0898,-6.0312,-5.9492,-5.9023,-5.8633,-5.7773,-5.707,-5.6601,-5.6601,-5.6601,-5.6601,-5.6601,-5.6601,-5.6601,-5.6601,-5.6601,-5.6601,-5.6601,-5.6601,-5.6601,-5.6601,-5.7031,-5.7461,-5.7461,-5.793,-5.8164,-5.7578,-5.7461,-5.7265,-5.6719,-5.6601,-5.6601,-5.6601,-5.5625,-5.457,-5.3672,-5.2305,-5.1289,-5.1016,-5.1016,-5.0664,-4.9844,-4.8945,-4.8203,-4.7656,-4.6797,-4.6289,-4.6289,-4.6289,-4.6289,-4.6289,-4.6289,-4.6289,-4.6289,-4.6289,-4.6289,-4.6289,-4.6289,-4.6289,0.0,-5.7088,-6.0204,-6.2474,-6.5166,-6.7321,-6.7513,-6.7744,-6.7475,-6.5782,-6.382,-6.1973,-6.0589,-6.0281,-6.1012,-6.332,-6.4551,-6.5667,-6.6859,-6.6051,-6.4179,-6.1166,-6.1012,-6.0512,0.0,0.0,0.0,-6.232,-6.2974,-6.3435,-6.3705,-6.4282,-6.4089,-6.2897,-6.3274,-6.2828,-6.1408,-6.1562,-6.1618,-6.1504,-6.1582,-6.1638,-6.1719,-6.1719,-6.1719,-6.1719,-6.1719,-6.1719,-6.1719,-6.1719,-6.1719,-6.168,-6.1367,-6.1094,-6.0742,-5.9922,-5.9648,-5.9414,-5.7969,-5.7265,-5.6992,-5.6719,-5.6601,-5.6601,-5.6601,-5.6601,-5.6601,-5.6601,-5.6836,-5.707,-5.707,-5.7305,-5.7539,-5.7539,-5.7969,-5.8359,-5.8359,-5.8789,-5.9023,-5.8476,-5.8125,-5.7734,-5.7148,-5.6797,-5.6601,-5.6601,-5.539,-5.4453,-5.4453,-5.293,-5.1875,-5.1875,-5.1601,-5.1172,-5.0664,-4.9844,-4.8984,-4.8125,-4.7266,-4.6601,-4.6328,-4.6289,-4.6289,-4.6289,-4.6289,-4.6289,-4.6289,-4.6289,-4.6289,-4.6289,-4.6289,-4.6289,-5.8088,-6.1012,-6.3217,-6.6436,-6.8475,-6.9475,-6.859,-6.7628,-6.6436,-6.4743,-6.232,-6.0204,0.0,0.0,-5.8011,-6.1408,-6.0704,-6.0858,-6.4205,-6.332,-6.1985,0.0,0.0,0.0,0.0,0.0,0.0,-6.0858,0.0,-6.2974,-6.2216,-6.3743,-6.3935,-6.2293,-6.2974,-6.2974,-6.2101,-6.2181,-6.2002,-6.153,-6.1498,-6.1575,-6.1679,-6.1719,-6.1719,-6.1719,-6.1719,-6.1719,-6.1719,-6.1719,-6.1719,-6.1601,-6.0781,-6.0937,-6.1523,-6.0703,-6.039,-6.0039,-5.7578,-5.7265,-5.7773,-5.6953,-5.664,-5.6601,-5.6601,-5.6601,-5.6601,-5.664,-5.7265,-5.789,-5.7969,-5.8594,-5.9219,-5.9219,-5.9219,-5.9258,-5.9258,-5.9297,-5.9297,-5.9258,-5.8515,-5.789,-5.789,-5.7187,-5.6601,-5.6601,-5.5898,-5.5351,-5.5312,-5.3828,-5.2734,-5.2695,-5.1953,-5.1445,-5.1406,-5.0664,-4.9844,-4.9023,-4.8125,-4.7226,-4.6406,-4.6328,-4.6289,-4.6289,-4.6289,-4.6289,-4.6289,-4.6289,-4.6289,-4.6289,-4.6289,-4.6289,-6.0512,-6.4051,-6.7167,-6.8667,-6.936,-6.9475,-6.859,-6.6282,-6.3782,-6.2089,-5.8742,-5.5857,0.0,0.0,0.0,-5.9627,-6.1396,0.0,-6.5243,-6.5705,0.0,-6.2101,0.0,-6.282,-6.1562,-6.1973,0.0,0.0,-6.3051,-6.3205,-6.3012,-6.4628,-6.5089,-6.4012,-6.4166,-6.3551,-6.2101,-6.1611,-6.1591,-6.2082,-6.1703,-6.1512,-6.1532,-6.1638,-6.1719,-6.1719,-6.1719,-6.1719,-6.1719,-6.1719,-6.1719,-6.168,-6.1445,-6.1094,-6.0703,-6.0469,-6.039,-6.0234,-5.8984,-5.8242,-5.7851,-5.7656,-5.7148,-5.6601,-5.6601,-5.6601,-5.6758,-5.7383,-5.7734,-5.8047,-5.8711,-5.9023,-5.9219,-5.9219,-5.9648,-6.0078,-6.0078,-6.0586,-6.0859,-6.0234,-5.8906,-5.789,-5.789,-5.7187,-5.6601,-5.6601,-5.6406,-5.6015,-5.539,-5.4336,-5.3437,-5.2773,-5.25,-5.2109,-5.1445,-5.0664,-5.0117,-4.9883,-4.8437,-4.75,-4.7266,-4.6641,-4.6289,-4.6289,-4.6289,-4.6289,-4.6289,-4.6289,-4.6289,-4.6289,-4.6289,-4.6289,-6.4974,-6.7975,-7.0206,-7.0667,-7.0244,-6.9167,-6.7205,-6.4397,-6.1512,-5.905,-5.6088,-5.3664,-5.2779,-5.2741,-5.3818,0.0,0.0,0.0,-6.432,-6.482,-6.4628,0.0,-6.3935,0.0,-6.2704,-6.3051,-6.3308,0.0,-6.3666,-6.3858,-6.3858,-6.5166,-6.5513,-6.4628,-6.4974,-6.4359,-6.2627,-6.2221,-6.193,-6.1733,-6.1421,-6.1378,-6.1504,-6.1579,-6.1636,-6.1719,0.0,-6.1719,-6.1719,-6.1719,-6.1719,-6.1719,-6.1719,-6.1406,-6.0976,-6.0976,-6.0976,-6.0898,-6.0469,-5.9726,-5.8945,-5.8594,-5.8125,-5.7734,-5.7734,-5.7734,-5.7851,-5.832,-5.8711,-5.9101,-5.9609,-6.0,-6.0312,-6.0312,-6.0625,-6.0976,-6.0976,-6.1367,-6.1445,-6.0586,-5.9648,-5.875,-5.8047,-5.75,-5.7031,-5.664,-5.6601,-5.6406,-5.5937,-5.5117,-5.4375,-5.3906,-5.3164,-5.25,-5.1992,-5.1211,-5.0586,-5.0234,-4.8906,-4.8008,-4.7617,-4.6758,-4.6289,-4.6289,-4.6289,-4.6289,-4.6289,-4.6289,-4.6289,-4.6289,-4.6289,-4.6289,-6.9783,-7.1706,-7.2322,-7.2206,-7.086,-6.8629,-6.5205,-6.2204,-5.9204,-5.6011,-5.3857,-5.2356,-5.1846,-5.1164,-5.1597,-5.4395,0.0,-5.778,-6.2781,-6.2858,-6.3294,-6.5628,-6.4589,-6.3666,-6.3666,-6.3666,-6.3666,-6.3666,-6.4359,-6.4705,-6.4628,-6.5436,-6.5513,-6.4628,-6.5205,-6.482,-6.3308,-6.3077,-6.2331,-6.1146,-6.1066,-6.1154,-6.1432,-6.1495,-6.1575,-6.1679,0.0,0.0,-6.1719,-6.1719,-6.1719,-6.1719,-6.1719,-6.1719,-6.1719,-6.1719,-6.1719,-6.1719,-6.1719,-6.1211,-6.043,-5.9609,-5.9297,-5.9219,-5.9219,-5.9219,-5.9219,-5.9336,-5.9844,-6.043,-6.0547,-6.1133,-6.1719,-6.1719,-6.1719,-6.1719,-6.1719,-6.1719,-6.1484,-6.0703,-6.0469,-5.9922,-5.8476,-5.8125,-5.7812,-5.707,-5.6836,-5.6758,-5.6758,-5.6015,-5.543,-5.5312,-5.3945,-5.2969,-5.2734,-5.1992,-5.1211,-5.0391,-4.9531,-4.8672,-4.7812,-4.6953,-4.6406,-4.6289,-4.6289,-4.6289,-4.6289,-4.6289,-4.6289,-4.6289,-4.6289,-4.6289,-7.1168,-7.2591,-7.3091,-7.236,-7.0398,-6.7744,-6.432,-5.9935,0.0,-5.4049,-5.1164,-4.9394,-5.0664,-5.0789,-5.1982,-5.5945,-5.728,-5.9396,-6.3782,-6.4243,-6.4589,0.0,-6.5628,-6.5436,-6.5436,-6.5436,0.0,0.0,0.0,-6.5359,-6.4628,-6.5436,-6.5513,-6.4628,-6.4051,-6.3628,-6.3308,-6.1935,-6.147,-6.1912,-6.1292,-6.104,-6.1089,-6.1353,-6.1509,-6.1525,-6.1637,0.0,-6.1719,-6.1719,-6.1719,-6.1719,-6.1719,-6.1719,-6.1719,-6.1719,-6.1719,-6.1719,-6.1719,-6.1601,-6.1328,-6.0469,-5.9726,-5.9219,-5.9219,-5.9219,-5.9336,-6.0,-6.0273,-6.0586,-6.1289,-6.1601,-6.1719,-6.1719,-6.1719,-6.1719,-6.1719,-6.1719,-6.164,-6.1484,-6.0898,-6.0312,-6.0039,-5.9414,-5.8906,-5.8789,-5.8125,-5.7656,-5.7656,-5.6914,-5.6094,-5.539,-5.5039,-5.4258,-5.2812,-5.2578,-5.2109,-5.125,-5.043,-4.957,-4.8711,-4.7851,-4.7031,-4.6328,-4.6289,-4.6289,-4.6289,-4.6289,-4.6289,-4.6289,-4.6289,-4.6289,-7.4053,-7.5168,-7.5053,-7.3322,-7.0283,-6.659,-6.232,0.0,0.0,-5.1664,-4.9933,-4.9048,-4.9856,-5.0741,-5.2125,-5.4626,-5.5742,-5.778,-6.2012,-6.2627,-6.3435,-6.5628,-6.5897,-6.5897,-6.5897,-6.5897,-6.5897,-6.5897,0.0,-6.5705,-6.5282,-6.5243,-6.5013,-6.4628,-6.4205,-6.3551,-6.2666,-6.2281,-6.1858,-6.1408,-6.1043,-6.0916,-6.1006,-6.1168,-6.1325,-6.1504,-6.1575,0.0,-6.1719,-6.1719,-6.1719,-6.1719,-6.1719,-6.1719,-6.1719,-6.1719,-6.1719,-6.1719,-6.1719,-6.1719,-6.164,-6.1211,-6.082,-6.0508,-6.0508,-6.0508,-6.0586,-6.0976,-6.1094,-6.1172,-6.1601,-6.1719,-6.1719,-6.1719,-6.1719,-6.1719,-6.1719,-6.1719,-6.1719,-6.1719,-6.1367,-6.0937,-6.0469,-6.0078,-5.9687,-5.9258,-5.8828,-5.8398,-5.7969,-5.7539,-5.6953,-5.6055,-5.5586,-5.4961,-5.4101,-5.3203,-5.2539,-5.2109,-5.0898,-5.0,-4.9609,-4.875,-4.7851,-4.6992,-4.6992,-4.6758,-4.6289,-4.6289,-4.6289,-4.6289,-4.6289,-4.6289,-7.5861,-7.6861,-7.6399,-7.386,-7.0014,-6.5513,-6.0396,-5.5818,-5.1972,-4.9625,-4.8971,-4.8971,-4.9317,-5.0471,-5.1769,0.0,-5.378,-5.5703,-5.9935,-6.0666,-6.2012,0.0,-6.5782,0.0,-6.5897,-6.5897,0.0,-6.5897,0.0,0.0,-6.5897,-6.5243,-6.4705,-6.432,-6.432,-6.3512,-6.1831,-6.2435,-6.2089,-6.0781,-6.0781,-6.0867,-6.0963,-6.0979,-6.114,-6.1404,-6.1488,0.0,0.0,-6.1679,-6.1719,-6.1719,-6.1719,-6.1719,-6.1719,-6.1719,-6.1719,-6.1719,-6.1719,-6.1719,-6.1719,-6.1719,-6.1719,-6.1719,-6.1719,-6.1719,-6.1719,-6.1719,-6.1719,-6.1719,-6.1719,-6.1719,-6.1719,-6.1719,-6.1719,-6.1719,-6.1719,-6.1719,-6.1719,-6.1719,-6.1719,-6.1484,-6.0781,-6.0664,-6.0469,-5.9844,-5.957,-5.9219,-5.8515,-5.8125,-5.7656,-5.6953,-5.6094,-5.5508,-5.5312,-5.4023,-5.3086,-5.2734,-5.1445,-5.0586,-5.0195,-4.9531,-4.8789,-4.7891,-4.7695,-4.7266,-4.6562,-4.6406,-4.6289,-4.6289,-4.6289,-4.6289,-7.4245,-7.5515,-7.5515,-7.2937,-6.9129,-6.4666,-5.9588,0.0,-5.0394,-4.8586,-4.7625,-4.7586,-4.9125,-4.951,-5.0394,-5.2818,0.0,-5.478,-5.9011,-6.0281,-6.1781,-6.4397,0.0,0.0,-6.5897,-6.5897,0.0,0.0,0.0,0.0,-6.5897,-6.582,-6.5051,-6.3462,-6.3423,-6.2627,-6.0935,-6.0973,-6.0935,-6.0781,-6.0781,-6.0804,-6.0839,-6.0935,-6.1023,-6.1042,-6.1387,0.0,0.0,-6.1637,-6.1719,-6.1719,-6.1719,-6.1719,-6.1719,-6.1719,-6.1719,-6.1719,-6.1719,-6.1719,-6.1719,-6.1719,-6.1719,-6.1719,-6.1719,-6.1719,-6.1719,-6.1719,-6.1719,-6.1719,-6.1719,-6.1719,-6.1719,-6.1719,-6.1719,-6.1719,-6.1719,-6.1719,-6.1719,-6.1719,-6.1719,-6.168,-6.1601,-6.1562,-6.1562,-6.1484,-6.0781,-6.0273,-6.0195,-5.8828,-5.7851,-5.7773,-5.6992,-5.6172,-5.5351,-5.5156,-5.4375,-5.2812,-5.2578,-5.1797,-5.0273,-5.0117,-4.9687,-4.8789,-4.8008,-4.7578,-4.7461,-4.668,-4.6289,-4.6289,-4.6289,-4.6289,-7.236,-7.4553,-7.5245,-7.2168,-6.7859,-6.3281,-5.9204,0.0,-4.9702,-4.9048,-4.8202,-4.8009,-4.9163,-4.9817,-5.051,0.0,0.0,0.0,-5.528,-5.6011,-5.7742,-6.182,-6.3089,0.0,0.0,0.0,-6.5897,0.0,0.0,0.0,-6.5897,-6.5397,-6.4551,-6.3346,-6.3308,-6.2512,-6.0819,-6.132,-6.132,-6.0781,-6.0781,-6.0781,-6.0793,-6.0867,-6.0935,-6.1014,-6.114,0.0,0.0,-6.1571,-6.1632,-6.1719,-6.1719,-6.1719,-6.1719,-6.1719,-6.1719,-6.1719,-6.1719,-6.1719,-6.1719,-6.1719,-6.1719,-6.1719,-6.1719,-6.1719,-6.1719,-6.1719,-6.1719,-6.1719,-6.1719,-6.1719,-6.1719,-6.1719,-6.1719,-6.1719,-6.1719,-6.1719,-6.1719,-6.1719,-6.1719,-6.1719,-6.1719,-6.1719,-6.1719,-6.1719,-6.1406,-6.0976,-6.0469,-5.9805,-5.9023,-5.8008,-5.7109,-5.6445,-5.6094,-5.5586,-5.5,-5.4297,-5.3281,-5.2383,-5.1719,-5.1211,-5.0547,-4.9687,-4.9336,-4.8906,-4.8398,-4.8047,-4.7617,-4.707,-4.707,-4.6797,-6.909,-7.1822,-7.3129,-7.0437,-6.5936,-6.1358,-5.8242,0.0,-4.9009,-4.9009,-4.8548,-4.8355,-4.924,-5.0087,-5.0712,0.0,0.0,-5.0587,-5.2895,-5.3433,-5.5088,-5.9204,0.0,-6.1973,0.0,-6.5474,0.0,0.0,0.0,0.0,-6.5897,-6.5051,-6.4205,-6.332,-6.3308,-6.2512,-6.0819,-6.1408,-6.1408,-6.0781,-6.0781,-6.0781,-6.0781,-6.0781,-6.0867,-6.0935,-6.097,0.0,0.0,-6.1442,-6.1571,-6.1636,-6.1679,-6.1719,-6.1719,-6.1719,-6.1719,-6.1719,-6.1719,-6.1719,-6.1719,-6.1719,-6.1719,-6.1719,-6.1719,-6.1719,-6.1719,-6.1719,-6.1719,-6.1719,-6.1719,-6.1719,-6.1719,-6.1719,-6.1719,-6.1719,-6.1719,-6.1719,-6.1719,-6.1719,-6.1719,-6.1719,-6.1719,-6.1719,-6.1719,-6.1719,-6.1719,-6.1484,-6.0859,-6.0547,-5.9961,-5.8789,-5.7656,-5.6875,-5.6601,-5.6055,-5.5586,-5.5312,-5.4141,-5.3242,-5.2734,-5.2109,-5.1406,-5.0586,-5.0312,-4.9883,-4.9297,-4.9023,-4.8594,-4.7969,-4.7969,-4.7656,-6.3974,-6.6551,-6.8282,-6.7359,-6.332,-5.8858,-5.6319,-5.1779,-4.8125,-4.8125,-4.8125,-4.8355,-4.924,-5.0087,-5.0712,0.0,0.0,0.0,-5.2972,-5.3933,-5.5126,0.0,0.0,-5.9358,-6.1908,-6.4397,0.0,0.0,0.0,0.0,-6.5897,-6.5051,-6.4205,-6.332,-6.3308,-6.2512,-6.0819,-6.0819,-6.0819,-6.0781,-6.0781,-6.0781,-6.0781,-6.0781,-6.0781,0.0,0.0,0.0,0.0,-6.1344,-6.1504,-6.1512,-6.1637,-6.1719,-6.1719,-6.1719,-6.1719,-6.1719,-6.1719,-6.1719,-6.1719,-6.1719,-6.1719,-6.1719,-6.1719,-6.1719,-6.1719,-6.1719,-6.1719,-6.1719,-6.1719,-6.1719,-6.1719,-6.1719,-6.1719,-6.1719,-6.1719,-6.1719,-6.1719,-6.1719,-6.1719,-6.1719,-6.1719,-6.1719,-6.1719,-6.1719,-6.1719,-6.1719,-6.168,-6.0937,-6.039,-6.039,-5.8867,-5.7539,-5.668,-5.6601,-5.6211,-5.5351,-5.5273,-5.4492,-5.2773,-5.2695,-5.2266,-5.1406,-5.0625,-5.0195,-5.0195,-4.9336,-4.8906,-4.8906,-4.8906,-4.8867,-5.7973,-6.0396,-6.2127,-6.1281,-5.855,-5.5703,-5.4318,-5.0933,-4.8279,-4.8856,-4.8509,-4.8548,-5.001,-5.0519,-5.0712,-5.0712,0.0,0.0,0.0,0.0,0.0,-5.7627,-6.1204,-6.382,0.0,0.0,0.0,0.0,0.0,0.0,-6.4205,-6.4436,-6.4205,-6.332,-6.2781,-6.1935,-6.0819,-6.0781,-6.0781,-6.0781,-6.0781,-6.0781,-6.0781,-6.0781,-6.0781,0.0,0.0,0.0,0.0,-6.1111,-6.1226,-6.1369,-6.1509,-6.1575,-6.1579,-6.1678,-6.1719,-6.1719,-6.1719,-6.1719,-6.1719,-6.1719,-6.1719,-6.1719,-6.1719,-6.1719,-6.1679,-6.1584,-6.1501,-6.1413,-6.1413,-6.1413,-6.1432,-6.1525,-6.1575,-6.1584,-6.1679,-6.1719,-6.1719,-6.1719,-6.1719,-6.1719,-6.1719,-6.1719,-6.1719,-6.1719,-6.1719,-6.1719,-6.1719,-6.1445,-6.1055,-6.0469,-5.9922,-5.9023,-5.7617,-5.6953,-5.6484,-5.6211,-5.5625,-5.5039,-5.4492,-5.3906,-5.3164,-5.2305,-5.2031,-5.1601,-5.1016,-5.0742,-5.0312,-4.9766,-4.918,-4.8906,0.0,-5.5434,-5.7165,-5.728,-5.5164,0.0,-5.2779,-5.0087,-4.7894,-4.874,-4.8471,-4.8548,-4.9933,-5.0481,-5.0712,-5.0712,0.0,0.0,0.0,0.0,0.0,-5.7049,0.0,0.0,0.0,0.0,0.0,0.0,0.0,0.0,-6.3397,-6.3512,-6.3397,-6.2858,-6.2358,-6.1678,-6.0819,-6.0781,-6.0781,-6.0781,-6.0781,-6.0781,-6.0781,-6.0781,-6.0781,0.0,0.0,0.0,0.0,-6.0961,-6.1081,-6.1207,-6.1364,-6.1474,-6.1509,-6.1585,-6.1677,-6.1719,-6.1719,-6.1719,-6.1719,-6.1719,-6.1678,-6.163,-6.1575,-6.1582,-6.1585,-6.1478,-6.1354,-6.1283,-6.1283,-6.1283,-6.1312,-6.1396,-6.1413,-6.1478,-6.1585,-6.1632,-6.1635,-6.1679,-6.1719,-6.1719,-6.1719,-6.1719,-6.1719,-6.1719,-6.1719,-6.1719,-6.1719,-6.1719,-6.1484,-6.0937,-6.0586,-5.9961,-5.8945,-5.7773,-5.7109,-5.7109,-5.6289,-5.5625,-5.5312,-5.4765,-5.4062,-5.3203,-5.3203,-5.2773,-5.1875,-5.1562,-5.1133,-5.0625,-5.0117,-4.9844,0.0,0.0,0.0,0.0,0.0,0.0,0.0,-4.9154,0.0,-4.7855,-4.8048,-4.8355,-4.924,-5.0087,-5.0712,0.0,0.0,0.0,0.0,-5.2923,0.0,0.0,-5.9792,0.0,0.0,0.0,0.0,0.0,0.0,0.0,-6.3166,-6.2474,-6.2062,-6.2024,-6.2024,-6.1639,-6.0819,-6.0781,-6.0781,-6.0781,-6.0781,-6.0781,-6.0781,-6.0781,-6.0781,0.0,0.0,0.0,0.0,-6.0916,-6.0979,-6.0997,-6.12,-6.1354,-6.1485,-6.1491,-6.1577,-6.1679,-6.1679,-6.1679,-6.1679,-6.1679,-6.1582,-6.1478,-6.1318,-6.1364,-6.1428,-6.1312,-6.1259,-6.1253,-6.1253,-6.1253,-6.1253,-6.1265,-6.1271,-6.1312,-6.1474,-6.1495,-6.1515,-6.1636,-6.1679,-6.1679,-6.1679,-6.168,-6.1719,-6.1719,-6.1719,-6.1719,-6.1719,-6.1719,-6.1719,-6.1719,-6.0976,-6.0508,-6.0508,-5.8906,-5.789,-5.789,-5.707,-5.625,-5.543,-5.539,-5.4961,-5.4101,-5.4023,-5.3555,-5.2695,-5.1875,-5.1445,-5.1406,-5.1406,-5.1406,0.0,0.0,0.0,0.0,0.0,0.0,0.0,0.0,0.0,0.0,0.0,0.0,0.0,0.0,0.0,0.0,0.0,0.0,-5.1885,0.0,0.0,-5.9473,-6.2781,0.0,0.0,0.0,0.0,0.0,0.0,-6.2974,-6.1473,-6.182,-6.1793,-6.1127,-6.1089,-6.1012,-6.0781,-6.0781,-6.0781,-6.0781,-6.0781,-6.0781,-6.0781,-6.0781,0.0,0.0,0.0,0.0,-6.0793,-6.0823,-6.0856,-6.0839,-6.1027,-6.1112,-6.1133,-6.1301,-6.1417,-6.152,-6.1417,-6.1478,-6.152,-6.1413,-6.1364,-6.1312,-6.1143,-6.1074,-6.1104,-6.1089,-6.0991,-6.0913,-6.0913,-6.0913,-6.0925,-6.104,-6.1081,-6.1135,-6.1306,-6.1339,-6.1349,-6.1378,-6.1488,-6.1566,-6.1566,-6.1633,-6.1719,-6.1719,-6.1719,-6.1719,-6.1719,-6.1719,-6.1719,-6.1719,-6.1523,-6.1406,-6.1406,-5.9258,-5.789,-5.789,-5.707,-5.6523,-5.6289,-5.6289,-5.5898,-5.5,-5.4336,-5.3555,-5.2695,-5.25,-5.2031,-5.1406,-5.1275,-5.1261,0.0,0.0,0.0,0.0,0.0,0.0,0.0,0.0,0.0,0.0,0.0,0.0,0.0,0.0,0.0,0.0,-5.1048,0.0,0.0,0.0,-5.9396,-6.0666,-6.3128,0.0,0.0,0.0,0.0,0.0,0.0,-6.2166,-6.0858,-6.1243,-6.1293,-6.0819,-6.0781,-6.0781,-6.0781,-6.0781,-6.0781,-6.0781,-6.0781,-6.0781,-6.0781,-6.0781,-6.0781,0.0,0.0,0.0,-6.0781,-6.0781,-6.0781,-6.0804,-6.0882,-6.0944,-6.1014,-6.1128,-6.1277,-6.1387,-6.1318,-6.1339,-6.1378,-6.1227,-6.1172,-6.1135,-6.0944,-6.0905,-6.0905,-6.0905,-6.0877,-6.0781,-6.0781,-6.0781,-6.0827,-6.0913,-6.0905,-6.0935,-6.1128,-6.1172,-6.1193,-6.1271,-6.1349,-6.1396,-6.1396,-6.1481,-6.1522,-6.1587,-6.1629,-6.1633,-6.1679,-6.1719,-6.1719,-6.1719,-6.1719,-6.1719,-6.1719,-6.0078,-5.8906,-5.8515,-5.7695,-5.7031,-5.6601,-5.6601,-5.6367,-5.5898,-5.5039,-5.4375,-5.3906,-5.3476,-5.3006,-5.2487,-5.2036,-5.1771,0.0,0.0,0.0,0.0,0.0,0.0,0.0,0.0,0.0,0.0,0.0,0.0,0.0,-4.8317,0.0,0.0,0.0,0.0,-5.5665,-5.7588,-5.9165,-6.0435,0.0,0.0,0.0,0.0,0.0,0.0,0.0,-6.1601,-6.0819,-6.0781,-6.0781,-6.0781,-6.0781,-6.0781,-6.0781,-6.0781,-6.0781,-6.0781,-6.0781,-6.0781,-6.0781,-6.0781,-6.0781,0.0,0.0,0.0,-6.0781,-6.0781,-6.0781,-6.0781,-6.0781,-6.086,-6.0982,-6.0982,-6.1089,-6.1246,-6.1246,-6.1234,-6.1186,-6.1006,-6.0982,-6.0944,-6.0823,-6.0781,-6.0781,-6.0781,-6.0781,-6.0781,-6.0781,-6.0781,-6.0781,-6.0781,-6.0781,-6.0823,-6.0935,-6.0982,-6.1006,-6.1179,-6.1234,-6.1246,-6.1246,-6.1388,-6.1484,-6.1471,-6.1612,-6.1681,-6.1677,-6.1679,-6.1719,-6.1719,-6.1719,-6.1679,-6.1678,-6.1015,-6.0234,-5.9413,-5.8554,-5.7695,-5.6836,-5.668,-5.6601,-5.6601,-5.5859,-5.5429,-5.5272,-5.453,-5.4048,-5.3751,-5.3004,-5.2563,-4.5594,-4.6124,-4.6547,-4.5932,-4.571,0.0,0.0,0.0,0.0,0.0,0.0,0.0,0.0,-4.9317,-5.0404,0.0,0.0,-5.5626,0.0,0.0,-6.0242,0.0,0.0,0.0,0.0,0.0,0.0,0.0,0.0,0.0,-6.0819,-6.0781,-6.0781,-6.0781,-6.0781,-6.0781,-6.0781,-6.0781,-6.0781,-6.0781,-6.0781,-6.0781,-6.0781,-6.0781,-6.0781,0.0,0.0,-6.0781,-6.0781,-6.0781,-6.0781,-6.0781,-6.0781,-6.0816,-6.0811,-6.0811,-6.0915,-6.1048,-6.1048,-6.0954,-6.0877,-6.0834,-6.0811,-6.085,-6.0793,-6.0781,-6.0781,-6.0781,-6.0781,-6.0781,-6.0781,-6.0781,-6.0781,-6.0781,-6.0781,-6.0793,-6.085,-6.0811,-6.0834,-6.0877,-6.0954,-6.1048,-6.1048,-6.173,-6.2106,-6.1434,-6.2071,-6.2323,-6.1635,-6.1633,-6.1719,-6.1719,-6.1719,-6.1638,-6.1525,-6.1517,-6.109,-6.0117,-5.9408,-5.8594,-5.7734,-5.6992,-5.6601,-5.6601,-5.6484,-5.5972,-5.5116,-5.4999,-5.4489,-5.3633,-5.3398,-5.324,-4.5273,-4.5619,-4.5926,-4.5964,-4.6148,0.0,0.0,0.0,0.0,0.0,0.0,0.0,0.0,0.0,-5.1289,-5.3097,0.0,-5.6857,-5.8127,0.0,0.0,0.0,0.0,0.0,0.0,0.0,0.0,0.0,0.0,0.0,-6.0781,-6.0781,-6.0781,-6.0781,-6.0781,-6.0781,-6.0781,-6.0781,-6.0781,-6.0781,-6.0781,-6.0781,-6.0781,-6.0781,-6.0781,-6.0781,0.0,-6.0781,-6.0781,-6.0781,-6.0781,-6.0781,-6.0781,-6.0781,-6.0781,-6.0781,-6.0834,-6.0874,-6.0874,-6.0867,-6.0781,-6.0781,-6.0781,-6.0781,-6.0781,-6.0781,-6.0781,-6.0781,-6.0781,-6.0781,-6.0781,-6.0781,-6.0935,-6.1408,-6.1127,-6.0935,-6.1408,-6.1127,-6.0781,-6.0781,-6.0856,-6.1029,-6.153,-6.1969,-6.2168,-6.1896,-6.2217,-6.2262,-6.149,-6.1509,-6.1584,-6.1584,-6.1677,-6.1679,-6.163,-6.1587,-6.1234,-6.0378,-5.9607,-5.8828,-5.793,-5.7454,-5.6976,-5.6507,-5.6402,-5.617,-5.5693,-5.5693,-5.539,-5.484,-5.4335,-5.4039,-4.4908,-4.5129,-4.5358,-4.5788,0.0,0.0,0.0,0.0,0.0,0.0,0.0,0.0,0.0,-5.0548,0.0,-5.5203,-5.6742,-5.7896,0.0,0.0,0.0,0.0,0.0,0.0,0.0,0.0,0.0,0.0,0.0,0.0,-6.0781,-6.0781,-6.0781,-6.0781,-6.0781,-6.0781,-6.0781,-6.0781,-6.0781,-6.0781,-6.0781,-6.0781,-6.0781,-6.0781,-6.0781,-6.0781,-6.0781,-6.0781,-6.0781,-6.0781,-6.0781,-6.0781,-6.0781,-6.0781,-6.0781,-6.0781,-6.0781,-6.0781,-6.0781,-6.0781,-6.0781,-6.0781,-6.0781,-6.0781,-6.0781,-6.0781,-6.0781,-6.0781,-6.0781,-6.0858,-6.105,-6.1089,-6.132,-6.2166,-6.1858,-6.155,-6.2243,-6.1858,-6.132,-6.1127,-6.1243,-6.155,-6.2024,-6.2447,-6.2633,-6.2529,-6.2578,-6.2366,-6.1634,-6.1476,-6.1432,-6.1432,-6.1579,-6.1678,-6.1719,-6.1568,-6.1236,-6.0699,-5.9874,-5.9087,-5.8423,-5.7916,-5.7336,-5.6634,-5.6359,-5.6175,-5.6141,-5.6141,-5.605,-5.584,-5.523,-5.4862,-4.4637,-4.5179,-4.5595,-4.4877,-4.5224,0.0,-4.8586,-4.8509,0.0,-5.1038,0.0,0.0,0.0,-5.1933,-5.3626,-5.5395,-5.7742,0.0,0.0,0.0,0.0,0.0,0.0,0.0,0.0,0.0,0.0,0.0,0.0,0.0,-6.0781,0.0,0.0,-6.0781,-6.0781,-6.0781,-6.0781,-6.0781,-6.0781,-6.0781,-6.0781,-6.0781,-6.0781,-6.0781,-6.0781,-6.0781,-6.0781,-6.0781,-6.0781,-6.0781,-6.0781,-6.0781,-6.0781,-6.0781,-6.0781,-6.0781,-6.0781,-6.0781,-6.0781,-6.0781,-6.0781,-6.0781,-6.0781,-6.0781,-6.0781,-6.0781,-6.0781,-6.0781,-6.0781,-6.0973,-6.1793,-6.2024,-6.2204,-6.3012,-6.3166,-6.3115,-6.3192,-6.3166,-6.2897,-6.2139,-6.2627,-6.2897,-6.2216,-6.3397,-6.4128,-6.3344,-6.3387,-6.3195,-6.2323,-6.1698,-6.1301,-6.1301,-6.1421,-6.1575,-6.1679,-6.1478,-6.1325,-6.1429,-6.0486,-5.9911,-5.9866,-5.8304,-5.7409,-5.7331,-5.6586,-5.6122,-5.5901,-5.5901,-5.587,-5.5696,-5.5658,-5.5609,-4.4161,-4.5002,-4.5704,-4.5167,-4.5715,0.0,0.0,-4.9017,-4.9471,-5.15,-5.251,0.0,0.0,0.0,-5.5934,-5.7126,0.0,0.0,0.0,0.0,0.0,0.0,0.0,0.0,0.0,0.0,0.0,0.0,0.0,0.0,0.0,0.0,0.0,-6.0012,-5.9973,-5.9973,-5.9973,-5.9973,-6.0242,-6.0781,-6.0781,-6.0781,-6.0781,-6.0781,-6.0781,-6.0781,-6.0781,-6.0781,-6.0781,-6.0781,-6.0781,-6.0781,-6.0781,-6.0781,-6.0781,-6.0781,-6.0781,-6.0781,-6.0781,-6.0781,-6.0781,-6.0781,-6.0781,-6.0781,-6.0781,-6.0781,-6.0781,-6.0781,-6.0781,-6.0858,-6.1204,-6.1678,-6.2293,-6.3128,-6.3308,-6.3474,-6.4012,-6.3666,-6.3205,-6.2897,-6.3089,-6.3397,-6.3628,-6.4166,-6.4474,-6.4166,-6.3723,-6.3097,-6.2298,-6.156,-6.112,-6.112,-6.1283,-6.1387,-6.1467,-6.1226,-6.1158,-6.1188,-6.0954,-6.0577,-6.0032,-5.9276,-5.8629,-5.8086,-5.7185,-5.6646,-5.6589,-5.6049,-5.5768,-5.5703,-5.5703,-5.5703,-4.3912,-4.4528,-4.5057,-4.508,0.0,0.0,-4.9598,-5.0134,-5.0818,-5.3049,-5.4049,-5.4664,-5.5203,0.0,0.0,0.0,0.0,0.0,0.0,0.0,0.0,0.0,0.0,0.0,0.0,0.0,0.0,0.0,0.0,0.0,0.0,0.0,0.0,0.0,-5.9127,-5.9127,-5.9127,-5.9358,-5.9819,-6.0396,-6.0666,-6.0781,-6.0781,-6.0781,-6.0781,-6.0781,-6.0781,-6.0781,-6.0781,-6.0781,-6.0781,-6.0781,-6.0781,-6.0781,-6.0781,-6.0781,-6.0781,-6.0781,-6.0781,-6.0781,-6.0781,-6.0781,-6.0781,-6.0781,-6.0781,-6.0781,-6.0781,-6.0781,-6.1012,-6.1204,-6.1204,-6.182,-6.2743,-6.3858,-6.4128,-6.4282,-6.4897,-6.4551,-6.4051,-6.3782,-6.3935,-6.4205,-6.4551,-6.482,-6.5013,-6.5013,-6.4282,-6.3512,-6.2974,-6.2,-6.1263,-6.1036,-6.1128,-6.1227,-6.1283,-6.112,-6.0997,-6.0997,-6.1073,-6.088,-6.029,-5.9886,-5.9408,-5.8819,-5.7878,-5.7407,-5.7407,-5.6819,-5.6395,-5.6088,-5.6088,-5.5972,-4.3927,-4.3775,-4.3697,-4.4438,0.0,0.0,-5.184,-5.2291,-5.2885,-5.6329,-5.5703,-5.4511,-5.4511,0.0,0.0,0.0,0.0,0.0,0.0,0.0,0.0,0.0,0.0,0.0,0.0,0.0,0.0,0.0,0.0,0.0,0.0,0.0,0.0,0.0,-5.828,-5.828,-5.828,-5.9088,-5.9473,-5.9511,-6.0358,-6.0781,-6.0781,-6.0781,-6.0781,-6.0781,-6.0781,-6.0781,-6.0781,-6.0781,-6.0781,-6.0781,-6.0781,-6.0781,-6.0781,-6.0781,-6.0781,-6.0781,-6.0781,-6.0781,-6.0781,-6.0781,-6.0781,-6.0781,-6.0781,-6.0781,-6.0781,-6.0781,-6.1435,-6.2101,-6.2101,-6.2704,-6.3743,-6.5474,-6.5897,-6.5897,-6.5897,-6.5897,-6.5628,-6.4782,-6.532,-6.5628,-6.4743,-6.532,-6.5897,-6.5897,-6.5166,-6.4589,-6.4589,-6.3128,-6.183,-6.1086,-6.0997,-6.1089,-6.1271,-6.112,-6.0997,-6.0997,-6.0871,-6.0781,-6.0781,-5.9973,-5.9511,-5.9511,-5.8704,-5.8319,-5.8319,-5.8319,-5.7857,-5.7022,-5.6983,-5.656,-4.3952,-4.4543,0.0,-4.5389,0.0,0.0,0.0,-5.2762,0.0,0.0,-5.7011,-5.6434,-5.7049,0.0,0.0,0.0,0.0,0.0,0.0,0.0,0.0,0.0,0.0,0.0,0.0,0.0,0.0,0.0,0.0,0.0,0.0,0.0,0.0,0.0,-5.7396,-5.7396,-5.7396,-5.7627,-5.805,-5.8665,-5.8934,-5.9665,-6.0781,-6.0781,-6.0781,-6.0781,-6.0781,-6.0781,-6.0781,-6.0781,-6.0781,-6.0781,-6.0781,-6.0781,-6.0781,-6.0781,-6.0781,-6.0781,-6.0781,-6.0781,-6.0781,-6.0781,-6.0781,-6.0781,-6.0781,-6.0781,-6.0781,-6.0781,-6.1435,-6.2216,-6.2781,-6.3589,-6.4359,-6.4859,-6.5436,-6.5897,-6.5897,-6.5897,-6.582,-6.5551,-6.5705,-6.582,-6.5551,-6.5743,-6.5897,-6.5897,-6.5166,-6.4166,-6.2974,-6.2409,-6.179,-6.0944,-6.0839,-6.0915,-6.1081,-6.0964,-6.0884,-6.0988,-6.0871,-6.0781,-6.0781,-6.055,-6.0396,-6.0396,-5.9588,-5.9127,-5.9127,-5.8588,-5.8165,-5.7896,-5.728,-5.6868,-4.4414,-4.4885,0.0,-4.6502,-4.8204,-5.0434,-5.3265,0.0,0.0,0.0,-5.8357,-5.778,-5.8627,-5.8896,0.0,0.0,0.0,0.0,0.0,0.0,0.0,0.0,0.0,0.0,0.0,0.0,0.0,0.0,0.0,0.0,0.0,0.0,0.0,0.0,-5.6483,-5.6483,-5.6483,-5.683,-5.7253,-5.778,-5.8127,-5.8819,-5.9819,-6.0127,-6.0281,-6.0281,-6.0666,-6.0781,-6.0781,-6.0781,-6.0781,-6.0781,-6.0781,-6.0781,-6.0781,-6.0781,-6.0781,-6.0781,-6.0781,-6.0781,-6.0781,-6.0781,-6.0781,-6.0781,-6.0781,-6.0781,-6.0858,-6.1216,-6.1935,-6.2704,-6.3166,-6.4205,-6.5128,-6.5128,-6.5513,-6.5897,-6.5897,-6.5897,-6.5897,-6.5897,-6.5897,-6.5897,-6.5897,-6.5897,-6.5897,-6.5897,-6.5436,-6.4628,-6.3281,-6.2781,-6.2243,-6.1396,-6.1012,-6.0823,-6.0915,-6.0856,-6.0823,-6.0915,-6.0845,-6.0781,-6.0781,-6.0781,-6.0781,-6.0781,-6.0281,-6.0012,-6.0012,-5.9511,-5.9127,-5.8781,-5.8242,-5.7819,-4.5,-4.4922,-4.5305,-4.7626,-4.9416,0.0,-5.5006,-5.7665,-5.9588,-6.0319,0.0,-5.8511,-5.9281,0.0,0.0,0.0,0.0,0.0,0.0,0.0,0.0,0.0,0.0,0.0,0.0,0.0,0.0,0.0,0.0,0.0,0.0,0.0,0.0,-5.5703,-5.5703,-5.5703,-5.5703,-5.6483,-5.6868,0.0,-5.7665,-5.805,-5.8088,-5.8973,-5.9435,-5.955,-6.0319,-6.0742,-6.0781,-6.0781,-6.0781,-6.0781,-6.0781,-6.0781,-6.0781,-6.0781,-6.0781,-6.0781,-6.0781,-6.0781,-6.0781,-6.0781,-6.0781,-6.0781,-6.0781,-6.0781,-6.0973,-6.1755,-6.2627,-6.3269,-6.3205,-6.4551,-6.5859,-6.5705,-6.5782,-6.5859,-6.5782,-6.582,-6.5897,-6.5897,-6.5897,-6.5897,-6.5897,-6.5897,-6.5897,-6.5897,-6.5897,-6.559,-6.4705,-6.3897,-6.3089,-6.2178,-6.1408,-6.0896,-6.0819,-6.0781,-6.0781,-6.0781,-6.0781,-6.0781,-6.0781,-6.0781,-6.0781,-6.0781,-6.0781,-6.0781,-6.0781,-6.0781,-6.0396,-5.9627,-5.955,-5.9127,0.0,-4.549,0.0,0.0,-5.1816,-5.4869,-5.6395,-5.7665,-5.8434,-5.7907,-5.805,-5.8357,-5.855,0.0,0.0,0.0,0.0,0.0,0.0,0.0,0.0,0.0,0.0,0.0,0.0,0.0,0.0,0.0,0.0,0.0,0.0,0.0,0.0,-5.5703,-5.5703,-5.5703,-5.5703,-5.5895,-5.5972,0.0,-5.6165,-5.6242,-5.6319,-5.7857,-5.8896,-5.9511,-5.9704,-6.0165,-6.0781,-6.0781,-6.0781,-6.0781,-6.0781,-6.0781,-6.0781,-6.0781,-6.0781,-6.0781,-6.0781,-6.0781,-6.0781,-6.0781,-6.0781,-6.0781,-6.0781,-6.0781,-6.0819,-6.1012,-6.2166,-6.3166,-6.2512,-6.4128,-6.5551,-6.4166,-6.4897,-6.5705,-6.5013,-6.5436,-6.5897,-6.5897,-6.5897,-6.5897,-6.5897,-6.5897,-6.5897,-6.5897,-6.5897,-6.559,-6.4705,-6.4436,-6.3743,-6.2255,-6.1947,-6.1562,-6.0858,-6.0781,-6.0781,-6.0781,-6.0781,-6.0781,-6.0781,-6.0781,-6.0781,-6.0781,-6.0781,-6.0781,-6.0781,-6.0781,-6.0704,-6.0512,-5.9819,-5.9396,0.0,0.0,0.0,-4.9942,0.0,-5.5934,-5.6791,-5.7011,-5.7049,-5.7022,-5.7703,-5.8319,0.0,0.0,0.0,0.0,0.0,0.0,0.0,0.0,0.0,0.0,0.0,0.0,0.0,0.0,0.0,0.0,0.0,0.0,0.0,-5.5126,-5.528,-5.5703,-5.5703,-5.5703,-5.5703,-5.5703,-5.5703,-5.5703,-5.5703,-5.5703,-5.5742,-5.7049,-5.8127,-5.8934,-5.9319,-5.9742,-6.0204,-6.0627,-6.0781,-6.0781,-6.0781,-6.0781,-6.0781,-6.0781,-6.0781,-6.0781,-6.0781,-6.0781,-6.0781,-6.0781,-6.0781,-6.0781,-6.0781,-6.0781,-6.0896,-6.1281,-6.232,-6.3192,-6.2781,-6.3974,-6.4859,-6.3128,-6.4359,-6.5667,-6.4782,-6.5282,-6.5897,-6.5897,-6.5897,-6.5897,-6.5897,-6.5897,-6.5897,-6.5897,-6.5897,-6.5743,-6.5282,-6.4859,-6.4128,-6.282,-6.232,-6.1755,-6.0858,-6.0781,-6.0781,-6.0781,-6.0781,-6.0781,-6.0781,-6.0781,-6.0781,-6.0781,-6.0781,-6.0781,-6.0781,-6.0781,-6.0781,-6.0781,-6.0319,-6.0127,0.0,0.0,-4.7846,-5.0923,-5.3395,0.0,-5.6329,-5.6011,-5.5742,-5.6599,-5.7357,0.0,0.0,0.0,0.0,0.0,0.0,0.0,0.0,0.0,0.0,0.0,0.0,0.0,0.0,0.0,0.0,0.0,0.0,0.0,-5.428,-5.428,-5.4587,-5.5241,-5.528,-5.528,-5.528,-5.528,-5.5318,-5.5472,-5.5626,-5.5703,-5.5703,-5.6445,-5.7242,-5.8127,-5.8781,-5.9242,-5.955,-6.0281,-6.0666,-6.0781,-6.0781,-6.0781,-6.0781,-6.0781,-6.0781,-6.0781,-6.0781,-6.0781,-6.0781,-6.0781,-6.0781,-6.0781,-6.0781,-6.0781,-6.0973,-6.187,-6.2666,-6.3281,-6.3128,-6.3858,-6.4166,-6.2524,-6.3935,-6.5436,-6.4551,-6.5166,-6.5897,-6.5897,-6.5897,-6.5859,-6.5705,-6.5782,-6.5782,-6.5513,-6.559,-6.5667,-6.5667,-6.5051,-6.4282,-6.3397,-6.2704,-6.1897,-6.0896,-6.0781,-6.0781,-6.0781,-6.0781,-6.0781,-6.0781,-6.0781,-6.0781,-6.0781,-6.0781,-6.0781,-6.0781,-6.0781,-6.0781,-6.0781,-6.0781,-6.0781,0.0,0.0,-4.8394,0.0,-5.1625,-5.2808,0.0,0.0,-5.4895,0.0,0.0,0.0,0.0,0.0,0.0,0.0,0.0,0.0,0.0,0.0,0.0,0.0,0.0,0.0,0.0,0.0,0.0,0.0,0.0,0.0,-5.3356,-5.3356,-5.3433,-5.3549,-5.3549,-5.3549,-5.3549,-5.3549,-5.3895,-5.4664,-5.5357,-5.5703,-5.5703,-5.5818,-5.6357,-5.7176,-5.7291,-5.8165,-5.9511,-5.9627,-6.0127,-6.0781,-6.0781,-6.0781,-6.0781,-6.0781,-6.0781,-6.0781,-6.0781,-6.0781,-6.0781,-6.0781,-6.0781,-6.0781,-6.0781,-6.0781,-6.0973,-6.187,-6.2666,-6.3128,-6.2435,-6.3435,-6.4166,-6.2524,-6.3474,-6.4551,-6.3666,-6.4743,-6.5897,-6.5897,-6.5897,-6.5667,-6.4897,-6.5397,-6.5397,-6.3858,-6.4282,-6.4782,-6.4782,-6.4666,-6.4282,-6.3397,-6.3192,-6.2512,-6.0935,-6.0781,-6.0781,-6.0781,-6.0781,-6.0781,-6.0781,-6.0781,-6.0781,-6.0781,-6.0781,-6.0781,-6.0781,-6.0781,-6.0781,-6.0781,-6.0781,-6.0781,-4.6174,-4.7069,-4.8189,0.0,-5.0933,-5.2115,-5.2856,0.0,-5.3857,0.0,0.0,0.0,0.0,0.0,0.0,0.0,0.0,0.0,0.0,0.0,0.0,0.0,0.0,0.0,0.0,0.0,0.0,0.0,0.0,-5.2462,-5.2462,-5.2462,-5.2702,-5.3203,-5.3203,-5.3203,-5.3203,-5.3203,-5.3626,-5.4511,-5.4857,-5.5241,-5.5703,-5.5703,-5.5895,-5.6291,-5.6791,-5.7407,-5.8165,-5.9127,-5.9742,-6.0127,-6.0589,-6.0781,-6.0781,-6.0781,-6.0781,-6.0781,-6.0781,-6.0781,-6.0781,-6.0781,-6.0781,-6.0781,-6.0781,-6.0781,-6.0858,-6.1243,-6.232,-6.3243,-6.2858,-6.3666,-6.4397,-6.3666,-6.4051,-6.4512,-6.4128,-6.5013,-6.5897,-6.5897,-6.5897,-6.5782,-6.5397,-6.5243,-6.5089,-6.4782,-6.4243,-6.4205,-6.5205,-6.4897,-6.4436,-6.4089,-6.3589,-6.282,-6.1639,-6.1089,-6.0781,-6.0781,-6.0781,-6.0781,-6.0781,-6.0781,-6.0781,-6.0781,-6.0781,-6.0781,-6.0781,-6.0781,-6.0781,-6.0781,-6.0781,-6.0781,0.0,0.0,-4.7125,-4.8314,-4.9527,-5.0661,0.0,0.0,-5.2702,0.0,0.0,0.0,0.0,0.0,0.0,0.0,0.0,0.0,0.0,0.0,0.0,0.0,0.0,0.0,0.0,0.0,0.0,0.0,0.0,-5.1587,-5.1587,-5.1587,-5.1895,-5.2549,-5.2549,-5.2549,-5.2549,-5.2779,-5.3318,-5.4164,-5.4395,-5.4934,-5.5703,-5.5703,-5.5703,-5.5742,-5.6406,-5.6907,-5.7434,-5.8665,-5.9435,-5.9896,-6.055,-6.0781,-6.0781,-6.0781,-6.0781,-6.0781,-6.0781,-6.0781,-6.0781,-6.0781,-6.0781,-6.0781,-6.0781,-6.0781,-6.0896,-6.132,-6.2358,-6.3346,-6.3589,-6.4128,-6.4589,-6.4589,-6.4589,-6.4666,-6.4897,-6.5436,-6.5897,-6.5897,-6.5897,-6.582,-6.559,-6.5205,-6.5013,-6.5205,-6.432,-6.4089,-6.5397,-6.5013,-6.4589,-6.4589,-6.382,-6.2974,-6.2178,-6.1281,-6.0781,-6.0781,-6.0781,-6.0781,-6.0781,-6.0781,-6.0781,-6.0781,-6.0781,-6.0781,-6.0781,-6.0781,-6.0781,-6.0781,-6.0781,-6.0781,0.0,-4.4726,0.0,-4.6188,-4.6522,0.0,0.0,0.0,0.0,0.0,0.0,0.0,0.0,0.0,0.0,0.0,0.0,0.0,0.0,0.0,0.0,0.0,0.0,0.0,0.0,0.0,0.0,0.0,0.0,-5.075,-5.075,-5.075,-5.0789,-5.0827,-5.0827,-5.0827,-5.0827,-5.1587,-5.2423,-5.328,-5.4126,-5.4934,-5.5703,-5.5703,-5.5703,-5.5703,-5.5742,-5.6703,-5.8242,-5.8319,-5.9319,-6.0742,-6.0781,-6.0781,-6.0781,-6.0781,-6.0781,-6.0781,-6.0781,-6.0781,-6.0781,-6.0781,-6.0781,-6.0781,-6.0781,-6.0781,-6.1127,-6.2704,-6.3231,-6.3512,-6.432,-6.4589,-6.4589,-6.4589,-6.4589,-6.482,-6.5628,-6.5859,-6.5897,-6.5897,-6.5897,-6.5628,-6.482,-6.532,-6.5282,-6.3666,-6.4051,-6.4589,-6.4666,-6.4628,-6.4589,-6.4589,-6.382,-6.2974,-6.2178,-6.1281,-6.0781,-6.0781,-6.0781,-6.0781,-6.0781,-6.0781,-6.0781,-6.0781,-6.0781,-6.0781,-6.0781,-6.0781,-6.0781,-6.0781,-6.0781,-6.0781,0.0,0.0,0.0,-4.5308,-4.5927,-4.6653,-4.7953,-4.8663,0.0,0.0,0.0,0.0,0.0,0.0,0.0,0.0,0.0,0.0,0.0,0.0,0.0,0.0,0.0,0.0,0.0,0.0,0.0,0.0,0.0,0.0,-5.0712,-5.0712,-5.0712,-5.0712,-5.0712,-5.0712,-5.0712,-5.0971,-5.1818,-5.3203,-5.351,-5.4395,-5.5703,-5.5703,-5.5703,-5.5703,-5.5703,-5.6049,-5.6703,-5.7857,-5.8665,-5.9319,-6.0358,-6.0781,-6.0781,-6.0781,-6.0781,-6.0781,-6.0781,-6.0781,-6.0781,-6.0781,-6.0781,-6.0781,-6.0781,-6.0781,-6.0935,-6.1512,-6.2474,-6.3346,-6.3666,-6.4589,-6.5436,-6.5436,-6.5436,-6.5513,-6.582,-6.5897,-6.5897,-6.5897,-6.5897,-6.5782,-6.5474,-6.5243,-6.5051,-6.4974,-6.4282,-6.4166,-6.5282,-6.4936,-6.482,-6.5359,-6.4166,-6.3166,-6.2897,-6.1589,-6.0781,-6.0781,-6.0781,-6.0781,-6.0781,-6.0781,-6.0781,-6.0781,-6.0781,-6.0781,-6.0781,-6.0781,-6.0781,-6.0781,-6.0781,-6.0781,-4.4908,0.0,0.0,0.0,0.0,-4.608,-4.6762,0.0,0.0,0.0,0.0,0.0,0.0,0.0,0.0,0.0,0.0,0.0,0.0,0.0,0.0,0.0,0.0,0.0,0.0,0.0,0.0,0.0,0.0,0.0,-5.0673,-5.0712,-5.0712,-5.0712,-5.0712,-5.0712,-5.0712,-5.0712,-5.1548,-5.3203,-5.3203,-5.4087,-5.5703,-5.5703,-5.5703,-5.5703,-5.5703,-5.5857,-5.6242,-5.7396,-5.8204,-5.8819,-5.9935,-6.055,-6.0781,-6.0781,-6.0781,-6.0781,-6.0781,-6.0781,-6.0781,-6.0781,-6.0781,-6.0781,-6.0781,-6.0781,-6.0858,-6.1127,-6.2243,-6.3346,-6.3666,-6.482,-6.5897,-6.5897,-6.5897,-6.5897,-6.5897,-6.5897,-6.5897,-6.5897,-6.5897,-6.5897,-6.5897,-6.5436,-6.5243,-6.582,-6.4897,-6.4589,-6.5743,-6.5397,-6.5243,-6.582,-6.4589,-6.3743,-6.3743,-6.2204,-6.1243,-6.1243,-6.0973,-6.0781,-6.0781,-6.0781,-6.0781,-6.0781,-6.0781,-6.0781,-6.0781,-6.0781,-6.0781,-6.0781,-6.0781,-6.0781,0.0,0.0,0.0,0.0,0.0,0.0,-4.6608,0.0,0.0,0.0,0.0,0.0,0.0,0.0,0.0,0.0,0.0,0.0,0.0,0.0,0.0,0.0,0.0,0.0,0.0,0.0,0.0,0.0,0.0,-4.974,-5.0596,-5.0635,-5.0673,-5.0712,-5.0712,-5.0712,-5.0712,-5.0712,-5.1548,-5.3203,-5.3203,-5.4087,-5.5703,-5.5703,-5.5703,-5.5703,-5.5703,-5.6175,-5.6945,-5.6983,-5.7973,-5.9435,-5.9473,-6.0012,-6.0742,-6.0781,-6.0781,-6.0781,-6.0781,-6.0781,-6.0781,-6.0781,-6.0781,-6.0781,-6.0781,-6.0781,-6.0973,-6.1831,-6.2666,-6.3512,-6.4397,-6.5282,-6.5897,-6.5897,-6.5897,-6.5897,-6.5897,-6.5897,-6.5897,-6.5897,-6.5897,-6.5897,-6.5897,-6.5897,-6.5897,-6.5897,-6.5897,-6.5897,-6.5897,-6.5897,-6.5897,-6.5897,-6.5089,-6.4589,-6.4589,-6.3051,-6.2062,-6.2101,-6.1293,-6.0781,-6.0781,-6.0781,-6.0781,-6.0781,-6.0781,-6.0781,-6.0781,-6.0781,-6.0781,-6.0781,-6.0781,-6.0781,-4.4977,0.0,0.0,0.0,0.0,0.0,0.0,0.0,0.0,0.0,0.0,0.0,0.0,0.0,0.0,0.0,0.0,0.0,0.0,0.0,0.0,0.0,0.0,0.0,0.0,0.0,0.0,0.0,-4.8471,-4.8548,-4.8817,-4.9433,-5.0048,-5.0673,-5.0712,-5.0712,-5.0712,-5.0712,-5.1548,-5.3203,-5.3203,-5.4087,-5.5703,-5.5703,-5.5703,-5.5703,-5.5703,-5.5818,-5.6088,-5.6753,-5.7291,-5.783,-5.9011,-5.9665,-5.9935,-6.055,-6.0781,-6.0781,-6.0781,-6.0781,-6.0781,-6.0781,-6.0781,-6.0781,-6.0781,-6.0781,-6.0858,-6.1089,-6.2204,-6.3666,-6.5166,-6.5705,-6.5897,-6.5897,-6.5897,-6.5897,-6.5897,-6.5897,-6.5897,-6.5897,-6.5897,-6.5897,-6.5897,-6.5897,-6.5897,-6.5897,-6.5897,-6.5897,-6.5897,-6.5897,-6.5897,-6.5897,-6.4551,-6.3897,-6.4551,-6.2474,-6.1435,-6.2062,-6.1293,-6.0781,-6.0781,-6.0781,-6.0781,-6.0781,-6.0781,-6.0781,-6.0781,-6.0781,-6.0781,-6.0781,-6.0781,-6.0781,0.0,0.0,0.0,0.0,0.0,0.0,-4.5559,-4.5594,-4.5748,0.0,0.0,0.0,0.0,0.0,0.0,0.0,0.0,0.0,0.0,0.0,0.0,0.0,0.0,0.0,0.0,0.0,0.0,-4.7586,-4.7586,-4.7894,-4.8586,-4.9125,-4.9779,-5.0673,-5.0712,-5.0712,-5.0712,-5.0712,-5.1356,-5.2654,-5.3049,-5.3895,-5.5203,-5.5549,-5.5703,-5.5703,-5.5703,-5.5703,-5.5742,-5.6252,-5.6676,-5.7137,-5.8473,-5.9204,-5.9627,-6.0473,-6.0781,-6.0781,-6.0781,-6.0781,-6.0781,-6.0781,-6.0781,-6.0781,-6.0781,-6.0781,-6.0781,-6.0781,-6.2012,-6.3705,-6.5436,-6.5897,-6.5897,-6.5897,-6.5897,-6.5897,-6.5897,-6.5897,-6.5897,-6.5897,-6.5897,-6.5897,-6.5897,-6.5897,-6.5897,-6.5897,-6.5897,-6.5897,-6.5897,-6.5897,-6.5897,-6.5897,-6.4666,-6.4051,-6.4551,-6.2897,-6.1935,-6.2101,-6.1639,-6.1166,-6.0819,-6.0781,-6.0781,-6.0781,-6.0781,-6.0781,-6.0781,-6.0781,-6.0781,-6.0781,-6.0781,-6.0781,0.0,0.0,0.0,0.0,0.0,0.0,-4.5594,-4.5594,-4.5594,-4.5594,0.0,0.0,0.0,0.0,0.0,0.0,0.0,0.0,0.0,0.0,0.0,0.0,0.0,0.0,0.0,-4.5594,-4.5932,-4.6701,-4.6778,-4.7509,-4.9163,-4.924,-4.9702,-5.0673,-5.0712,-5.0712,-5.0712,-5.0712,-5.1087,-5.1923,-5.2779,-5.3664,-5.4511,-5.5318,-5.5703,-5.5703,-5.5703,-5.5703,-5.5703,-5.5703,-5.6175,-5.6945,-5.7934,-5.8742,-5.9473,-6.0435,-6.0781,-6.0781,-6.0781,-6.0781,-6.0781,-6.0781,-6.0781,-6.0781,-6.0781,-6.0781,-6.0819,-6.0935,-6.2089,-6.3666,-6.532,-6.582,-6.5897,-6.5897,-6.5897,-6.5897,-6.5897,-6.5897,-6.5897,-6.5897,-6.5897,-6.5897,-6.5897,-6.5897,-6.5897,-6.5897,-6.5897,-6.5897,-6.5897,-6.5897,-6.5897,-6.5897,-6.5128,-6.4589,-6.4589,-6.3743,-6.2858,-6.2139,-6.2101,-6.1716,-6.0819,-6.0896,-6.0896,-6.0781,-6.0781,-6.0781,-6.0781,-6.0781,-6.0781,-6.0781,-6.0781,-6.0781,0.0,0.0,0.0,0.0,0.0,0.0,-4.5594,-4.5594,-4.5594,0.0,0.0,0.0,0.0,0.0,0.0,0.0,0.0,0.0,0.0,0.0,0.0,0.0,0.0,0.0,0.0,-4.5594,-4.5671,-4.5825,-4.5855,-4.6586,-4.8279,-4.8355,-4.9086,-5.0635,-5.0712,-5.0712,-5.0712,-5.0712,-5.1087,-5.1923,-5.2779,-5.3664,-5.4511,-5.5318,-5.5703,-5.5703,-5.5703,-5.5703,-5.5703,-5.5703,-5.578,-5.6088,-5.7703,-5.8396,-5.8704,-6.0242,-6.0781,-6.0781,-6.0781,-6.0781,-6.0781,-6.0781,-6.0781,-6.0781,-6.0781,-6.0781,-6.0935,-6.1639,-6.2551,-6.3538,-6.4589,-6.5359,-6.5897,-6.5897,-6.5897,-6.5897,-6.5897,-6.5897,-6.5897,-6.5897,-6.5897,-6.5897,-6.5897,-6.5897,-6.5897,-6.5897,-6.5897,-6.5897,-6.5897,-6.5897,-6.5897,-6.5897,-6.5128,-6.4589,-6.4589,-6.3205,-6.2293,-6.2101,-6.2101,-6.1716,-6.0819,-6.1485,-6.1524,-6.0819,-6.0781,-6.0781,-6.0781,-6.0781,-6.0781,-6.0781,-6.0781,-6.0781,0.0,0.0,0.0,-4.5594,0.0,0.0,0.0,-4.5594,-4.5594,-4.5594,0.0,0.0,0.0,0.0,0.0,0.0,0.0,0.0,0.0,0.0,0.0,0.0,0.0,0.0,0.0,-4.5594,-4.5594,-4.5594,-4.5594,-4.6163,-4.7432,-4.7509,-4.8279,-5.001,-5.0048,-5.025,-5.0712,-5.0712,-5.0894,-5.1318,-5.2587,-5.3433,-5.3895,-5.5126,-5.5703,-5.5703,-5.5703,-5.5703,-5.5703,-5.5703,-5.5703,-5.5857,-5.7627,-5.855,-5.905,-6.0319,-6.0781,-6.0781,-6.0781,-6.0781,-6.0781,-6.0781,-6.0781,-6.0781,-6.0781,-6.0781,-6.0973,-6.187,-6.2666,-6.3512,-6.4359,-6.5243,-6.5897,-6.5897,-6.5897,-6.5897,-6.5897,-6.5897,-6.5897,-6.5897,-6.5897,-6.5897,-6.5897,-6.5897,-6.5897,-6.5897,-6.5897,-6.5897,-6.5897,-6.5897,-6.5897,-6.5897,-6.5128,-6.4589,-6.4589,-6.382,-6.3166,-6.2743,-6.3089,-6.2974,-6.2089,-6.2089,-6.1678,-6.0819,-6.0781,-6.0781,-6.0781,-6.1243,-6.1204,-6.0781,-6.0781,-6.0781,0.0,0.0,0.0,0.0,0.0,-4.5825,0.0,0.0,0.0,0.0,0.0,0.0,0.0,0.0,0.0,0.0,0.0,0.0,0.0,0.0,0.0,0.0,0.0,0.0,0.0,-4.5594,-4.5594,-4.5594,-4.5594,-4.597,-4.6846,-4.6885,-4.7586,-4.9086,-4.9317,-4.974,-5.0442,-5.0635,-5.0712,-5.0712,-5.2395,-5.3203,-5.328,-5.4934,-5.5703,-5.5703,-5.5703,-5.5703,-5.5703,-5.5703,-5.5895,-5.6357,-5.7742,-5.8704,-5.9396,-6.0435,-6.0781,-6.0781,-6.0781,-6.0781,-6.0781,-6.0781,-6.0781,-6.0781,-6.0781,-6.0781,-6.0935,-6.1639,-6.2435,-6.3281,-6.4128,-6.5013,-6.5705,-6.5859,-6.5897,-6.5897,-6.5897,-6.5897,-6.5897,-6.5897,-6.5897,-6.5897,-6.5897,-6.5897,-6.5897,-6.5897,-6.5897,-6.5897,-6.5897,-6.5897,-6.5897,-6.5897,-6.5282,-6.4782,-6.4628,-6.4589,-6.4243,-6.3346,-6.4128,-6.4205,-6.3346,-6.2666,-6.2012,-6.1281,-6.1281,-6.1281,-6.1281,-6.182,-6.1639,-6.0819,-6.1127,-6.1089,0.0,0.0,0.0,0.0,-4.6163,0.0,-4.5787,0.0,-4.5594,-4.5594,0.0,0.0,0.0,0.0,0.0,0.0,0.0,0.0,0.0,0.0,0.0,0.0,0.0,0.0,0.0,0.0,-4.5594,-4.5594,-4.5594,-4.597,-4.6846,-4.6885,-4.7317,-4.824,-4.9009,-4.9433,-4.9548,-5.0327,-5.0712,-5.0712,-5.2395,-5.3203,-5.328,-5.4934,-5.5703,-5.5703,-5.5703,-5.5703,-5.5703,-5.5703,-5.6626,-5.8011,-5.8242,-5.8357,-5.8627,-6.0204,-6.0781,-6.0781,-6.0781,-6.0781,-6.0781,-6.0781,-6.0781,-6.0781,-6.0781,-6.0781,-6.0819,-6.0935,-6.1562,-6.2397,-6.3243,-6.4089,-6.4936,-6.5705,-6.5897,-6.5897,-6.5897,-6.5897,-6.5897,-6.5897,-6.5897,-6.5897,-6.5897,-6.5897,-6.5897,-6.5897,-6.5897,-6.5897,-6.5897,-6.5897,-6.5897,-6.5897,-6.582,-6.5436,-6.4666,-6.4589,-6.4243,-6.3346,-6.4128,-6.4205,-6.3346,-6.3205,-6.3128,-6.3012,-6.3012,-6.3012,-6.3012,-6.2397,-6.1639,-6.0819,-6.232,-6.2204,0.0,0.0,0.0,0.0,0.0,0.0,-4.5671,0.0,-4.5594,0.0,0.0,0.0,0.0,0.0,0.0,0.0,0.0,0.0,0.0,0.0,0.0,0.0,0.0,0.0,0.0,0.0,0.0,0.0,0.0,-4.5748,-4.6124,-4.6163,-4.6547,-4.7394,-4.8202,-4.8894,-4.9394,-5.025,-5.0712,-5.0712,-5.1895,-5.2692,-5.3241,-5.4434,-5.5241,-5.5703,-5.5703,-5.5703,-5.5703,-5.5703,-5.6434,-5.7588,-5.8088,-5.8896,-5.9858,-6.055,-6.0781,-6.0781,-6.0781,-6.0781,-6.0781,-6.0781,-6.0781,-6.0781,-6.0781,-6.0781,-6.0781,-6.0781,-6.1743,-6.2858,-6.3205,-6.3935,-6.482,-6.5705,-6.5513,-6.5282,-6.5782,-6.5897,-6.5897,-6.5897,-6.5897,-6.5897,-6.5897,-6.5897,-6.5897,-6.5897,-6.5897,-6.5897,-6.5897,-6.5897,-6.5897,-6.5897,-6.5897,-6.5743,-6.5397,-6.5359,-6.5205,-6.482,-6.5166,-6.4743,-6.3346,-6.3782,-6.3589,-6.2627,-6.3051,-6.3089,-6.2589,-6.3243,-6.2858,-6.1562,-6.2281,-6.2243,-4.5594,0.0,0.0,0.0,0.0,0.0,0.0,0.0,0.0,0.0,0.0,0.0,0.0,0.0,0.0,0.0,0.0,0.0,0.0,0.0,0.0,0.0,0.0,0.0,0.0,0.0,0.0,-4.5594,-4.5594,-4.5594,-4.5594,-4.5594,-4.6009,-4.6885,-4.7702,-4.8509,-4.9394,-5.025,-5.0712,-5.0712,-5.151,-5.2346,-5.3241,-5.4087,-5.4934,-5.5703,-5.5703,-5.5703,-5.5703,-5.5703,-5.6357,-5.7434,-5.805,-5.9319,-6.0781,-6.0781,-6.0781,-6.0781,-6.0781,-6.0781,-6.0781,-6.0781,-6.0781,-6.0781,-6.0781,-6.0973,-6.1166,-6.1166,-6.2204,-6.3346,-6.3577,-6.4128,-6.482,-6.5705,-6.5436,-6.5128,-6.5743,-6.5897,-6.5897,-6.5897,-6.5897,-6.5897,-6.5897,-6.5897,-6.5897,-6.5897,-6.5897,-6.5897,-6.5897,-6.5897,-6.5897,-6.5897,-6.5897,-6.5897,-6.5897,-6.5897,-6.5897,-6.5897,-6.5897,-6.532,-6.4051,-6.4628,-6.4397,-6.3178,-6.3705,-6.3743,-6.314,-6.4128,-6.3974,-6.2781,-6.3024,-6.2755,0.0,0.0,0.0,-4.5825,0.0,0.0,0.0,0.0,-4.6624,0.0,0.0,0.0,0.0,0.0,0.0,0.0,0.0,0.0,0.0,0.0,0.0,0.0,0.0,0.0,0.0,0.0,0.0,-4.5594,-4.5594,-4.5594,-4.5594,-4.5594,-4.6009,-4.6885,-4.7702,-4.8509,-4.9394,-5.025,-5.0712,-5.0712,-5.151,-5.2346,-5.3241,-5.4087,-5.4934,-5.5703,-5.5703,-5.5703,-5.5703,-5.5703,-5.6703,-5.828,-5.828,-5.9319,-6.0781,-6.0781,-6.0781,-6.0781,-6.0781,-6.0781,-6.0781,-6.0781,-6.0781,-6.0781,-6.0781,-6.1408,-6.2062,-6.2062,-6.2666,-6.3512,-6.4359,-6.4589,-6.482,-6.5705,-6.5859,-6.5859,-6.5897,-6.5897,-6.5897,-6.5897,-6.5897,-6.5897,-6.5897,-6.5897,-6.5897,-6.5897,-6.5897,-6.5897,-6.5897,-6.5897,-6.5897,-6.5897,-6.5897,-6.5897,-6.5897,-6.5897,-6.5897,-6.5897,-6.5897,-6.5859,-6.582,-6.582,-6.582,-6.5782,-6.5782,-6.5782,-6.5782,-6.4974,-6.4589,-6.4551,-6.5397,-6.4436,0.0,0.0,-4.7509,-4.6663,0.0,0.0,0.0,0.0,0.0,0.0,0.0,0.0,0.0,0.0,0.0,0.0,0.0,0.0,0.0,0.0,0.0,0.0,0.0,0.0,0.0,0.0,0.0,-4.5594,-4.5594,-4.5594,0.0,-4.5594,-4.5748,-4.6009,-4.7394,-4.824,-4.8548,-4.9971,-5.0971,-5.151,-5.1769,-5.2654,-5.4087,-5.4357,-5.4934,-5.5703,-5.5703,-5.5703,-5.5742,-5.6329,-5.7242,-5.8357,-5.8896,-5.9781,-6.0781,-6.0781,-6.0781,-6.0781,-6.0781,-6.0781,-6.0781,-6.0781,-6.0781,-6.0781,-6.0781,-6.1408,-6.2101,-6.2101,-6.3089,-6.4243,-6.4512,-6.4589,-6.482,-6.5705,-6.5474,-6.5205,-6.5782,-6.5897,-6.5897,-6.5897,-6.5897,-6.5897,-6.5897,-6.5897,-6.5897,-6.5897,-6.5897,-6.5897,-6.5897,-6.5897,-6.5897,-6.5897,-6.5897,-6.5946,-6.6035,-6.6018,-6.6008,-6.591,-6.5897,-6.5628,-6.5051,-6.559,-6.5628,-6.5051,-6.559,-6.5628,-6.5051,-6.532,-6.5166,-6.4628,-6.5474,-6.5128,-4.7471,-4.7702,0.0,-4.7471,-4.7115,0.0,-4.6547,0.0,0.0,0.0,0.0,0.0,0.0,0.0,0.0,0.0,0.0,0.0,0.0,0.0,0.0,0.0,0.0,0.0,0.0,0.0,-4.5594,-4.5594,-4.5594,-4.5594,0.0,0.0,-4.5748,-4.6047,-4.7394,-4.824,-4.8548,-4.9971,-5.1087,-5.1885,-5.1885,-5.2818,-5.4511,-5.4511,-5.4934,-5.5703,-5.5703,-5.5703,-5.5742,-5.6329,-5.7242,-5.8357,-5.8858,-5.9781,-6.0781,-6.0781,-6.0781,-6.0781,-6.0781,-6.0781,-6.0781,-6.0781,-6.0781,-6.0781,-6.0781,-6.1408,-6.2101,-6.2101,-6.332,-6.4589,-6.4589,-6.482,-6.5205,-6.5782,-6.5474,-6.5205,-6.5782,-6.5897,-6.5897,-6.5897,-6.5897,-6.5897,-6.5897,-6.5897,-6.5897,-6.5897,-6.5897,-6.5897,-6.5897,-6.5897,-6.5897,-6.5897,-6.5897,-6.5955,-6.609,-6.6109,-6.6079,-6.5963,-6.5951,-6.5712,-6.5089,-6.559,-6.6051,-6.6397,-6.609,-6.6051,-6.6397,-6.6051,-6.559,-6.5089,-6.5628,-6.559]},{"header":{"parameterUnit":"m.s-1","parameterCategory":1,"la1":30.6,"la2":29.2853,"lo1":-89.7004,"lo2":-87.6739,"dy":0.0162,"dx":0.0183,"nx":112,"ny":82,"refTime":"2023-02-24T06:00:00:Z","depth":0,"parameterNumber":3,"parameterNumberName":"V-component_of_WINDS"},"data":[0.0,0.0,0.0,0.0,0.0,0.0,0.0,0.0,0.0,0.0,0.0,0.0,0.0,0.0,0.0,0.0,0.0,0.0,0.0,0.0,0.0,0.0,0.0,0.0,0.0,0.0,0.0,0.0,0.0,0.0,0.0,0.0,0.0,0.0,0.0,0.0,0.0,0.0,0.0,0.0,0.0,0.0,0.0,0.0,0.0,0.0,0.0,0.0,0.0,0.0,0.0,0.0,0.0,0.0,0.0,0.0,0.0,0.0,0.0,0.0,0.0,0.0,0.0,0.0,0.0,0.0,0.0,0.0,0.0,0.0,0.0,0.0,0.0,0.0,0.0,0.0,0.0,0.0,0.0,0.0,0.0,0.0,0.0,0.0,0.0,0.0,0.0,0.0,0.0,0.0,0.0,0.0,0.0,0.0,0.0,0.0,0.0,0.0,0.0,0.0,0.0,0.0,0.0,0.0,0.0,0.0,0.0,0.0,0.0,0.0,0.0,0.0,0.0,0.0,0.0,0.0,0.0,0.0,0.0,0.0,0.0,0.0,0.0,0.0,0.0,0.0,0.0,0.0,0.0,0.0,0.0,0.0,0.0,0.0,0.0,0.0,0.0,0.0,0.0,0.0,0.0,0.0,0.0,0.0,0.0,0.0,0.0,0.0,0.0,0.0,0.0,0.0,0.0,0.0,0.0,0.0,0.0,0.0,0.0,0.0,0.0,0.0,0.0,0.0,0.0,0.0,0.0,0.0,0.0,0.0,0.0,0.0,0.0,0.0,0.0,0.0,0.0,0.0,0.0,0.0,0.0,0.0,0.0,0.0,0.0,0.0,0.0,0.0,0.0,0.0,0.0,0.0,0.0,0.0,0.0,0.0,0.0,0.0,0.0,0.0,0.0,0.0,0.0,0.0,0.0,0.0,0.0,0.0,0.0,0.0,0.0,0.0,0.0,0.0,0.0,0.0,0.0,0.0,0.0,0.0,0.0,0.0,0.0,0.0,0.0,0.0,0.0,0.0,0.0,0.0,0.0,0.0,0.0,0.0,0.0,0.0,0.0,0.0,0.0,0.0,0.0,0.0,0.0,0.0,0.0,0.0,0.0,0.0,0.0,0.0,0.0,0.0,0.0,0.0,0.0,0.0,0.0,0.0,0.0,0.0,0.0,0.0,0.0,0.0,0.0,0.0,0.0,0.0,0.0,0.0,0.0,0.0,0.0,0.0,0.0,0.0,0.0,0.0,0.0,0.0,0.0,0.0,0.0,0.0,0.0,0.0,0.0,0.0,0.0,0.0,0.0,0.0,0.0,0.0,0.0,0.0,0.0,0.0,0.0,0.0,0.0,0.0,0.0,0.0,0.0,0.0,0.0,0.0,0.0,0.0,0.0,0.0,0.0,0.0,0.0,0.0,0.0,0.0,0.0,0.0,0.0,0.0,0.0,0.0,0.0,0.0,0.0,0.0,0.0,0.0,0.0,0.0,0.0,0.0,0.0,0.0,0.0,0.0,0.0,0.0,0.0,0.0,0.0,0.0,0.0,0.0,0.0,0.0,0.0,0.0,0.0,0.0,0.0,0.0,0.0,0.0,0.0,0.0,0.0,0.0,0.0,0.0,0.0,0.0,0.0,0.0,0.0,0.0,0.0,0.0,0.0,0.0,0.0,0.0,0.0,0.0,0.0,0.0,0.0,0.0,0.0,0.0,0.0,0.0,0.0,0.0,0.0,0.0,0.0,0.0,0.0,0.0,0.0,0.0,0.0,0.0,0.0,0.0,0.0,0.0,0.0,0.0,0.0,0.0,0.0,0.0,0.0,0.0,0.0,0.0,0.0,0.0,0.0,0.0,0.0,0.0,0.0,0.0,0.0,0.0,0.0,0.0,0.0,0.0,0.0,0.0,0.0,0.0,0.0,0.0,0.0,0.0,0.0,0.0,0.0,0.0,0.0,0.0,0.0,0.0,0.0,0.0,0.0,0.0,0.0,0.0,0.0,0.0,0.0,0.0,0.0,0.0,0.0,0.0,0.0,0.0,0.0,0.0,0.0,0.0,0.0,0.0,0.0,0.0,0.0,0.0,0.0,0.0,0.0,0.0,0.0,0.0,0.0,0.0,0.0,0.0,0.0,0.0,0.0,0.0,0.0,0.0,0.0,0.0,0.0,0.0,0.0,0.0,0.0,0.0,0.0,0.0,0.0,0.0,0.0,0.0,0.0,0.0,0.0,0.0,0.0,0.0,0.0,0.0,0.0,0.0,0.0,0.0,0.0,0.0,0.0,0.0,0.0,0.0,0.0,0.0,0.0,0.0,0.0,0.0,0.0,0.0,0.0,0.0,0.0,0.0,0.0,0.0,0.0,0.0,0.0,0.0,0.0,0.0,0.0,0.0,0.0,0.0,0.0,0.0,0.0,0.0,0.0,0.0,0.0,0.0,0.0,0.0,0.0,0.0,0.0,0.0,0.0,0.0,0.0,0.0,0.0,0.0,0.0,0.0,0.0,0.0,0.0,0.0,0.0,0.0,0.0,0.0,0.0,0.0,0.0,0.0,0.0,0.0,0.0,0.0,0.0,0.0,0.0,0.0,0.0,0.0,0.0,0.0,0.0,0.0,0.0,0.0,0.0,0.0,0.0,0.0,0.0,0.0,0.0,0.0,0.0,0.0,0.0,0.0,0.0,0.0,0.0,0.0,0.0,0.0,0.0,0.0,0.0,0.0,0.0,0.0,0.0,0.0,0.0,0.0,0.0,0.0,0.0,0.0,0.0,0.0,0.0,0.0,0.0,0.0,0.0,0.0,0.0,0.0,0.0,0.0,0.0,0.0,0.0,0.0,0.0,0.0,0.0,0.0,0.0,0.0,0.0,0.0,0.0,0.0,0.0,0.0,0.0,0.0,0.0,0.0,0.0,0.0,0.0,0.0,0.0,0.0,0.0,0.0,0.0,0.0,0.0,0.0,0.0,0.0,0.0,0.0,0.0,0.0,0.0,0.0,0.0,0.0,0.0,0.0,0.0,0.0,0.0,0.0,0.0,0.0,0.0,0.0,0.0,0.0,0.0,0.0,0.0,0.0,0.0,0.0,0.0,0.0,0.0,0.0,0.0,0.0,0.0,0.0,0.0,0.0,0.0,0.0,0.0,0.0,0.0,0.0,0.0,0.0,0.0,0.0,0.0,0.0,0.0,0.0,0.0,0.0,0.0,0.0,0.0,0.0,0.0,0.0,0.0,0.0,0.0,0.0,0.0,0.0,0.0,0.0,0.0,0.0,0.0,0.0,0.0,0.0,0.0,0.0,0.0,0.0,0.0,0.0,0.0,0.0,0.0,0.0,0.0,0.0,0.0,0.0,0.0,0.0,0.0,0.0,0.0,0.0,0.0,0.0,0.0,0.0,0.0,0.0,0.0,0.0,0.0,0.0,0.0,0.0,0.0,0.0,0.0,0.0,0.0,0.0,0.0,0.0,0.0,0.0,0.0,0.0,0.0,0.0,0.0,0.0,0.0,0.0,0.0,0.0,0.0,0.0,0.0,0.0,0.0,0.0,0.0,0.0,0.0,0.0,0.0,0.0,0.0,0.0,0.0,0.0,0.0,0.0,0.0,0.0,0.0,0.0,0.0,0.0,0.0,0.0,0.0,0.0,0.0,0.0,0.0,0.0,0.0,0.0,0.0,0.0,0.0,0.0,0.0,0.0,0.0,0.0,0.0,0.0,0.0,0.0,0.0,0.0,0.0,0.0,0.0,0.0,0.0,0.0,0.0,0.0,0.0,0.0,0.0,0.0,0.0,0.0,0.0,0.0,0.0,0.0,0.0,0.0,0.0,0.0,0.0,0.0,0.0,0.0,0.0,0.0,0.0,0.0,0.0,0.0,0.0,0.0,0.0,0.0,0.0,0.0,0.0,0.0,0.0,0.0,0.0,0.0,0.0,0.0,0.0,0.0,0.0,0.0,0.0,0.0,0.0,0.0,0.0,0.0,0.0,0.0,0.0,0.0,0.0,0.0,0.0,0.0,0.0,0.0,0.0,0.0,0.0,0.0,0.0,0.0,0.0,0.0,0.0,0.0,0.0,0.0,0.0,0.0,0.0,0.0,0.0,0.0,0.0,0.0,0.0,0.0,0.0,0.0,0.0,0.0,0.0,0.0,0.0,0.0,0.0,0.0,0.0,0.0,0.0,0.0,0.0,0.0,0.0,0.0,0.0,0.0,0.0,0.0,0.0,0.0,0.0,0.0,0.0,0.0,0.0,0.0,0.0,0.0,0.0,0.0,0.0,0.0,0.0,0.0,0.0,0.0,0.0,0.0,0.0,0.0,0.0,0.0,0.0,0.0,0.0,0.0,0.0,0.0,0.0,0.0,0.0,0.0,0.0,0.0,0.0,0.0,0.0,0.0,0.0,0.0,0.0,0.0,0.0,0.0,0.0,0.0,0.0,0.0,0.0,0.0,0.0,0.0,0.0,0.0,0.0,0.0,0.0,0.0,0.0,0.0,0.0,0.0,0.0,0.0,0.0,0.0,0.0,0.0,0.0,0.0,0.0,0.0,0.0,0.0,0.0,0.0,0.0,0.0,0.0,0.0,0.0,0.0,0.0,0.0,0.0,0.0,0.0,0.0,0.0,0.0,0.0,0.0,0.0,0.0,0.0,0.0,0.0,0.0,0.0,0.0,0.0,0.0,0.0,0.0,0.0,0.0,0.0,0.0,0.0,0.0,0.0,0.0,0.0,0.0,0.0,0.0,0.0,0.0,0.0,0.0,0.0,0.0,0.0,0.0,0.0,0.0,0.0,0.0,0.0,0.0,0.0,0.0,0.0,0.0,0.0,0.0,0.0,0.0,0.0,0.0,0.0,0.0,0.0,0.0,0.0,0.0,0.0,0.0,0.0,0.0,0.0,0.0,0.0,0.0,0.0,0.0,0.0,0.0,0.0,0.0,0.0,0.0,0.0,0.0,0.0,0.0,0.0,0.0,0.0,0.0,0.0,0.0,0.0,0.0,0.0,0.0,0.0,0.0,0.0,0.0,0.0,0.0,0.0,0.0,0.0,0.0,0.0,0.0,0.0,0.0,0.0,0.0,0.0,0.0,0.0,0.0,0.0,0.0,0.0,0.0,0.0,0.0,0.0,0.0,0.0,0.0,0.0,0.0,0.0,0.0,0.0,0.0,0.0,0.0,0.0,0.0,0.0,0.0,0.0,0.0,0.0,0.0,0.0,0.0,0.0,0.0,0.0,0.0,0.0,0.0,0.0,0.0,0.0,0.0,0.0,0.0,0.0,0.0,0.0,0.0,0.0,0.0,0.0,0.0,0.0,0.0,0.0,0.0,0.0,0.0,0.0,0.0,0.0,0.0,0.0,0.0,0.0,0.0,0.0,0.0,0.0,0.0,0.0,0.0,0.0,0.0,0.0,0.0,0.0,0.0,0.0,0.0,0.0,0.0,0.0,0.0,0.0,0.0,0.0,0.0,0.0,0.0,0.0,0.0,0.0,0.0,0.0,0.0,0.0,0.0,0.0,0.0,0.0,0.0,0.0,0.0,0.0,0.0,0.0,0.0,0.0,0.0,0.0,0.0,0.0,0.0,0.0,0.0,0.0,0.0,0.0,0.0,0.0,0.0,0.0,0.0,0.0,0.0,0.0,0.0,0.0,0.0,0.0,0.0,0.0,0.0,0.0,0.0,0.0,0.0,0.0,0.0,0.0,0.0,0.0,0.0,0.0,0.0,0.0,0.0,0.0,0.0,0.0,0.0,0.0,0.0,0.0,0.0,0.0,0.0,0.0,0.0,0.0,0.0,0.0,0.0,0.0,0.0,0.0,0.0,0.0,0.0,0.0,0.0,0.0,0.0,0.0,0.0,0.0,0.0,0.0,0.0,0.0,0.0,0.0,0.0,0.0,0.0,0.0,0.0,0.0,0.0,0.0,0.0,0.0,0.0,0.0,0.0,0.0,0.0,0.0,0.0,0.0,0.0,0.0,0.0,0.0,0.0,0.0,0.0,0.0,0.0,0.0,0.0,0.0,0.0,0.0,0.0,0.0,0.0,0.0,0.0,0.0,0.0,0.0,0.0,0.0,0.0,0.0,0.0,0.0,0.0,0.0,0.0,0.0,0.0,0.0,0.0,0.0,0.0,0.0,0.0,0.0,0.0,0.0,0.0,0.0,0.0,0.0,0.0,0.0,0.0,0.0,0.0,0.0,0.0,0.0,0.0,0.0,0.0,0.0,0.0,0.0,0.0,0.0,0.0,0.0,0.0,0.0,0.0,0.0,0.0,0.0,0.0,0.0,0.0,0.0,0.0,0.0,0.0,0.0,0.0,0.0,0.0,0.0,0.0,0.0,0.0,0.0,0.0,0.0,0.0,0.0,0.0,0.0,0.0,0.0,0.0,0.0,0.0,0.0,0.0,0.0,0.0,0.0,0.0,0.0,0.0,0.0,0.0,0.0,0.0,0.0,0.0,0.0,0.0,0.0,0.0,0.0,0.0,0.0,0.0,0.0,0.0,0.0,0.0,0.0,0.0,0.0,0.0,0.0,0.0,0.0,0.0,0.0,0.0,0.0,0.0,0.0,0.0,0.0,0.0,0.0,0.0,0.0,0.0,0.0,0.0,0.0,0.0,0.0,0.0,0.0,0.0,0.0,0.0,0.0,0.0,0.0,0.0,0.0,0.0,0.0,0.0,0.0,0.0,0.0,0.0,0.0,0.0,0.0,0.0,0.0,0.0,0.0,0.0,0.0,0.0,0.0,0.0,0.0,0.0,0.0,0.0,0.0,0.0,0.0,0.0,0.0,0.0,0.0,0.0,0.0,0.0,0.0,0.0,0.0,0.0,0.0,0.0,0.0,0.0,0.0,0.0,0.0,0.0,0.0,0.0,0.0,0.0,0.0,0.0,0.0,0.0,0.0,0.0,0.0,0.0,0.0,0.0,0.0,0.0,0.0,0.0,0.0,0.0,0.0,0.0,0.0,0.0,0.0,0.0,0.0,0.0,0.0,0.0,0.0,0.0,0.0,0.0,0.0,0.0,0.0,0.0,0.0,0.0,0.0,0.0,0.8885,0.8885,0.0,0.0,0.0,0.0,0.0,0.0,0.0,0.0,0.0,0.0,0.0,0.0,0.0,0.0,0.0,0.0,0.0,0.0,0.0,0.0,0.0,0.0,0.0,0.0,0.0,0.0,0.0,0.0,0.0,0.0,0.0,0.0,0.0,0.0,0.0,0.0,0.0,0.0,0.0,0.0,0.0,0.0,0.0,0.0,0.0,0.0,0.0,0.0,0.0,0.0,0.0,0.0,0.0,0.0,0.0,0.0,0.0,0.0,0.0,0.0,0.0,0.0,0.0,0.0,0.0,0.0,0.0,0.0,0.0,0.0,0.0,0.0,0.0,0.0,0.0,0.0,0.0,0.0,0.0,0.0,0.0,0.0,0.0,0.0,0.0,0.0,0.0,0.0,0.0,0.0,0.0,0.0,0.0,0.0,0.0,0.0,0.0,0.0,0.0,0.0,0.0,0.0,0.0,0.0,0.0,0.0,0.0,0.0,0.0,0.9008,0.9028,0.8892,0.8221,0.7724,0.0,0.0,0.0,0.0,0.0,0.0,0.0,0.0,0.0,0.2178,0.0779,0.0,0.0,0.0,0.0,0.0,0.0,0.0,0.0,0.0,0.0,0.0,0.0,0.0,0.0,0.0,0.0,0.0,0.0,0.0,0.0,0.0,0.0,0.0,0.0,0.0,0.0,0.0,0.0,0.0,0.0,0.0,0.0,0.0,0.0,0.0,0.0,0.0,0.0,0.0,0.0,0.0,0.0,0.0,0.0,0.0,0.0,0.0,0.0,0.0,0.0,0.0,0.0,0.0,0.0,0.0,0.0,0.0,0.0,0.0,0.0,0.0,0.0,0.0,0.0,0.0,0.0,0.0,0.0,0.0,0.0,0.0,0.0,0.0,0.0,0.0,0.0,0.0,0.0,0.0,0.0,0.0,0.0,0.0,0.0,0.0,0.0,0.0,0.0,0.0,0.0,0.0,0.0,0.0,0.0,0.0,0.0,0.8696,0.8508,0.8344,0.7105,0.6223,0.0,0.0,0.0,0.0,0.0,0.0,0.3323,0.2244,0.1618,0.1644,0.0557,0.0,0.0,0.0,0.0,0.0,0.0,0.0,0.0,0.0,0.0,0.0,0.0,0.0,0.0,0.0,0.0,0.0,0.0,0.0,0.0,0.0,0.0,0.0,0.0,0.0,0.0,0.0,0.0,0.0,0.0,0.0,0.0,0.0,0.0,0.0,0.0,0.0,0.0,0.0,0.0,0.0,0.0,0.0,0.0,0.0,0.0,0.0,0.0,0.0,0.0,0.0,0.0,0.0,0.0,0.0,0.0,0.0,0.0,0.0,0.0,0.0,0.0,0.0,0.0,0.0,0.0,0.0,0.0,0.0,0.0,0.0,0.0,0.0,0.0,0.0,0.0,0.0,0.0,0.0,0.0,0.0,0.0,0.0,0.0,0.0,0.0,0.0,0.0,0.0,0.0,0.0,0.0,0.0,0.0,0.0,0.0,0.0,0.0,0.6837,0.5512,0.0,0.0,0.0,0.0,0.2339,0.1012,0.0242,0.0246,0.0123,0.0124,0.0126,0.0064,0.0,0.0,0.0,0.0,0.0,0.0,0.0,0.0,0.0,0.0,0.0,0.0,0.0,0.0,0.0,0.0,0.0,0.0,0.0,0.0,0.0,0.0,0.0,0.0,0.0,0.0,0.0,0.0,0.0,0.0,0.0,0.0,0.0,0.0,0.0,0.0,0.0,0.0,0.0,0.0,0.0,0.0,0.0,0.0,0.0,0.0,0.0,0.0,0.0,0.0,0.0,0.0,0.0,0.0,0.0,0.0,0.0,0.0,0.0,0.0,0.0,0.0,0.0,0.0,0.0,0.0,0.0,0.0,0.0,0.0,0.0,0.0,0.0,0.0,0.0,0.0,0.0,0.0,0.0,0.0,0.0,0.0,0.0,0.0,0.0,0.0,0.0,0.0,0.0,0.0,0.0,0.0,0.0,0.0,0.0,0.0,0.0,0.0,0.6833,0.4663,0.0,0.3026,0.1642,0.0795,0.08,0.031,0.0,0.0,0.0,0.0,0.0,0.0,0.0,0.0,0.0,0.0,0.0,0.0,0.0,0.0,0.0,0.0,0.0,0.0,0.0,0.0,0.0,0.0,0.0,0.0,0.0,0.0,0.0,0.0,0.0,0.0,0.0,0.0,0.0,0.0,0.0,0.0,0.0,0.0,0.0,0.0,0.0,0.0,0.0,0.0,0.0,0.0,0.0,0.0,0.0,0.0,0.0,0.0,0.0,0.0,0.0,0.0,0.0,0.0,0.0,0.0,0.0,0.0,0.0,0.0,0.0,0.0,0.0,0.0,0.0,0.0,0.0,0.0,0.0,0.0,0.0,0.0,0.0,0.0,0.0,0.0,0.0,0.0,0.0,0.0,0.0,0.0,0.0,0.0,0.0,0.0,0.0,0.0,0.0,0.0,0.0,0.0,0.0,0.0,0.0,0.0,0.0,0.0,0.0,0.7148,0.7284,0.5167,0.3685,0.3603,0.2061,0.1034,0.1038,0.0974,0.0719,0.0066,0.0598,0.0669,0.0,0.0,0.0,0.0,0.0,0.0,0.0,0.0,0.0,0.0,0.0,0.0,0.0,0.0,0.0,0.0,0.0,0.0,0.0,0.0,0.0,0.0,0.0,0.0,0.0,0.0,0.0,0.0,0.0,0.0,0.0,0.0,0.0,0.0,0.0,0.0,0.0,0.0,0.0,0.0,0.0,0.0,0.0,0.0,0.0,0.0,0.0,0.0,0.0,0.0,0.0,0.0,0.0,0.0,0.0,0.0,0.0,0.0,0.0,0.0,0.0,0.0,0.0,0.0,0.0,0.0,0.0,0.0,0.0,0.0,0.0,0.0,0.0,0.0,0.0,0.0,0.0,0.0,0.0,0.0,0.0,0.0,0.0,0.0,0.0,0.0,0.0,0.0,0.0,0.0,0.0,0.0,0.0,0.0,0.0,0.0,0.0,0.9401,0.8357,0.7714,0.7986,0.6818,0.6066,0.6258,0.444,0.3181,0.3219,0.3088,0.2141,0.021,0.1961,0.21,0.014,0.007,0.007,0.007,0.0,0.0,0.0,0.0,0.0,0.0,0.0,0.0,0.0,0.0,0.0,0.0,0.0,0.0,0.0,0.0,0.0,0.0,0.0,0.0,0.0,0.0,0.0,0.0,0.0,0.0,0.0,0.0,0.0,0.0,0.0,0.0,0.0,0.0,0.0,0.0,0.0,0.0,0.0,0.0,0.0,0.0,0.0,0.0,0.0,0.0,0.0,0.0,0.0,0.0,0.0,0.0,0.0,0.0,0.0,0.0,0.0,0.0,0.0,0.0,0.0,0.0,0.0,0.0,0.0,0.0,0.0,0.0,0.0,0.0,0.0,0.0,0.0,0.0,0.0,0.0,0.0,0.0,0.0,0.0,0.0,0.0,0.0,0.0,0.0,0.0,0.0,0.0,0.0,0.0,0.0,0.0,0.9992,0.9883,0.8736,0.803,0.8344,0.7121,0.6226,0.6263,0.5645,0.5195,0.5211,0.51,0.4165,0.2199,0.3932,0.4053,0.203,0.2079,0.209,0.1989,0.0628,0.0,0.0,0.0,0.0,0.0,0.0,0.0,0.0,0.0,0.0,0.0,0.0,0.0,0.0,0.0,0.0,0.0,0.0,0.0,0.0,0.0,0.0,0.0,0.0,0.0,0.0,0.0,0.0,0.0,0.0,0.0,0.0,0.0,0.0,0.0,0.0,0.0,0.0,0.0,0.0,0.0,0.0,0.0,0.0,0.0,0.0,0.0,0.0,0.0,0.0,0.0,0.0,0.0,0.0,0.0,0.0,0.0,0.0,0.0,0.0,0.0,0.0,0.0,0.0,0.0,0.0,0.0,0.0,0.0,0.0,0.0,0.0,0.0,0.0,0.0,0.0,0.0,0.0,0.0,0.0,0.0,0.0,0.0,0.0,0.0,0.0,0.0,0.0,0.0,0.0,1.01,1.0521,1.0617,0.9968,0.9614,0.9945,0.9286,0.881,0.8915,0.797,0.737,0.7366,0.7102,0.6155,0.4132,0.5863,0.5964,0.3913,0.314,0.2794,0.2668,0.0905,0.0,0.0,0.0,0.0,0.0,0.0,0.0,0.0,0.0,0.0,0.0,0.0,0.0,0.0,0.0,0.0,0.0,0.0,0.0,0.0,0.0,0.0,0.0,0.0,0.0,0.0,0.0,0.0,0.0,0.0,0.0,0.0,0.0,0.0,0.0,0.0,0.0,0.0,0.0,0.0,0.0,0.0,0.0,0.0,0.0,0.0,0.0,0.0,0.0,0.0,0.0,0.0,0.0,0.0,0.0,0.0,0.0,0.0,0.0,0.0,0.0,0.0,0.0,0.0,0.0,0.0,0.0,0.0,0.0,0.0,0.0,0.0,-0.0339,-0.0771,0.0,0.0,0.0,0.0,0.0,0.0,0.0,0.0,0.0,0.0,0.0,0.0,0.0,0.0,0.0,0.0,1.0595,1.1023,1.1592,1.1694,1.1809,1.206,1.2237,1.2379,1.2488,1.0708,0.9575,0.9564,0.9207,0.816,0.6054,0.0,0.0,0.0,0.0,0.3022,0.3023,0.1041,0.0,0.0,0.0,0.0,0.0,0.0,0.0,0.0,0.0,0.0,0.0,0.0,0.0,0.0,0.0,0.0,0.0,0.0,0.0,0.0,0.0,0.0,0.0,0.0,0.0,0.0,0.0,0.0,0.0,0.0,0.0,0.0,0.0,0.0,0.0,0.0,0.0,0.0,0.0,0.0,0.0,0.0,0.0,0.0,0.0,0.0,0.0,0.0,0.0,0.0,0.0,0.0,0.0,0.0,0.0,0.0,0.0,0.0,0.0,0.0,0.0,0.0,0.0,0.0,0.0,0.0,0.0,0.0,0.0,0.0,0.0,0.0,0.0,0.0,0.0,0.0,0.0,0.0,0.0,0.0,0.0,0.0,0.0,0.0,0.0,0.0,0.0,0.0,0.0,1.0371,1.1009,1.1572,1.1925,1.2182,1.2311,1.225,1.2481,1.261,1.2508,1.2033,1.1655,1.1538,1.1295,1.0281,0.8045,0.9818,0.99,0.7817,0.5953,0.5046,0.5005,0.171,0.0,0.0,0.0,0.0,0.0,0.0,0.0,0.0,0.0,0.0,0.0,0.0,0.0,0.0,0.0,0.0,0.0,0.0,0.0,0.0,0.0,0.0,0.0,0.0,0.0,0.0,0.0,0.0,0.0,0.0,0.0,0.0,0.0,0.0,0.0,0.0,0.0,0.0,0.0,0.0,0.0,0.0,0.0,0.0,0.0,0.0,0.0,0.0,0.0,0.0,0.0,0.0,0.0,0.0,0.0,0.0,0.0,0.0,0.0,0.0,0.0,0.0,0.0,0.0,0.0,0.0,0.0,0.0,0.0,0.0,0.0,0.0,0.0,0.0,0.0,0.0,0.0,0.0,0.0,0.0,0.0,0.0,0.0,0.0,0.0,0.9367,0.0,0.0,1.0466,1.1063,1.1545,1.1972,1.2345,1.2522,1.2562,1.2413,1.2528,1.2556,1.2413,1.2264,1.2115,1.1959,1.1809,1.1188,1.0042,1.0817,1.0367,0.8359,0.6449,0.5062,0.4174,0.1363,0.0,0.0,0.0,0.0,0.0,0.0,0.0,0.0,0.0,0.0,0.0,0.0,0.0,0.0,0.0,0.0,0.0,0.0,0.0,0.0,0.0,0.0,0.0,0.0,0.0,0.0,0.0,0.0,0.0,0.0,0.0,0.0,0.0,0.0,0.0,0.0,0.0,0.0,0.0,0.0,0.0,0.0,0.0,0.0,0.0,0.0,0.0,0.0,0.0,0.0,0.0,0.0,0.0,0.0,0.0,0.0,0.0,0.0,0.0,0.0,0.0,0.0,0.0,0.0,0.0,0.0,0.0,0.0,0.0,0.0,0.0,0.0,0.0,0.0,0.0,0.0,0.0,0.0,0.0,0.0,0.0,0.0,0.9384,0.9483,0.9659,0.991,1.0331,1.0649,1.1077,1.1762,1.2006,1.2244,1.263,1.2664,1.2589,1.2433,1.2467,1.2433,1.2264,1.2135,1.1999,1.1843,1.1728,1.1364,1.0895,1.0753,0.9928,0.8376,0.6081,0.4346,0.3302,0.1089,0.0,0.0,0.0,0.0,0.0,0.0,0.0,0.0,0.0,0.0,0.0,0.0,0.0,0.0,0.0,0.0,0.0,0.0,0.0,0.0,0.0,0.0,0.0,0.0,0.0,0.0,0.0,0.0,0.0,0.0,0.0,0.0,0.0,0.0,0.0,0.0,0.0,0.0,0.0,0.0,0.0,0.0,0.0,0.0,0.0,0.0,0.0,0.0,0.0,0.0,0.0,0.0,0.0,0.0,0.0,0.0,0.0,0.0,0.0,0.0,0.0,0.0,0.0,0.0,0.0,0.0,0.0,0.0,0.0,0.0,0.0,0.0,0.0,0.0,0.9296,0.9062,0.8905,0.8885,0.9035,0.9255,0.0,0.0,0.9788,1.0006,1.0202,1.0493,1.0745,1.1118,1.1477,1.1959,1.2169,1.2325,1.2501,1.242,1.2284,1.2128,1.2338,1.2393,1.2115,1.2149,1.1999,1.1843,1.1816,1.0879,0.8899,0.8782,0.8644,0.8282,0.4833,0.3717,0.5253,0.176,0.0,0.0,0.0,0.0,0.0,0.0,0.0,0.0,0.0,0.0,0.0,0.0,0.0,0.0,0.0,0.0,0.0,0.0,0.0,0.0,0.0,0.0,0.0,0.0,0.0,0.0,0.0,0.0,0.0,0.0,0.0,0.0,0.0,0.0,0.0,0.0,0.0,0.0,0.0,0.0,0.0,0.0,0.0,0.0,0.0,0.0,0.0,0.0,0.0,0.0,0.0,0.0,0.0,0.0,0.0,0.0,0.0,0.0,0.0,0.0,0.0,0.0,0.0,0.0,0.0,0.0,0.0,0.0,0.0,0.0,0.0,0.0,0.0,0.0,0.9137,0.8988,0.8905,0.9042,0.9306,0.9598,0.9815,1.0114,1.0365,1.0426,1.0744,1.1056,1.1185,1.1525,1.187,0.0,1.2318,1.2467,1.2617,1.2359,1.2067,1.183,1.1837,1.1843,1.1809,1.1803,1.1775,1.1714,1.1626,1.1194,1.0364,1.0162,0.9556,0.8441,0.5823,0.4203,0.3922,0.1281,0.0,0.0,0.0,0.0,0.0,0.0,0.0,0.0,0.0,0.0,0.0,0.0,0.0,0.0,0.0,0.0,0.0,0.0,0.0,0.0,0.0,0.0,0.0,0.0,0.0,0.0,0.0,0.0,0.0,0.0,0.0,0.0,0.0,0.0,0.0,0.0,0.0,0.0,0.0,0.0,0.0,0.0,0.0,0.0,0.0,0.0,0.0,0.0,0.0,0.0,0.0,0.0,0.0,0.0,0.0,0.0,0.0,0.0,0.0,0.0,0.0,0.0,0.0,0.0,0.0,0.0,0.0,0.0,0.0,0.0,0.0,0.0,0.0,0.0,0.8959,0.8946,0.9117,0.9347,0.9734,1.012,1.031,1.0643,1.0921,1.0962,1.1226,1.1463,1.1504,1.1782,1.2074,1.2311,1.24,1.2481,1.2589,1.2257,1.1857,1.1477,1.1301,1.1246,1.1362,1.1443,1.1491,1.1491,1.143,1.1204,1.0702,1.0506,0.982,0.8395,0.6506,0.5076,0.4158,0.188,0.074,0.074,0.0269,0.0,0.0,0.0,0.0,0.0,0.0,0.0,0.0,0.0,0.0,0.0,0.0,0.0,0.0,0.0,0.0,0.0,0.0,0.0,0.0,0.0,0.0,0.0,0.0,0.0,0.0,0.0,0.0,0.0,0.0,0.0,0.0,0.0,0.0,0.0,0.0,0.0,0.0,0.0,0.0,0.0,0.0,0.0,0.0,0.0,0.0,0.0,0.0,0.0,0.0,0.0,0.0,0.0,0.0,0.0,0.0,0.0,0.0,0.0,0.0,0.0,0.0,0.0,0.0,0.0,0.0,0.0,0.0,0.0,0.0,0.0,0.0,0.0,0.9469,0.9849,1.0358,1.0772,1.1063,1.1253,1.1409,1.1558,1.1606,1.1653,1.1789,1.183,1.1986,1.2427,1.2386,1.2298,1.2305,1.2033,1.1619,1.0968,1.0766,1.0744,0.0,1.1009,1.1179,1.1179,1.1307,1.055,0.8526,0.8516,0.839,0.8005,0.6349,0.6164,0.7831,0.4356,0.2618,0.2618,0.0807,0.0,0.0,0.0,0.0,0.0,0.0,0.0,0.0,0.0,0.0,0.0,0.0,0.0,0.0,0.0,0.0,0.0,0.0,0.0,0.0,0.0,0.0,0.0,0.0,0.0,0.0,0.0,0.0,0.0,0.0,0.0,0.0,0.0,0.0,0.0,0.0,0.0,0.0,0.0,0.0,0.0,0.0,0.0,0.0,0.0,0.0,0.0,0.0,0.0,0.0,0.0,0.0,0.0,0.0,0.0,0.0,0.0,0.0,0.0,0.0,0.0,0.0,0.0,0.0,0.0,0.0,0.0,0.0,0.0,0.0,0.0,0.0,0.0,1.0059,1.0405,1.0907,1.1369,1.1558,1.1728,1.1796,1.1647,1.1457,1.1274,1.1124,1.1109,1.1362,1.1708,1.1972,1.2142,1.2142,1.1959,1.1572,1.088,1.0839,0.0,0.0,0.0,0.0,1.1151,1.1212,1.0981,1.0391,1.0391,1.0328,1.0116,0.8417,0.7641,0.7964,0.5693,0.389,0.2685,0.0874,0.0,0.0,0.0,0.0,0.0,0.0,0.0,0.0,0.0,0.0,0.0,0.0,0.0,0.0,0.0,0.0,0.0,0.0,0.0,0.0,0.0,0.0,0.0,0.0,0.0,0.0,0.0,0.0,0.0,0.0,0.0,0.0,0.0,0.0,0.0,0.0,0.0,0.0,0.0,0.0,0.0,0.0,0.0,0.0,0.0,0.0,0.0,0.0,0.0,0.0,0.0,0.0,0.0,0.0,0.0,0.0,0.0,0.0,0.0,0.0,0.0,0.0,0.0,0.0,0.0,0.0,0.0,0.0,0.0,0.0,0.0,0.0,1.0066,1.0616,1.1016,1.1491,1.187,1.1904,1.1945,1.1898,1.1599,1.1253,1.0928,1.0683,1.0629,1.0758,1.1165,1.1382,1.1579,1.1789,1.1647,1.1244,1.0785,1.0758,1.067,0.0,0.0,0.0,1.0989,1.1104,1.1185,1.1233,1.1335,1.1301,1.109,1.0022,0.932,0.9041,0.7286,0.5188,0.2685,0.1545,0.0605,0.0,0.0,0.0,0.0,0.0,0.0,0.0,0.0,0.0,0.0,0.0,0.0,0.0,0.0,0.0,0.0,0.0,0.0,0.0,0.0,0.0,0.0,0.0,0.0,0.0,0.0,0.0,0.0,0.0,0.0,0.0,0.0,0.0,0.0,0.0,0.0,0.0,0.0,0.0,0.0,0.0,0.0,0.0,0.0,0.0,0.0,0.0,0.0,0.0,0.0,0.0,0.0,0.0,0.0,0.0,0.0,0.0,0.0,0.0,0.0,0.0,0.0,0.0,0.0,0.0,0.0,0.0,0.0,0.0,0.0,1.0243,1.0758,1.1076,1.1714,1.2074,1.225,1.2094,1.1925,1.1714,1.1416,1.0989,1.0616,0.0,0.0,1.0229,1.0759,1.0704,1.0731,1.1321,1.1165,1.086,0.0,0.0,0.0,0.0,0.0,0.0,1.0731,0.0,1.1104,1.09,1.124,1.1274,1.0914,1.1104,1.1104,1.088,0.9154,0.6517,0.2956,0.2819,0.1814,0.0135,0.0067,0.0,0.0,0.0,0.0,0.0,0.0,0.0,0.0,0.0,0.0,0.0,0.0,0.0,0.0,0.0,0.0,0.0,0.0,0.0,0.0,0.0,0.0,0.0,0.0,0.0,0.0,0.0,0.0,0.0,0.0,0.0,0.0,0.0,0.0,0.0,0.0,0.0,0.0,0.0,0.0,0.0,0.0,0.0,0.0,0.0,0.0,0.0,0.0,0.0,0.0,0.0,0.0,0.0,0.0,0.0,0.0,0.0,0.0,0.0,0.0,0.0,0.0,0.0,0.0,0.0,0.0,0.0,0.0,1.067,1.1294,1.1843,1.2108,1.223,1.225,1.2094,1.1687,1.1246,1.0948,1.0358,0.9849,0.0,0.0,0.0,1.0514,1.0826,0.0,1.1504,1.1586,0.0,1.088,0.0,1.1077,1.0786,1.0928,0.0,0.0,1.1118,1.1145,1.1111,1.1396,1.1477,1.1287,1.1314,1.1206,1.088,0.9002,0.7699,0.6868,0.4044,0.2484,0.1947,0.0605,0.0,0.0,0.0,0.0,0.0,0.0,0.0,0.0,0.0,0.0,0.0,0.0,0.0,0.0,0.0,0.0,0.0,0.0,0.0,0.0,0.0,0.0,0.0,0.0,0.0,0.0,0.0,0.0,0.0,0.0,0.0,0.0,0.0,0.0,0.0,0.0,0.0,0.0,0.0,0.0,0.0,0.0,0.0,0.0,0.0,0.0,0.0,0.0,0.0,0.0,0.0,0.0,0.0,0.0,0.0,0.0,0.0,0.0,0.0,0.0,0.0,0.0,0.0,0.0,0.0,0.0,0.0,0.0,1.1457,1.1986,1.2379,1.2461,1.2386,1.2196,1.185,1.1355,1.0846,1.0412,0.989,0.9462,0.9306,0.93,0.949,0.0,0.0,0.0,1.1341,1.143,1.1396,0.0,1.1274,0.0,1.1056,1.1118,1.1234,0.0,1.1226,1.126,1.126,1.1491,1.1552,1.1396,1.1457,1.1348,1.1043,0.9924,0.8979,0.8127,0.6049,0.4225,0.2685,0.168,0.074,0.0,0.0,0.0,0.0,0.0,0.0,0.0,0.0,0.0,0.0,0.0,0.0,0.0,0.0,0.0,0.0,0.0,0.0,0.0,0.0,0.0,0.0,0.0,0.0,0.0,0.0,0.0,0.0,0.0,0.0,0.0,0.0,0.0,0.0,0.0,0.0,0.0,0.0,0.0,0.0,0.0,0.0,0.0,0.0,0.0,0.0,0.0,0.0,0.0,0.0,0.0,0.0,0.0,0.0,0.0,0.0,0.0,0.0,0.0,0.0,0.0,0.0,0.0,0.0,0.0,0.0,0.0,1.2305,1.2644,1.2752,1.2732,1.2494,1.2101,1.1497,1.0968,1.0439,0.9876,0.9496,0.9232,0.92,0.9022,0.904,0.9591,0.0,1.0188,1.107,1.1084,1.1089,1.1572,1.1389,1.1226,1.1226,1.1226,1.1226,1.1226,1.1348,1.1409,1.1396,1.1538,1.1552,1.1396,1.1497,1.143,1.1234,1.1193,1.0221,0.839,0.8107,0.636,0.3354,0.2887,0.1814,0.0336,0.0,0.0,0.0,0.0,0.0,0.0,0.0,0.0,0.0,0.0,0.0,0.0,0.0,0.0,0.0,0.0,0.0,0.0,0.0,0.0,0.0,0.0,0.0,0.0,0.0,0.0,0.0,0.0,0.0,0.0,0.0,0.0,0.0,0.0,0.0,0.0,0.0,0.0,0.0,0.0,0.0,0.0,0.0,0.0,0.0,0.0,0.0,0.0,0.0,0.0,0.0,0.0,0.0,0.0,0.0,0.0,0.0,0.0,0.0,0.0,0.0,0.0,0.0,0.0,0.0,0.0,1.2549,1.28,1.2888,1.2759,1.2413,1.1945,1.1341,1.0568,0.0,0.953,0.9022,0.871,0.8933,0.8898,0.9107,0.9802,1.01,1.0473,1.1246,1.1328,1.1389,0.0,1.1572,1.1538,1.1538,1.1538,0.0,0.0,0.0,1.1525,1.1396,1.1538,1.1552,1.1396,1.1294,1.1219,1.1234,1.0921,1.0632,1.0361,0.875,0.7698,0.696,0.4021,0.2551,0.2148,0.0672,0.0,0.0,0.0,0.0,0.0,0.0,0.0,0.0,0.0,0.0,0.0,0.0,0.0,0.0,0.0,0.0,0.0,0.0,0.0,0.0,0.0,0.0,0.0,0.0,0.0,0.0,0.0,0.0,0.0,0.0,0.0,0.0,0.0,0.0,0.0,0.0,0.0,0.0,0.0,0.0,0.0,0.0,0.0,0.0,0.0,0.0,0.0,0.0,0.0,0.0,0.0,0.0,0.0,0.0,0.0,0.0,0.0,0.0,0.0,0.0,0.0,0.0,0.0,0.0,0.0,1.3057,1.3254,1.3234,1.2929,1.2393,1.1742,1.0989,0.0,0.0,0.911,0.8804,0.8648,0.8791,0.8947,0.9191,0.9632,0.9829,1.0188,1.0934,1.1043,1.1185,1.1572,1.1619,1.1619,1.1619,1.1619,1.1619,1.1619,0.0,1.1586,1.1511,1.1504,1.1463,1.1396,1.1321,1.1206,1.105,1.0982,1.0907,1.0759,0.9873,0.89,0.7964,0.6227,0.4423,0.2685,0.1814,0.0,0.0,0.0,0.0,0.0,0.0,0.0,0.0,0.0,0.0,0.0,0.0,0.0,0.0,0.0,0.0,0.0,0.0,0.0,0.0,0.0,0.0,0.0,0.0,0.0,0.0,0.0,0.0,0.0,0.0,0.0,0.0,0.0,0.0,0.0,0.0,0.0,0.0,0.0,0.0,0.0,0.0,0.0,0.0,0.0,0.0,0.0,0.0,0.0,0.0,0.0,0.0,0.0,0.0,0.0,0.0,0.0,0.0,0.0,0.0,0.0,0.0,0.0,0.0,0.0,1.3376,1.3553,1.3471,1.3024,1.2345,1.1552,1.0649,0.9842,0.9164,0.875,0.8635,0.8635,0.8696,0.8899,0.9187,0.0,0.9483,0.9822,1.0568,1.0697,1.0934,0.0,1.1599,0.0,1.1619,1.1619,0.0,1.1619,0.0,0.0,1.1619,1.1504,1.1409,1.1341,1.1341,1.1199,1.0833,1.1009,1.0948,1.0717,1.0717,0.9981,0.8568,0.8163,0.6494,0.3823,0.3021,0.0,0.0,0.0135,0.0,0.0,0.0,0.0,0.0,0.0,0.0,0.0,0.0,0.0,0.0,0.0,0.0,0.0,0.0,0.0,0.0,0.0,0.0,0.0,0.0,0.0,0.0,0.0,0.0,0.0,0.0,0.0,0.0,0.0,0.0,0.0,0.0,0.0,0.0,0.0,0.0,0.0,0.0,0.0,0.0,0.0,0.0,0.0,0.0,0.0,0.0,0.0,0.0,0.0,0.0,0.0,0.0,0.0,0.0,0.0,0.0,0.0,0.0,0.0,0.0,0.0,1.3091,1.3315,1.3315,1.2861,1.2189,1.1402,1.0507,0.0,0.8886,0.8567,0.8397,0.8391,0.8662,0.873,0.8886,0.9313,0.0,0.9659,1.0405,1.0629,1.0894,1.1355,0.0,0.0,1.1619,1.1619,0.0,0.0,0.0,0.0,1.1619,1.1606,1.147,1.1261,1.1255,1.1043,1.0744,1.0751,1.0744,1.0717,1.0717,1.0585,1.0386,0.8767,0.7831,0.736,0.4091,0.0,0.0,0.0672,0.0,0.0,0.0,0.0,0.0,0.0,0.0,0.0,0.0,0.0,0.0,0.0,0.0,0.0,0.0,0.0,0.0,0.0,0.0,0.0,0.0,0.0,0.0,0.0,0.0,0.0,0.0,0.0,0.0,0.0,0.0,0.0,0.0,0.0,0.0,0.0,0.0,0.0,0.0,0.0,0.0,0.0,0.0,0.0,0.0,0.0,0.0,0.0,0.0,0.0,0.0,0.0,0.0,0.0,0.0,0.0,0.0,0.0,0.0,0.0,0.0,0.0,1.2759,1.3146,1.3268,1.2725,1.1965,1.1158,1.0439,0.0,0.8764,0.8648,0.8499,0.8465,0.8669,0.8784,0.8906,0.0,0.0,0.0,0.9747,0.9876,1.0181,1.09,1.1124,0.0,0.0,0.0,1.1619,0.0,0.0,0.0,1.1619,1.1531,1.1382,1.1241,1.1234,1.1023,1.0724,1.0812,1.0812,1.0717,1.0717,1.0717,1.0651,0.9981,0.9039,0.7897,0.6494,0.0,0.0,0.1948,0.1009,0.0,0.0,0.0,0.0,0.0,0.0,0.0,0.0,0.0,0.0,0.0,0.0,0.0,0.0,0.0,0.0,0.0,0.0,0.0,0.0,0.0,0.0,0.0,0.0,0.0,0.0,0.0,0.0,0.0,0.0,0.0,0.0,0.0,0.0,0.0,0.0,0.0,0.0,0.0,0.0,0.0,0.0,0.0,0.0,0.0,0.0,0.0,0.0,0.0,0.0,0.0,0.0,0.0,0.0,0.0,0.0,0.0,0.0,0.0,0.0,0.0,1.2182,1.2664,1.2895,1.242,1.1626,1.0819,1.027,0.0,0.8642,0.8642,0.856,0.8526,0.8682,0.8832,0.8885,0.0,0.0,0.892,0.9327,0.9422,0.9713,1.0439,0.0,1.0928,0.0,1.1545,0.0,0.0,0.0,0.0,1.1619,1.147,1.1321,1.1165,1.1234,1.1023,1.0724,1.0759,1.0759,1.0717,1.0717,1.0717,1.0717,1.0717,0.9981,0.8767,0.823,0.0,0.0,0.3153,0.1948,0.074,0.0202,0.0,0.0,0.0,0.0,0.0,0.0,0.0,0.0,0.0,0.0,0.0,0.0,0.0,0.0,0.0,0.0,0.0,0.0,0.0,0.0,0.0,0.0,0.0,0.0,0.0,0.0,0.0,0.0,0.0,0.0,0.0,0.0,0.0,0.0,0.0,0.0,0.0,0.0,0.0,0.0,0.0,0.0,0.0,0.0,0.0,0.0,0.0,0.0,0.0,0.0,0.0,0.0,0.0,0.0,0.0,0.0,0.0,0.0,0.0,1.128,1.1735,1.204,1.1877,1.1165,1.0378,0.993,0.913,0.8486,0.8486,0.8486,0.8526,0.8682,0.8832,0.8885,0.0,0.0,0.0,0.934,0.951,0.972,0.0,0.0,1.0466,1.0847,1.1355,0.0,0.0,0.0,0.0,1.1619,1.147,1.1321,1.1165,1.1234,1.1023,1.0724,1.0724,1.0724,1.0717,1.0717,1.0717,1.0717,1.0717,1.0717,0.0,0.0,0.0,0.0,0.4155,0.2685,0.2484,0.0672,0.0,0.0,0.0,0.0,0.0,0.0,0.0,0.0,0.0,0.0,0.0,0.0,0.0,0.0,0.0,0.0,0.0,0.0,0.0,0.0,0.0,0.0,0.0,0.0,0.0,0.0,0.0,0.0,0.0,0.0,0.0,0.0,0.0,0.0,0.0,0.0,0.0,0.0,0.0,0.0,0.0,0.0,0.0,0.0,0.0,0.0,0.0,0.0,0.0,0.0,0.0,0.0,0.0,0.0,0.0,0.0,0.0,0.0,0.0,1.0222,1.0649,1.0955,1.0806,1.0324,0.9822,0.9578,0.8981,0.8513,0.8615,0.8554,0.856,0.8818,0.8851,0.8885,0.8885,0.0,0.0,0.0,0.0,0.0,1.0161,1.0792,1.1253,0.0,0.0,0.0,0.0,0.0,0.0,1.1321,1.1362,1.1321,1.1165,1.107,1.0921,1.0724,1.0717,1.0717,1.0717,1.0717,1.0717,1.0717,1.0717,1.0717,0.0,0.0,0.0,0.0,0.676,0.5626,0.4359,0.2551,0.1814,0.168,0.0471,0.0,0.0,0.0,0.0,0.0,0.0,0.0,0.0,0.0,0.0,0.0269,0.1478,0.2752,0.3689,0.3689,0.3689,0.3354,0.2148,0.1814,0.1478,0.0269,0.0,0.0,0.0,0.0,0.0,0.0,0.0,0.0,0.0,0.0,0.0,0.0,0.0,0.0,0.0,0.0,0.0,0.0,0.0,0.0,0.0,0.0,0.0,0.0,0.0,0.0,0.0,0.0,0.0,0.0,0.0,0.0,0.0,0.0,0.0,0.0,0.9774,1.008,1.01,0.9727,0.0,0.9306,0.8832,0.8445,0.8594,0.8547,0.856,0.8804,0.8844,0.8885,0.8885,0.0,0.0,0.0,0.0,0.0,1.0059,0.0,0.0,0.0,0.0,0.0,0.0,0.0,0.0,1.1179,1.1199,1.1179,1.1084,1.0995,1.0806,1.0724,1.0717,1.0717,1.0717,1.0717,1.0717,1.0717,1.0717,1.0717,0.0,0.0,0.0,0.0,0.8296,0.7365,0.6231,0.4426,0.3289,0.2551,0.1411,0.0606,0.0,0.0,0.0,0.0,0.0,0.0471,0.1143,0.1814,0.1545,0.1411,0.3222,0.4559,0.5429,0.5429,0.5429,0.5095,0.3957,0.3689,0.3222,0.1411,0.1009,0.0807,0.0135,0.0,0.0,0.0,0.0,0.0,0.0,0.0,0.0,0.0,0.0,0.0,0.0,0.0,0.0,0.0,0.0,0.0,0.0,0.0,0.0,0.0,0.0,0.0,0.0,0.0,0.0,0.0,0.0,0.0,0.0,0.0,0.0,0.0,0.0,0.0,0.0,0.0,0.0,0.0,0.8722,0.0,0.8438,0.8472,0.8526,0.8682,0.8832,0.8885,0.0,0.0,0.0,0.0,0.9391,0.0,0.0,1.0476,0.0,0.0,0.0,0.0,0.0,0.0,0.0,1.1138,1.1016,1.0873,1.0867,1.0867,1.0799,1.0724,1.0717,1.0717,1.0717,1.0717,1.0717,1.0717,1.0717,1.0717,0.0,0.0,0.0,0.0,0.89,0.8163,0.803,0.6297,0.4559,0.3088,0.2954,0.1747,0.0202,0.0336,0.0269,0.0202,0.0336,0.1545,0.3222,0.5028,0.4426,0.3421,0.5095,0.5696,0.5763,0.5763,0.5763,0.5763,0.5629,0.5563,0.5095,0.3289,0.2887,0.2417,0.074,0.0269,0.0202,0.0202,0.0067,0.0,0.0,0.0,0.0,0.0,0.0,0.0,0.0,0.0,0.0,0.0,0.0,0.0,0.0,0.0,0.0,0.0,0.0,0.0,0.0,0.0,0.0,0.0,0.0,0.0,0.0,0.0112,0.0168,0.0,0.0,0.0,0.0,0.0,0.0,0.0,0.0,0.0,0.0,0.0,0.0,0.0,0.0,0.0,0.0,0.0,0.0,0.9207,0.0,0.0,1.0487,1.107,0.0,0.0,0.0,0.0,0.0,0.0,1.1104,1.0839,1.09,1.0826,1.0778,1.0772,1.0758,1.0717,1.0717,1.0717,1.0717,1.0717,1.0717,1.0717,1.0717,0.0,0.0,0.0,0.0,1.0651,1.0246,1.0047,0.9908,0.8102,0.7098,0.656,0.5228,0.3622,0.2283,0.3622,0.3222,0.2283,0.3689,0.4426,0.5095,0.6831,0.7093,0.6827,0.7298,0.8368,0.9443,0.9443,0.9443,0.9105,0.7698,0.7365,0.6898,0.5162,0.476,0.4626,0.4225,0.3021,0.2083,0.2083,0.0941,0.0,0.0,0.0,0.0,0.0,0.0,0.0,0.0,0.0,0.0,0.0,0.0,0.0,0.0,0.0,0.0,0.0,0.0,0.0,0.0,0.0,0.0,0.0,0.0,0.0,0.0,0.1175,0.1678,0.0,0.0,0.0,0.0,0.0,0.0,0.0,0.0,0.0,0.0,0.0,0.0,0.0,0.0,0.0,0.0,0.9001,0.0,0.0,0.0,1.0473,1.0697,1.1131,0.0,0.0,0.0,0.0,0.0,0.0,1.0962,1.0731,1.0799,1.0739,1.0724,1.0717,1.0717,1.0717,1.0717,1.0717,1.0717,1.0717,1.0717,1.0717,1.0717,1.0717,0.0,0.0,0.0,1.0717,1.0717,1.0717,1.0585,0.9643,0.8701,0.7897,0.6965,0.5496,0.4091,0.5028,0.476,0.4225,0.603,0.6564,0.6898,0.8701,0.9238,0.9238,0.9238,0.9915,1.0717,1.0717,1.0717,1.0452,0.9443,0.9238,0.8767,0.6965,0.6564,0.6364,0.5563,0.4626,0.3957,0.3957,0.3155,0.2216,0.1344,0.121,0.0941,0.0135,0.0,0.0,0.0,0.0,0.0,0.0,0.0,0.0,0.0,0.0,0.0,0.0,0.0,0.0,0.0,0.0,0.0,0.0,0.0,0.0405,0.1145,0.1874,0.26,0.0,0.0,0.0,0.0,0.0,0.0,0.0,0.0,0.0,0.0,0.0,0.0,0.0,0.852,0.0,0.0,0.0,0.0,0.9815,1.0154,1.0432,1.0656,0.0,0.0,0.0,0.0,0.0,0.0,0.0,1.0793,1.0724,1.0717,1.0717,1.0717,1.0717,1.0717,1.0717,1.0717,1.0717,1.0717,1.0717,1.0717,1.0717,1.0717,1.0717,0.0,0.0,0.0,1.0717,1.0717,1.0717,1.0717,1.0717,0.9775,0.8435,0.8435,0.7298,0.583,0.583,0.5964,0.6431,0.7964,0.8435,0.8701,1.0246,1.0717,1.0717,1.0717,1.0717,1.0717,1.0717,1.0717,1.0717,1.0717,1.0717,1.0246,0.8767,0.8435,0.7964,0.6498,0.5964,0.583,0.583,0.5573,0.4906,0.3356,0.2892,0.2154,0.0606,0.0202,0.0,0.0,0.0,0.0135,0.0404,0.0133,0.0131,0.0389,0.0128,0.0,0.0,0.0,0.0,0.0,0.0,0.0121,0.0362,0.0357,0.1238,0.2876,0.2952,0.3733,0.7988,0.8133,0.8208,0.8099,0.8008,0.0,0.0,0.0,0.0,0.0,0.0,0.0,0.0,0.8696,0.8831,0.0,0.0,0.9808,0.0,0.0,1.0622,0.0,0.0,0.0,0.0,0.0,0.0,0.0,0.0,0.0,1.0724,1.0717,1.0717,1.0717,1.0717,1.0717,1.0717,1.0717,1.0717,1.0717,1.0717,1.0717,1.0717,1.0717,1.0717,0.0,0.0,1.0717,1.0717,1.0717,1.0717,1.0717,1.0717,1.0518,1.0313,1.0313,0.9172,0.7631,0.7631,0.8634,0.9915,1.018,1.0313,1.0319,1.0651,1.0717,1.0717,1.0717,1.0717,1.0717,1.0717,1.0717,1.0717,1.0717,1.0717,1.0651,1.0319,1.0313,1.018,0.9915,0.8634,0.7631,0.7631,0.6488,0.5434,0.5037,0.3796,0.2721,0.2354,0.0941,0.0,0.0,0.0,0.0605,0.2148,0.0872,0.0666,0.2165,0.0843,0.0,0.0,0.0,0.0,0.0,0.0,0.0672,0.2105,0.2101,0.2975,0.4574,0.5789,0.6478,0.9262,0.9126,0.9187,0.9195,0.8657,0.0,0.0,0.0,0.0,0.0,0.0,0.0,0.0,0.0,0.8986,0.9303,0.0,1.0025,1.0249,0.0,0.0,0.0,0.0,0.0,0.0,0.0,0.0,0.0,0.0,0.0,1.0717,1.0717,1.0717,1.0717,1.0717,1.0717,1.0717,1.0717,1.0717,1.0717,1.0717,1.0717,1.0717,1.0717,1.0717,1.0717,0.0,1.0717,1.0717,1.0717,1.0717,1.0717,1.0717,1.0717,1.0717,1.0717,1.018,0.9437,0.9437,0.9981,1.0717,1.0717,1.0717,1.0717,1.0717,1.0717,1.0717,1.0717,1.0717,1.0717,1.0717,1.0717,1.0744,1.0759,1.0778,1.0744,1.0759,1.0778,1.0717,1.0717,1.0047,0.9461,0.9539,0.8985,0.8116,0.7121,0.6334,0.5447,0.43,0.2551,0.1478,0.1478,0.0606,0.0336,0.1143,0.1344,0.1403,0.1252,0.0455,0.0,0.0,0.0877,0.1368,0.1356,0.2216,0.3005,0.3772,0.3772,0.4663,0.6248,0.6852,0.7595,1.073,1.0471,1.0524,1.0571,0.0,0.0,0.0,0.0,0.0,0.0,0.0,0.0,0.0,0.8913,0.0,0.9734,1.0005,1.0209,0.0,0.0,0.0,0.0,0.0,0.0,0.0,0.0,0.0,0.0,0.0,0.0,1.0717,1.0717,1.0717,1.0717,1.0717,1.0717,1.0717,1.0717,1.0717,1.0717,1.0717,1.0717,1.0717,1.0717,1.0717,1.0717,1.0717,1.0717,1.0717,1.0717,1.0717,1.0717,1.0717,1.0717,1.0717,1.0717,1.0717,1.0717,1.0717,1.0717,1.0717,1.0717,1.0717,1.0717,1.0717,1.0717,1.0717,1.0717,1.0717,1.0731,1.0765,1.0772,1.0812,1.0962,1.0907,1.0853,1.0975,1.0907,1.0812,1.0778,1.0799,1.0853,1.0867,1.0941,1.0551,0.9206,0.8586,0.7796,0.6274,0.4501,0.3354,0.3354,0.168,0.0471,0.0067,0.2016,0.254,0.0728,0.1045,0.1289,0.1275,0.2465,0.313,0.3092,0.4312,0.51,0.5468,0.5468,0.6324,0.7972,0.7823,0.8444,1.1804,1.1895,1.2004,1.1815,0.9871,0.0,0.8567,0.8554,0.0,0.9057,0.0,0.0,0.0,0.9157,0.9456,0.9768,1.0181,0.0,0.0,0.0,0.0,0.0,0.0,0.0,0.0,0.0,0.0,0.0,0.0,0.0,1.0717,0.0,0.0,1.0717,1.0717,1.0717,1.0717,1.0717,1.0717,1.0717,1.0717,1.0717,1.0717,1.0717,1.0717,1.0717,1.0717,1.0717,1.0717,1.0717,1.0717,1.0717,1.0717,1.0717,1.0717,1.0717,1.0717,1.0717,1.0717,1.0717,1.0717,1.0717,1.0717,1.0717,1.0717,1.0717,1.0717,1.0717,1.0717,1.0751,1.0826,1.0867,1.0968,1.1111,1.1138,1.12,1.1214,1.1138,1.109,1.0887,1.1043,1.109,1.09,1.1179,1.1307,1.1027,0.9544,0.839,0.8136,0.6417,0.5228,0.5228,0.3555,0.1814,0.0135,0.3222,0.4423,0.2615,0.4097,0.4978,0.504,0.4973,0.4896,0.489,0.4888,0.5651,0.7235,0.7235,0.8039,0.9633,0.9626,0.968,1.3343,1.2692,1.2353,1.3111,1.0712,0.0,0.0,0.9251,0.8723,0.9139,0.9259,0.0,0.0,0.0,0.9863,1.0073,0.0,0.0,0.0,0.0,0.0,0.0,0.0,0.0,0.0,0.0,0.0,0.0,0.0,0.0,0.0,0.0,0.0,1.0582,1.0575,1.0575,1.0575,1.0575,1.0622,1.0717,1.0717,1.0717,1.0717,1.0717,1.0717,1.0717,1.0717,1.0717,1.0717,1.0717,1.0717,1.0717,1.0717,1.0717,1.0717,1.0717,1.0717,1.0717,1.0717,1.0717,1.0717,1.0717,1.0717,1.0717,1.0717,1.0717,1.0717,1.0717,1.0717,1.0731,1.0792,1.0806,1.0914,1.1131,1.1234,1.1192,1.1287,1.1226,1.1145,1.109,1.1124,1.1179,1.1219,1.1314,1.1369,1.1314,1.0664,1.0135,0.9937,0.8241,0.7031,0.7031,0.5429,0.4091,0.3423,0.5626,0.6698,0.6027,0.5601,0.5433,0.5384,0.6296,0.681,0.6746,0.7656,0.8403,0.9026,0.894,0.9207,0.9822,0.9822,0.9822,1.4268,1.3614,1.3346,1.3407,0.0,0.0,1.0712,0.9859,0.896,0.9354,0.953,0.9639,0.9734,0.0,0.0,0.0,0.0,0.0,0.0,0.0,0.0,0.0,0.0,0.0,0.0,0.0,0.0,0.0,0.0,0.0,0.0,0.0,0.0,0.0,1.0426,1.0426,1.0426,1.0466,1.0548,1.0649,1.0697,1.0717,1.0717,1.0717,1.0717,1.0717,1.0717,1.0717,1.0717,1.0717,1.0717,1.0717,1.0717,1.0717,1.0717,1.0717,1.0717,1.0717,1.0717,1.0717,1.0717,1.0717,1.0717,1.0717,1.0717,1.0717,1.0717,1.0717,1.0758,1.0792,1.0792,1.09,1.1063,1.126,1.1307,1.1335,1.1443,1.1382,1.1294,1.1246,1.1274,1.1321,1.1382,1.143,1.1463,1.1463,1.1335,1.1199,1.1104,0.982,0.8678,0.8035,0.6965,0.603,0.5429,0.7031,0.803,0.803,0.7431,0.7071,0.7069,0.8084,0.868,0.8659,0.9621,1.0058,1.0058,1.0019,0.9944,0.989,0.989,0.9869,1.422,1.4806,1.5153,1.2533,0.0,0.0,1.1433,1.0224,0.9384,0.9869,0.9822,0.9612,0.9612,0.0,0.0,0.0,0.0,0.0,0.0,0.0,0.0,0.0,0.0,0.0,0.0,0.0,0.0,0.0,0.0,0.0,0.0,0.0,0.0,0.0,1.0276,1.0276,1.0276,1.0419,1.0487,1.0493,1.0643,1.0717,1.0717,1.0717,1.0717,1.0717,1.0717,1.0717,1.0717,1.0717,1.0717,1.0717,1.0717,1.0717,1.0717,1.0717,1.0717,1.0717,1.0717,1.0717,1.0717,1.0717,1.0717,1.0717,1.0717,1.0717,1.0717,1.0717,1.0833,1.088,1.088,1.1056,1.124,1.1545,1.1619,1.1619,1.1619,1.1619,1.1572,1.1423,1.1518,1.1572,1.1416,1.1518,1.1619,1.1619,1.1491,1.1389,1.1389,1.1131,1.0139,0.8246,0.803,0.7298,0.5563,0.7031,0.803,0.803,0.9709,1.0717,1.0717,1.0575,1.0493,1.0493,1.0351,1.0283,1.0283,1.0283,1.0202,0.999,0.9984,0.9909,1.4016,1.3565,0.0,1.2321,0.0,0.0,0.0,1.0256,0.0,0.0,1.0053,0.9951,1.0059,0.0,0.0,0.0,0.0,0.0,0.0,0.0,0.0,0.0,0.0,0.0,0.0,0.0,0.0,0.0,0.0,0.0,0.0,0.0,0.0,0.0,1.012,1.012,1.012,1.0161,1.0236,1.0344,1.0392,1.0521,1.0717,1.0717,1.0717,1.0717,1.0717,1.0717,1.0717,1.0717,1.0717,1.0717,1.0717,1.0717,1.0717,1.0717,1.0717,1.0717,1.0717,1.0717,1.0717,1.0717,1.0717,1.0717,1.0717,1.0717,1.0717,1.0717,1.0833,1.09,1.107,1.1212,1.1348,1.1436,1.1538,1.1619,1.1619,1.1619,1.1606,1.1558,1.1586,1.1606,1.1558,1.1592,1.1619,1.1619,1.1491,1.1314,1.1104,1.0934,1.0617,0.9994,0.9908,0.9172,0.7365,0.8839,0.9371,0.8097,0.9709,1.0717,1.0717,1.0677,1.0649,1.0649,1.0507,1.0426,1.0426,1.0331,1.0256,1.0209,1.01,0.9963,1.2474,1.2237,0.0,1.095,1.0136,0.9746,1.0535,0.0,0.0,0.0,1.029,1.0188,1.0337,1.0385,0.0,0.0,0.0,0.0,0.0,0.0,0.0,0.0,0.0,0.0,0.0,0.0,0.0,0.0,0.0,0.0,0.0,0.0,0.0,0.0,0.9896,0.9896,0.9896,0.9957,1.0031,1.0188,1.0249,1.0371,1.0548,1.0602,1.0629,1.0629,1.0697,1.0717,1.0717,1.0717,1.0717,1.0717,1.0717,1.0717,1.0717,1.0717,1.0717,1.0717,1.0717,1.0717,1.0717,1.0717,1.0717,1.0717,1.0717,1.0717,1.0731,1.0725,1.0921,1.1056,1.1138,1.1321,1.1484,1.1484,1.1552,1.1619,1.1619,1.1619,1.1619,1.1619,1.1619,1.1619,1.1619,1.1619,1.1619,1.1619,1.1538,1.1396,1.1158,1.107,1.0975,1.0826,1.0758,1.0246,0.9172,1.0047,1.0246,0.9172,1.0114,1.0717,1.0717,1.0717,1.0717,1.0717,1.0629,1.0582,1.0582,1.0493,1.0426,1.0365,1.027,1.0195,1.0337,1.0837,1.1243,0.9042,0.9661,0.0,0.9947,1.0168,1.0507,1.0636,0.0,1.0317,1.0453,0.0,0.0,0.0,0.0,0.0,0.0,0.0,0.0,0.0,0.0,0.0,0.0,0.0,0.0,0.0,0.0,0.0,0.0,0.0,0.0,0.9822,0.9822,0.9822,0.9822,0.9896,0.9963,0.0,1.0168,1.0236,1.0243,1.0399,1.048,1.05,1.0636,1.0711,1.0717,1.0717,1.0717,1.0717,1.0717,1.0717,1.0717,1.0717,1.0717,1.0717,1.0717,1.0717,1.0717,1.0717,1.0717,1.0717,1.0717,1.0717,1.0751,1.082,1.1043,1.1227,1.1145,1.1382,1.1613,1.1586,1.1599,1.1613,1.1599,1.1606,1.1619,1.1619,1.1619,1.1619,1.1619,1.1619,1.1619,1.1619,1.1619,1.1565,1.1409,1.1267,1.1124,1.0894,1.0759,1.0738,1.0724,1.0717,1.0717,1.0717,1.0717,1.0717,1.0717,1.0717,1.0717,1.0717,1.0717,1.0717,1.0717,1.0717,1.0649,1.0514,1.05,1.0426,0.0,1.0293,0.0,0.0,0.937,1.0046,0.9944,1.0168,1.0304,1.0145,1.0236,1.029,1.0324,0.0,0.0,0.0,0.0,0.0,0.0,0.0,0.0,0.0,0.0,0.0,0.0,0.0,0.0,0.0,0.0,0.0,0.0,0.0,0.0,0.9822,0.9822,0.9822,0.9822,0.9856,0.9869,0.0,0.9903,0.9917,0.993,1.0202,1.0385,1.0493,1.0527,1.0609,1.0717,1.0717,1.0717,1.0717,1.0717,1.0717,1.0717,1.0717,1.0717,1.0717,1.0717,1.0717,1.0717,1.0717,1.0717,1.0717,1.0717,1.0717,1.0724,1.0758,1.0962,1.1138,1.1023,1.1307,1.1558,1.1314,1.1443,1.1586,1.1463,1.1538,1.1619,1.1619,1.1619,1.1619,1.1619,1.1619,1.1619,1.1619,1.1619,1.1565,1.1409,1.1362,1.124,1.0907,1.0853,1.0786,1.0731,1.0717,1.0717,1.0717,1.0717,1.0717,1.0717,1.0717,1.0717,1.0717,1.0717,1.0717,1.0717,1.0717,1.0704,1.067,1.0548,1.0473,0.0,0.0,0.0,0.8975,0.0,0.9863,0.995,1.0053,1.0059,0.999,1.0175,1.0283,0.0,0.0,0.0,0.0,0.0,0.0,0.0,0.0,0.0,0.0,0.0,0.0,0.0,0.0,0.0,0.0,0.0,0.0,0.0,0.972,0.9747,0.9822,0.9822,0.9822,0.9822,0.9822,0.9822,0.9822,0.9822,0.9822,0.9829,1.0059,1.0249,1.0392,1.046,1.0534,1.0616,1.069,1.0717,1.0717,1.0717,1.0717,1.0717,1.0717,1.0717,1.0717,1.0717,1.0717,1.0717,1.0717,1.0717,1.0717,1.0717,1.0717,1.0738,1.0806,1.0989,1.1214,1.107,1.128,1.1436,1.1131,1.1348,1.1579,1.1423,1.1511,1.1619,1.1619,1.1619,1.1619,1.1619,1.1619,1.1619,1.1619,1.1619,1.1592,1.1511,1.1436,1.1307,1.1077,1.0989,1.082,1.0731,1.0717,1.0717,1.0717,1.0717,1.0717,1.0717,1.0717,1.0717,1.0717,1.0717,1.0717,1.0717,1.0717,1.0717,1.0717,1.0636,1.0602,0.0,0.0,0.849,0.9036,0.9415,0.0,0.9869,0.9876,0.9829,0.9916,1.0114,0.0,0.0,0.0,0.0,0.0,0.0,0.0,0.0,0.0,0.0,0.0,0.0,0.0,0.0,0.0,0.0,0.0,0.0,0.0,0.9571,0.9571,0.9625,0.9741,0.9747,0.9747,0.9747,0.9747,0.9754,0.9781,0.9808,0.9822,0.9822,0.9889,1.0093,1.0249,1.0365,1.0446,1.05,1.0629,1.0697,1.0717,1.0717,1.0717,1.0717,1.0717,1.0717,1.0717,1.0717,1.0717,1.0717,1.0717,1.0717,1.0717,1.0717,1.0717,1.0751,1.084,1.105,1.1158,1.1131,1.126,1.1314,1.0954,1.1274,1.1538,1.1382,1.1491,1.1619,1.1619,1.1619,1.1613,1.1586,1.1599,1.1599,1.1552,1.1565,1.1579,1.1579,1.147,1.1335,1.1179,1.1056,1.0914,1.0738,1.0717,1.0717,1.0717,1.0717,1.0717,1.0717,1.0717,1.0717,1.0717,1.0717,1.0717,1.0717,1.0717,1.0717,1.0717,1.0717,1.0717,0.0,0.0,0.8533,0.0,0.9103,0.9371,0.0,0.0,0.968,0.0,0.0,0.0,0.0,0.0,0.0,0.0,0.0,0.0,0.0,0.0,0.0,0.0,0.0,0.0,0.0,0.0,0.0,0.0,0.0,0.0,0.9408,0.9408,0.9422,0.9442,0.9442,0.9442,0.9442,0.9442,0.9503,0.9639,0.9761,0.9822,0.9822,0.9842,0.9937,1.0017,1.0038,1.0256,1.0493,1.0514,1.0602,1.0717,1.0717,1.0717,1.0717,1.0717,1.0717,1.0717,1.0717,1.0717,1.0717,1.0717,1.0717,1.0717,1.0717,1.0717,1.0751,1.084,1.105,1.1131,1.1009,1.1185,1.1314,1.0954,1.1192,1.1382,1.1226,1.1416,1.1619,1.1619,1.1619,1.1579,1.1443,1.1531,1.1531,1.126,1.1335,1.1423,1.1423,1.1402,1.1335,1.1179,1.1214,1.1023,1.0744,1.0717,1.0717,1.0717,1.0717,1.0717,1.0717,1.0717,1.0717,1.0717,1.0717,1.0717,1.0717,1.0717,1.0717,1.0717,1.0717,1.0717,0.8298,0.883,0.9422,0.0,0.8981,0.9248,0.932,0.0,0.9496,0.0,0.0,0.0,0.0,0.0,0.0,0.0,0.0,0.0,0.0,0.0,0.0,0.0,0.0,0.0,0.0,0.0,0.0,0.0,0.0,0.9309,0.9309,0.9309,0.9293,0.9381,0.9381,0.9381,0.9381,0.9381,0.9456,0.9612,0.9673,0.9741,0.9822,0.9822,0.9856,0.9862,0.995,1.0058,1.0256,1.0426,1.0534,1.0602,1.0683,1.0717,1.0717,1.0717,1.0717,1.0717,1.0717,1.0717,1.0717,1.0717,1.0717,1.0717,1.0717,1.0717,1.0731,1.0799,1.0989,1.1151,1.1084,1.1226,1.1355,1.1226,1.1294,1.1375,1.1307,1.1463,1.1619,1.1619,1.1619,1.1599,1.1531,1.1504,1.1477,1.1423,1.1328,1.1321,1.1497,1.1443,1.1362,1.1301,1.1212,1.1077,1.0799,1.0772,1.0717,1.0717,1.0717,1.0717,1.0717,1.0717,1.0717,1.0717,1.0717,1.0717,1.0717,1.0717,1.0717,1.0717,1.0717,1.0717,0.0,0.0,1.0501,0.9391,0.9291,0.9389,0.0,0.0,0.9293,0.0,0.0,0.0,0.0,0.0,0.0,0.0,0.0,0.0,0.0,0.0,0.0,0.0,0.0,0.0,0.0,0.0,0.0,0.0,0.0,0.9096,0.9096,0.9096,0.915,0.9266,0.9266,0.9266,0.9266,0.9306,0.9401,0.9551,0.9591,0.9686,0.9822,0.9822,0.9822,0.9829,0.9883,0.997,1.0127,1.0344,1.048,1.0561,1.0677,1.0717,1.0717,1.0717,1.0717,1.0717,1.0717,1.0717,1.0717,1.0717,1.0717,1.0717,1.0717,1.0717,1.0738,1.0812,1.0995,1.1241,1.1212,1.1307,1.1389,1.1389,1.1389,1.1402,1.1443,1.1538,1.1619,1.1619,1.1619,1.1606,1.1565,1.1497,1.1463,1.1497,1.1341,1.1301,1.1531,1.1463,1.1389,1.1389,1.1253,1.1104,1.0894,1.0806,1.0717,1.0717,1.0717,1.0717,1.0717,1.0717,1.0717,1.0717,1.0717,1.0717,1.0717,1.0717,1.0717,1.0717,1.0717,1.0717,0.0,1.1775,0.0,1.0398,1.0154,0.0,0.0,0.0,0.0,0.0,0.0,0.0,0.0,0.0,0.0,0.0,0.0,0.0,0.0,0.0,0.0,0.0,0.0,0.0,0.0,0.0,0.0,0.0,0.0,0.8892,0.8892,0.8892,0.8898,0.8905,0.8905,0.8905,0.8905,0.9096,0.9303,0.9395,0.9544,0.9686,0.9822,0.9822,0.9822,0.9822,0.9829,0.9998,1.027,1.0283,1.046,1.0711,1.0717,1.0717,1.0717,1.0717,1.0717,1.0717,1.0717,1.0717,1.0717,1.0717,1.0717,1.0717,1.0717,1.0717,1.0778,1.1056,1.122,1.1199,1.1341,1.1389,1.1389,1.1389,1.1389,1.143,1.1572,1.1613,1.1619,1.1619,1.1619,1.1572,1.143,1.1518,1.1511,1.1226,1.1294,1.1389,1.1402,1.1396,1.1389,1.1389,1.1253,1.1104,1.0894,1.0806,1.0717,1.0717,1.0717,1.0717,1.0717,1.0717,1.0717,1.0717,1.0717,1.0717,1.0717,1.0717,1.0717,1.0717,1.0717,1.0717,0.0,0.0,0.0,1.0564,1.0129,0.9916,0.8779,0.8581,0.0,0.0,0.0,0.0,0.0,0.0,0.0,0.0,0.0,0.0,0.0,0.0,0.0,0.0,0.0,0.0,0.0,0.0,0.0,0.0,0.0,0.0,0.8885,0.8885,0.8885,0.8885,0.8885,0.8885,0.8885,0.8988,0.9137,0.9381,0.9435,0.9591,0.9822,0.9822,0.9822,0.9822,0.9822,0.9883,0.9998,1.0202,1.0344,1.046,1.0643,1.0717,1.0717,1.0717,1.0717,1.0717,1.0717,1.0717,1.0717,1.0717,1.0717,1.0717,1.0717,1.0717,1.0744,1.0846,1.1016,1.1241,1.1226,1.1389,1.1538,1.1538,1.1538,1.1552,1.1606,1.1619,1.1619,1.1619,1.1619,1.1599,1.1545,1.1504,1.147,1.1457,1.1335,1.1314,1.1511,1.145,1.143,1.1525,1.1314,1.1138,1.109,1.086,1.0717,1.0717,1.0717,1.0717,1.0717,1.0717,1.0717,1.0717,1.0717,1.0717,1.0717,1.0717,1.0717,1.0717,1.0717,1.0717,1.073,0.0,0.0,0.0,0.0,0.9795,0.8561,0.0,0.0,0.0,0.0,0.0,0.0,0.0,0.0,0.0,0.0,0.0,0.0,0.0,0.0,0.0,0.0,0.0,0.0,0.0,0.0,0.0,0.0,0.0,0.8878,0.8885,0.8885,0.8885,0.8885,0.8885,0.8885,0.8885,0.9089,0.9381,0.9381,0.9537,0.9822,0.9822,0.9822,0.9822,0.9822,0.9849,0.9917,1.012,1.0263,1.0371,1.0568,1.0677,1.0717,1.0717,1.0717,1.0717,1.0717,1.0717,1.0717,1.0717,1.0717,1.0717,1.0717,1.0717,1.0731,1.0778,1.0975,1.1241,1.1226,1.143,1.1619,1.1619,1.1619,1.1619,1.1619,1.1619,1.1619,1.1619,1.1619,1.1619,1.1619,1.1538,1.1504,1.1606,1.1443,1.1389,1.1592,1.1531,1.1504,1.1606,1.1389,1.124,1.124,1.0968,1.0799,1.0799,1.0751,1.0717,1.0717,1.0717,1.0717,1.0717,1.0717,1.0717,1.0717,1.0717,1.0717,1.0717,1.0717,1.0717,0.0,0.0,0.0,0.0,0.0,0.0,0.8533,0.0,0.0,0.0,0.0,0.0,0.0,0.0,0.0,0.0,0.0,0.0,0.0,0.0,0.0,0.0,0.0,0.0,0.0,0.0,0.0,0.0,0.0,0.8771,0.8865,0.8871,0.8878,0.8885,0.8885,0.8885,0.8885,0.8885,0.9089,0.9381,0.9381,0.9537,0.9822,0.9822,0.9822,0.9822,0.9822,0.9842,0.9977,0.9984,1.0222,1.048,1.0487,1.0582,1.0711,1.0717,1.0717,1.0717,1.0717,1.0717,1.0717,1.0717,1.0717,1.0717,1.0717,1.0717,1.0751,1.0833,1.105,1.1199,1.1355,1.1511,1.1619,1.1619,1.1619,1.1619,1.1619,1.1619,1.1619,1.1619,1.1619,1.1619,1.1619,1.1619,1.1619,1.1619,1.1619,1.1619,1.1619,1.1619,1.1619,1.1619,1.1477,1.1389,1.1389,1.1118,1.0873,1.088,1.0739,1.0717,1.0717,1.0717,1.0717,1.0717,1.0717,1.0717,1.0717,1.0717,1.0717,1.0717,1.0717,1.0717,1.0435,0.0,0.0,0.0,0.0,0.0,0.0,0.0,0.0,0.0,0.0,0.0,0.0,0.0,0.0,0.0,0.0,0.0,0.0,0.0,0.0,0.0,0.0,0.0,0.0,0.0,0.0,0.0,0.8547,0.856,0.8608,0.8716,0.8825,0.8878,0.8885,0.8885,0.8885,0.8885,0.9089,0.9381,0.9381,0.9537,0.9822,0.9822,0.9822,0.9822,0.9822,0.9842,0.989,0.9943,1.0038,1.0132,1.0405,1.0521,1.0568,1.0677,1.0717,1.0717,1.0717,1.0717,1.0717,1.0717,1.0717,1.0717,1.0717,1.0717,1.0731,1.0772,1.0968,1.1226,1.1491,1.1586,1.1619,1.1619,1.1619,1.1619,1.1619,1.1619,1.1619,1.1619,1.1619,1.1619,1.1619,1.1619,1.1619,1.1619,1.1619,1.1619,1.1619,1.1619,1.1619,1.1619,1.1382,1.1267,1.1382,1.1016,1.0833,1.0873,1.0739,1.0717,1.0717,1.0717,1.0717,1.0717,1.0717,1.0717,1.0717,1.0717,1.0717,1.0717,1.0717,1.0717,0.0,0.0,0.0,0.0,0.0,0.0,0.8187,0.7988,0.8015,0.0,0.0,0.0,0.0,0.0,0.0,0.0,0.0,0.0,0.0,0.0,0.0,0.0,0.0,0.0,0.0,0.0,0.0,0.8391,0.8391,0.8445,0.8567,0.8662,0.8777,0.8878,0.8885,0.8885,0.8885,0.8885,0.9055,0.9344,0.9354,0.9503,0.9734,0.9795,0.9822,0.9822,0.9822,0.9822,0.9829,0.9856,0.993,1.0011,1.031,1.0439,1.0514,1.0663,1.0717,1.0717,1.0717,1.0717,1.0717,1.0717,1.0717,1.0717,1.0717,1.0717,1.0717,1.0717,1.0934,1.1233,1.1538,1.1619,1.1619,1.1619,1.1619,1.1619,1.1619,1.1619,1.1619,1.1619,1.1619,1.1619,1.1619,1.1619,1.1619,1.1619,1.1619,1.1619,1.1619,1.1619,1.1619,1.1619,1.1402,1.1294,1.1382,1.109,1.0921,1.088,1.0799,1.0785,1.0724,1.0717,1.0717,1.0717,1.0717,1.0717,1.0717,1.0717,1.0717,1.0717,1.0717,1.0717,0.0,0.0,0.0,0.0,0.0,0.0,0.7988,0.7988,0.7988,0.7988,0.0,0.0,0.0,0.0,0.0,0.0,0.0,0.0,0.0,0.0,0.0,0.0,0.0,0.0,0.0,0.7988,0.8099,0.8235,0.8248,0.8377,0.8669,0.8682,0.8764,0.8878,0.8885,0.8885,0.8885,0.8885,0.9008,0.9214,0.9306,0.9462,0.9612,0.9754,0.9822,0.9822,0.9822,0.9822,0.9822,0.9822,0.9842,0.9977,1.0215,1.0358,1.0487,1.0656,1.0717,1.0717,1.0717,1.0717,1.0717,1.0717,1.0717,1.0717,1.0717,1.0717,1.0724,1.0744,1.0948,1.1226,1.1518,1.1606,1.1619,1.1619,1.1619,1.1619,1.1619,1.1619,1.1619,1.1619,1.1619,1.1619,1.1619,1.1619,1.1619,1.1619,1.1619,1.1619,1.1619,1.1619,1.1619,1.1619,1.1484,1.1389,1.1389,1.124,1.1084,1.0887,1.088,1.0813,1.0724,1.0738,1.0738,1.0717,1.0717,1.0717,1.0717,1.0717,1.0717,1.0717,1.0717,1.0717,0.0,0.0,0.0,0.0,0.0,0.0,0.7988,0.7988,0.7988,0.0,0.0,0.0,0.0,0.0,0.0,0.0,0.0,0.0,0.0,0.0,0.0,0.0,0.0,0.0,0.0,0.7988,0.8002,0.8029,0.8085,0.8214,0.8513,0.8526,0.8655,0.8871,0.8885,0.8885,0.8885,0.8885,0.9008,0.9214,0.9306,0.9462,0.9612,0.9754,0.9822,0.9822,0.9822,0.9822,0.9822,0.9822,0.9836,0.989,1.0175,1.0297,1.0351,1.0622,1.0717,1.0717,1.0717,1.0717,1.0717,1.0717,1.0717,1.0717,1.0717,1.0717,1.0744,1.0799,1.1029,1.1275,1.1389,1.1525,1.1619,1.1619,1.1619,1.1619,1.1619,1.1619,1.1619,1.1619,1.1619,1.1619,1.1619,1.1619,1.1619,1.1619,1.1619,1.1619,1.1619,1.1619,1.1619,1.1619,1.1484,1.1389,1.1389,1.1145,1.0914,1.088,1.088,1.0813,1.0724,1.0772,1.0779,1.0724,1.0717,1.0717,1.0717,1.0717,1.0717,1.0717,1.0717,1.0717,0.0,0.0,0.0,0.7988,0.0,0.0,0.0,0.7988,0.7988,0.7988,0.0,0.0,0.0,0.0,0.0,0.0,0.0,0.0,0.0,0.0,0.0,0.0,0.0,0.0,0.0,0.7988,0.7988,0.7988,0.7988,0.814,0.8364,0.8377,0.8513,0.8818,0.8825,0.8804,0.8885,0.8885,0.8974,0.9049,0.9273,0.9422,0.9503,0.972,0.9822,0.9822,0.9822,0.9822,0.9822,0.9822,0.9822,0.9849,1.0161,1.0324,1.0412,1.0636,1.0717,1.0717,1.0717,1.0717,1.0717,1.0717,1.0717,1.0717,1.0717,1.0717,1.0751,1.084,1.105,1.1199,1.1348,1.1504,1.1619,1.1619,1.1619,1.1619,1.1619,1.1619,1.1619,1.1619,1.1619,1.1619,1.1619,1.1619,1.1619,1.1619,1.1619,1.1619,1.1619,1.1619,1.1619,1.1619,1.1484,1.1389,1.1389,1.1253,1.1138,1.1063,1.1124,1.1104,1.0948,1.0948,1.0806,1.0724,1.0717,1.0717,1.0717,1.0799,1.0792,1.0717,1.0717,1.0717,0.0,0.0,0.0,0.0,0.0,0.8029,0.0,0.0,0.0,0.0,0.0,0.0,0.0,0.0,0.0,0.0,0.0,0.0,0.0,0.0,0.0,0.0,0.0,0.0,0.0,0.7988,0.7988,0.7988,0.7988,0.8106,0.8313,0.832,0.8391,0.8655,0.8696,0.8771,0.8838,0.8871,0.8885,0.8885,0.9239,0.9381,0.9395,0.9686,0.9822,0.9822,0.9822,0.9822,0.9822,0.9822,0.9856,0.9937,1.0181,1.0351,1.0473,1.0656,1.0717,1.0717,1.0717,1.0717,1.0717,1.0717,1.0717,1.0717,1.0717,1.0717,1.0744,1.0799,1.1009,1.1158,1.1307,1.1463,1.1586,1.1613,1.1619,1.1619,1.1619,1.1619,1.1619,1.1619,1.1619,1.1619,1.1619,1.1619,1.1619,1.1619,1.1619,1.1619,1.1619,1.1619,1.1619,1.1619,1.1511,1.1423,1.1396,1.1389,1.1328,1.1241,1.1307,1.1321,1.1241,1.105,1.0934,1.0806,1.0806,1.0806,1.0806,1.09,1.0799,1.0724,1.0778,1.0772,0.0,0.0,0.0,0.0,0.814,0.0,0.8022,0.0,0.7988,0.7988,0.0,0.0,0.0,0.0,0.0,0.0,0.0,0.0,0.0,0.0,0.0,0.0,0.0,0.0,0.0,0.0,0.7988,0.7988,0.7988,0.8106,0.8313,0.832,0.8343,0.8506,0.8642,0.8716,0.8737,0.8817,0.8885,0.8885,0.9239,0.9381,0.9395,0.9686,0.9822,0.9822,0.9822,0.9822,0.9822,0.9822,0.9985,1.0229,1.027,1.029,1.0337,1.0616,1.0717,1.0717,1.0717,1.0717,1.0717,1.0717,1.0717,1.0717,1.0717,1.0717,1.0724,1.0744,1.0786,1.1002,1.1151,1.1301,1.145,1.1586,1.1619,1.1619,1.1619,1.1619,1.1619,1.1619,1.1619,1.1619,1.1619,1.1619,1.1619,1.1619,1.1619,1.1619,1.1619,1.1619,1.1619,1.1619,1.1606,1.1538,1.1402,1.1389,1.1328,1.1241,1.1307,1.1321,1.1241,1.1145,1.1131,1.1111,1.1111,1.1111,1.1111,1.1002,1.0799,1.0724,1.0989,1.0968,0.0,0.0,0.0,0.0,0.0,0.0,0.8002,0.0,0.7988,0.0,0.0,0.0,0.0,0.0,0.0,0.0,0.0,0.0,0.0,0.0,0.0,0.0,0.0,0.0,0.0,0.0,0.0,0.0,0.0,0.8015,0.8133,0.814,0.8208,0.8357,0.8499,0.8621,0.871,0.8804,0.8885,0.8885,0.915,0.935,0.9388,0.9598,0.9741,0.9822,0.9822,0.9822,0.9822,0.9822,0.9951,1.0154,1.0243,1.0385,1.0555,1.0677,1.0717,1.0717,1.0717,1.0717,1.0717,1.0717,1.0717,1.0717,1.0717,1.0717,1.0717,1.0717,1.0887,1.1084,1.1145,1.1274,1.143,1.1586,1.1552,1.1511,1.1599,1.1619,1.1619,1.1619,1.1619,1.1619,1.1619,1.1619,1.1619,1.1619,1.1619,1.1619,1.1619,1.1619,1.1619,1.1619,1.1619,1.1592,1.1531,1.1525,1.1497,1.143,1.1491,1.1416,1.1241,1.1246,1.1212,1.1043,1.1118,1.1124,1.1036,1.1151,1.1084,1.0786,1.0982,1.0975,0.7988,0.0,0.0,0.0,0.0,0.0,0.0,0.0,0.0,0.0,0.0,0.0,0.0,0.0,0.0,0.0,0.0,0.0,0.0,0.0,0.0,0.0,0.0,0.0,0.0,0.0,0.0,0.7988,0.7988,0.7988,0.7988,0.7988,0.8113,0.832,0.8411,0.8554,0.871,0.8804,0.8885,0.8885,0.9083,0.9289,0.9388,0.9537,0.9686,0.9822,0.9822,0.9822,0.9822,0.9822,0.9937,1.0127,1.0236,1.046,1.0717,1.0717,1.0717,1.0717,1.0717,1.0717,1.0717,1.0717,1.0717,1.0717,1.0717,1.0751,1.0785,1.0785,1.0968,1.1241,1.1282,1.1307,1.143,1.1586,1.1538,1.1484,1.1592,1.1619,1.1619,1.1619,1.1619,1.1619,1.1619,1.1619,1.1619,1.1619,1.1619,1.1619,1.1619,1.1619,1.1619,1.1619,1.1619,1.1619,1.1619,1.1619,1.1619,1.1619,1.1619,1.1518,1.1294,1.1396,1.1355,1.1069,1.1233,1.124,1.1062,1.1307,1.128,1.107,1.1042,1.0995,0.0,0.0,0.0,0.8029,0.0,0.0,0.0,0.0,0.8221,0.0,0.0,0.0,0.0,0.0,0.0,0.0,0.0,0.0,0.0,0.0,0.0,0.0,0.0,0.0,0.0,0.0,0.0,0.7988,0.7988,0.7988,0.7988,0.7988,0.8113,0.832,0.8411,0.8554,0.871,0.8804,0.8885,0.8885,0.9083,0.9289,0.9388,0.9537,0.9686,0.9822,0.9822,0.9822,0.9822,0.9822,0.9998,1.0276,1.0276,1.046,1.0717,1.0717,1.0717,1.0717,1.0717,1.0717,1.0717,1.0717,1.0717,1.0717,1.0717,1.0759,1.0873,1.0873,1.105,1.1199,1.1348,1.1389,1.143,1.1586,1.1613,1.1613,1.1619,1.1619,1.1619,1.1619,1.1619,1.1619,1.1619,1.1619,1.1619,1.1619,1.1619,1.1619,1.1619,1.1619,1.1619,1.1619,1.1619,1.1619,1.1619,1.1619,1.1619,1.1619,1.1619,1.1613,1.1606,1.1606,1.1606,1.1599,1.1599,1.1599,1.1599,1.1457,1.1389,1.1382,1.1531,1.1362,0.0,0.0,0.8377,0.8228,0.0,0.0,0.0,0.0,0.0,0.0,0.0,0.0,0.0,0.0,0.0,0.0,0.0,0.0,0.0,0.0,0.0,0.0,0.0,0.0,0.0,0.0,0.0,0.7988,0.7988,0.7988,0.0,0.7988,0.8015,0.8113,0.8357,0.8506,0.856,0.8811,0.8988,0.9083,0.9187,0.9344,0.9537,0.9585,0.9686,0.9822,0.9822,0.9822,0.9829,0.9869,1.0093,1.029,1.0385,1.0541,1.0717,1.0717,1.0717,1.0717,1.0717,1.0717,1.0717,1.0717,1.0717,1.0717,1.0717,1.0759,1.088,1.088,1.1124,1.1328,1.1375,1.1389,1.143,1.1586,1.1545,1.1497,1.1599,1.1619,1.1619,1.1619,1.1619,1.1619,1.1619,1.1619,1.1619,1.1619,1.1619,1.1619,1.1619,1.1619,1.1619,1.1619,1.1619,1.1109,0.9795,0.9646,1.0233,1.1548,1.1619,1.1572,1.147,1.1565,1.1572,1.147,1.1565,1.1572,1.147,1.1518,1.1491,1.1396,1.1545,1.1484,0.837,0.8411,0.0,0.837,0.8361,0.0,0.8208,0.0,0.0,0.0,0.0,0.0,0.0,0.0,0.0,0.0,0.0,0.0,0.0,0.0,0.0,0.0,0.0,0.0,0.0,0.0,0.7988,0.7988,0.7988,0.7988,0.0,0.0,0.8015,0.8119,0.8357,0.8506,0.856,0.8811,0.9008,0.9207,0.9207,0.9313,0.9612,0.9612,0.9686,0.9822,0.9822,0.9822,0.9829,0.9869,1.0093,1.029,1.0378,1.0541,1.0717,1.0717,1.0717,1.0717,1.0717,1.0717,1.0717,1.0717,1.0717,1.0717,1.0717,1.0759,1.088,1.088,1.1165,1.1389,1.1389,1.143,1.1497,1.1599,1.1545,1.1497,1.1599,1.1619,1.1619,1.1619,1.1619,1.1619,1.1619,1.1619,1.1619,1.1619,1.1619,1.1619,1.1619,1.1619,1.1619,1.1619,1.1619,1.0815,0.8848,0.8703,0.9213,1.0521,1.0593,1.0849,1.1477,1.1565,1.1647,1.1708,1.1653,1.1647,1.1708,1.1647,1.1565,1.1477,1.1572,1.1565]}]]